[[{"header":{"parameterUnit":"m.s-1","parameterCategory":1,"la1":31.0,"la2":29.5877,"lo1":-88.7671,"lo2":-86.6584,"dy":0.0162,"dx":0.0185,"nx":115,"ny":88,"refTime":"2024-08-16T12:00:00:Z","depth":0,"parameterNumber":2,"parameterNumberName":"U-component_of_WINDS"},"data":[0.0,0.0,0.0,0.0,0.0,0.0,0.0,0.0,0.0,0.0,0.0,0.0,0.0,0.0,0.0,0.0,0.0,0.0,0.0,0.0,0.0,0.0,0.0,0.0,0.0,0.0,0.0,0.0,0.0,0.0,0.0,0.0,0.0,0.0,0.0,0.0,0.0,0.0,0.0,0.0,0.0,0.0,0.0,0.0,0.0,0.0,0.0,0.0,0.0,0.0,0.0,0.0,0.0,0.0,0.0,0.0,0.0,0.0,0.0,0.0,0.0,0.0,0.0,0.0,0.0,0.0,0.0,0.0,0.0,0.0,0.0,0.0,0.0,0.0,0.0,0.0,0.0,0.0,0.0,0.0,0.0,0.0,0.0,0.0,0.0,0.0,0.0,0.0,0.0,0.0,0.0,0.0,0.0,0.0,0.0,0.0,0.0,0.0,0.0,0.0,0.0,0.0,0.0,0.0,0.0,0.0,0.0,0.0,0.0,0.0,0.0,0.0,0.0,0.0,0.0,0.0,0.0,0.0,0.0,0.0,0.0,0.0,0.0,0.0,0.0,0.0,0.0,0.0,0.0,0.0,0.0,0.0,0.0,0.0,0.0,0.0,0.0,0.0,0.0,0.0,0.0,0.0,0.0,0.0,0.0,0.0,0.0,0.0,0.0,0.0,0.0,0.0,0.0,0.0,0.0,0.0,0.0,0.0,0.0,0.0,0.0,0.0,0.0,0.0,0.0,0.0,0.0,0.0,0.0,0.0,0.0,0.0,0.0,0.0,0.0,0.0,0.0,0.0,0.0,0.0,0.0,0.0,0.0,0.0,0.0,0.0,0.0,0.0,0.0,0.0,0.0,0.0,0.0,0.0,0.0,0.0,0.0,0.0,0.0,0.0,0.0,0.0,0.0,0.0,0.0,0.0,0.0,0.0,0.0,0.0,0.0,0.0,0.0,0.0,0.0,0.0,0.0,0.0,0.0,0.0,0.0,0.0,0.0,0.0,0.0,0.0,0.0,0.0,0.0,0.0,0.0,0.0,0.0,0.0,0.0,0.0,0.0,0.0,0.0,0.0,0.0,0.0,0.0,0.0,0.0,0.0,0.0,0.0,0.0,0.0,0.0,0.0,0.0,0.0,0.0,0.0,0.0,0.0,0.0,0.0,0.0,0.0,0.0,0.0,0.0,0.0,0.0,0.0,0.0,0.0,0.0,0.0,0.0,0.0,0.0,0.0,0.0,0.0,0.0,0.0,0.0,0.0,0.0,0.0,0.0,0.0,0.0,0.0,0.0,0.0,0.0,0.0,0.0,0.0,0.0,0.0,0.0,0.0,0.0,0.0,0.0,0.0,0.0,0.0,0.0,0.0,0.0,0.0,0.0,0.0,0.0,0.0,0.0,0.0,0.0,0.0,0.0,0.0,0.0,0.0,0.0,0.0,0.0,0.0,0.0,0.0,0.0,0.0,0.0,0.0,0.0,0.0,0.0,0.0,0.0,0.0,0.0,0.0,0.0,0.0,0.0,0.0,0.0,0.0,0.0,0.0,0.0,0.0,0.0,0.0,0.0,0.0,0.0,0.0,0.0,0.0,0.0,0.0,0.0,0.0,0.0,0.0,0.0,0.0,0.0,0.0,0.0,0.0,0.0,0.0,0.0,0.0,0.0,0.0,0.0,0.0,0.0,0.0,0.0,0.0,0.0,0.0,0.0,0.0,0.0,0.0,0.0,0.0,0.0,0.0,0.0,0.0,0.0,0.0,0.0,0.0,0.0,0.0,0.0,0.0,0.0,0.0,0.0,0.0,0.0,0.0,0.0,0.0,0.0,0.0,0.0,0.0,0.0,0.0,0.0,0.0,0.0,0.0,0.0,0.0,0.0,0.0,0.0,0.0,0.0,0.0,0.0,0.0,0.0,0.0,0.0,0.0,0.0,0.0,0.0,0.0,0.0,0.0,0.0,0.0,0.0,0.0,0.0,0.0,0.0,0.0,0.0,0.0,0.0,0.0,0.0,0.0,0.0,0.0,0.0,0.0,0.0,0.0,0.0,0.0,0.0,0.0,0.0,0.0,0.0,0.0,0.0,0.0,0.0,0.0,0.0,0.0,0.0,0.0,0.0,0.0,0.0,0.0,0.0,0.0,0.0,0.0,0.0,0.0,0.0,0.0,0.0,0.0,0.0,0.0,0.0,0.0,0.0,0.0,0.0,0.0,0.0,0.0,0.0,0.0,0.0,0.0,0.0,0.0,0.0,0.0,0.0,0.0,0.0,0.0,0.0,0.0,0.0,0.0,0.0,0.0,0.0,0.0,0.0,0.0,0.0,0.0,0.0,0.0,0.0,0.0,0.0,0.0,0.0,0.0,0.0,0.0,0.0,0.0,0.0,0.0,0.0,0.0,0.0,0.0,0.0,0.0,0.0,0.0,0.0,0.0,0.0,0.0,0.0,0.0,0.0,0.0,0.0,0.0,0.0,0.0,0.0,0.0,0.0,0.0,0.0,0.0,0.0,0.0,0.0,0.0,0.0,0.0,0.0,0.0,0.0,0.0,0.0,0.0,0.0,0.0,0.0,0.0,0.0,0.0,0.0,0.0,0.0,0.0,0.0,0.0,0.0,0.0,0.0,0.0,0.0,0.0,0.0,0.0,0.0,0.0,0.0,0.0,0.0,0.0,0.0,0.0,0.0,0.0,0.0,0.0,0.0,0.0,0.0,0.0,0.0,0.0,0.0,0.0,0.0,0.0,0.0,0.0,0.0,0.0,0.0,0.0,0.0,0.0,0.0,0.0,0.0,0.0,0.0,0.0,0.0,0.0,0.0,0.0,0.0,0.0,0.0,0.0,0.0,0.0,0.0,0.0,0.0,0.0,0.0,0.0,0.0,0.0,0.0,0.0,0.0,0.0,0.0,0.0,0.0,0.0,0.0,0.0,0.0,0.0,0.0,0.0,0.0,0.0,0.0,0.0,0.0,0.0,0.0,0.0,0.0,0.0,0.0,0.0,0.0,0.0,0.0,0.0,0.0,0.0,0.0,0.0,0.0,0.0,0.0,0.0,0.0,0.0,0.0,0.0,0.0,0.0,0.0,0.0,0.0,0.0,0.0,0.0,0.0,0.0,0.0,0.0,0.0,0.0,0.0,0.0,0.0,0.0,0.0,0.0,0.0,0.0,0.0,0.0,0.0,0.0,0.0,0.0,0.0,0.0,0.0,0.0,0.0,0.0,0.0,0.0,0.0,0.0,0.0,0.0,0.0,0.0,0.0,0.0,0.0,0.0,0.0,0.0,0.0,0.0,0.0,0.0,0.0,0.0,0.0,0.0,0.0,0.0,0.0,0.0,0.0,0.0,0.0,0.0,0.0,0.0,0.0,0.0,0.0,0.0,0.0,0.0,0.0,0.0,0.0,0.0,0.0,0.0,0.0,0.0,0.0,0.0,0.0,0.0,0.0,0.0,0.0,0.0,0.0,0.0,0.0,0.0,0.0,0.0,0.0,0.0,0.0,0.0,0.0,0.0,0.0,0.0,0.0,0.0,0.0,0.0,0.0,0.0,0.0,0.0,0.0,0.0,0.0,0.0,0.0,0.0,0.0,0.0,0.0,0.0,0.0,0.0,0.0,0.0,0.0,0.0,0.0,0.0,0.0,0.0,0.0,0.0,0.0,0.0,0.0,0.0,0.0,0.0,0.0,0.0,0.0,0.0,0.0,0.0,0.0,0.0,0.0,0.0,0.0,0.0,0.0,0.0,0.0,0.0,0.0,0.0,0.0,0.0,0.0,0.0,0.0,0.0,0.0,0.0,0.0,0.0,0.0,0.0,0.0,0.0,0.0,0.0,0.0,0.0,0.0,0.0,0.0,0.0,0.0,0.0,0.0,0.0,0.0,0.0,0.0,0.0,0.0,0.0,0.0,0.0,0.0,0.0,0.0,0.0,0.0,0.0,0.0,0.0,0.0,0.0,0.0,0.0,0.0,0.0,0.0,0.0,0.0,0.0,0.0,0.0,0.0,0.0,0.0,0.0,0.0,0.0,0.0,0.0,0.0,0.0,0.0,0.0,0.0,0.0,0.0,0.0,0.0,0.0,0.0,0.0,0.0,0.0,0.0,0.0,0.0,0.0,0.0,0.0,0.0,0.0,0.0,0.0,0.0,0.0,0.0,0.0,0.0,0.0,0.0,0.0,0.0,0.0,0.0,0.0,0.0,0.0,0.0,0.0,0.0,0.0,0.0,0.0,0.0,0.0,0.0,0.0,0.0,0.0,0.0,0.0,0.0,0.0,0.0,0.0,0.0,0.0,-2.6028,0.0,0.0,0.0,0.0,0.0,0.0,0.0,0.0,0.0,0.0,0.0,0.0,0.0,0.0,0.0,0.0,0.0,0.0,0.0,0.0,0.0,0.0,0.0,0.0,0.0,0.0,0.0,0.0,0.0,0.0,0.0,0.0,0.0,0.0,0.0,0.0,0.0,0.0,0.0,0.0,0.0,0.0,0.0,0.0,0.0,0.0,0.0,0.0,0.0,0.0,0.0,0.0,0.0,0.0,0.0,0.0,0.0,0.0,0.0,0.0,0.0,0.0,0.0,0.0,0.0,0.0,0.0,0.0,0.0,0.0,0.0,0.0,0.0,0.0,0.0,0.0,0.0,0.0,0.0,0.0,0.0,0.0,0.0,0.0,0.0,0.0,0.0,0.0,0.0,0.0,0.0,0.0,0.0,0.0,0.0,0.0,0.0,0.0,0.0,0.0,0.0,0.0,0.0,0.0,0.0,0.0,0.0,0.0,0.0,0.0,-3.0121,-3.0529,-2.9427,-2.8328,-2.724,0.0,0.0,0.0,0.0,0.0,0.0,0.0,0.0,0.0,0.0,0.0,0.0,0.0,0.0,0.0,0.0,0.0,0.0,0.0,0.0,0.0,0.0,0.0,0.0,0.0,0.0,0.0,0.0,0.0,0.0,0.0,0.0,0.0,0.0,0.0,0.0,0.0,0.0,0.0,0.0,0.0,0.0,0.0,0.0,0.0,0.0,0.0,0.0,0.0,0.0,0.0,0.0,0.0,0.0,0.0,0.0,0.0,0.0,0.0,0.0,0.0,0.0,0.0,0.0,0.0,0.0,0.0,0.0,0.0,0.0,0.0,0.0,0.0,0.0,0.0,0.0,0.0,0.0,0.0,0.0,0.0,0.0,0.0,0.0,0.0,0.0,0.0,0.0,0.0,0.0,0.0,0.0,0.0,0.0,0.0,0.0,0.0,0.0,0.0,0.0,0.0,0.0,0.0,0.0,0.0,0.0,0.0,0.0,0.0,0.0,0.0,0.0,-3.1056,-2.9751,-2.8326,0.0,0.0,0.0,0.0,0.0,0.0,0.0,0.0,0.0,0.0,0.0,0.0,0.0,0.0,0.0,0.0,0.0,0.0,0.0,0.0,0.0,0.0,0.0,0.0,0.0,0.0,0.0,0.0,0.0,0.0,0.0,0.0,0.0,0.0,0.0,0.0,0.0,0.0,0.0,0.0,0.0,0.0,0.0,0.0,0.0,0.0,0.0,0.0,0.0,0.0,0.0,0.0,0.0,0.0,0.0,0.0,0.0,0.0,0.0,0.0,0.0,0.0,0.0,0.0,0.0,0.0,0.0,0.0,0.0,0.0,0.0,0.0,0.0,0.0,0.0,0.0,0.0,0.0,0.0,0.0,0.0,0.0,0.0,0.0,0.0,0.0,0.0,0.0,0.0,0.0,0.0,0.0,0.0,0.0,0.0,0.0,0.0,0.0,0.0,0.0,0.0,0.0,0.0,0.0,0.0,0.0,0.0,0.0,0.0,0.0,-3.2331,-3.4587,-3.4495,0.0,-2.9455,0.0,0.0,0.0,0.0,0.0,0.0,0.0,0.0,0.0,0.0,0.0,0.0,0.0,0.0,0.0,0.0,0.0,0.0,0.0,0.0,0.0,0.0,0.0,0.0,0.0,0.0,0.0,0.0,0.0,0.0,0.0,0.0,0.0,0.0,0.0,0.0,0.0,0.0,0.0,0.0,0.0,0.0,0.0,0.0,0.0,0.0,0.0,0.0,0.0,0.0,0.0,0.0,0.0,0.0,0.0,0.0,0.0,0.0,0.0,0.0,0.0,0.0,0.0,0.0,0.0,0.0,0.0,0.0,0.0,0.0,0.0,0.0,0.0,0.0,0.0,0.0,0.0,0.0,0.0,0.0,0.0,0.0,0.0,0.0,0.0,0.0,0.0,0.0,0.0,0.0,0.0,0.0,0.0,0.0,0.0,0.0,0.0,0.0,0.0,0.0,0.0,0.0,0.0,0.0,0.0,0.0,0.0,0.0,0.0,0.0,-3.377,-3.5734,-3.4615,-3.2524,0.0,0.0,0.0,0.0,0.0,0.0,0.0,0.0,0.0,0.0,0.0,0.0,0.0,0.0,0.0,0.0,0.0,0.0,0.0,0.0,0.0,0.0,0.0,0.0,0.0,0.0,0.0,0.0,0.0,0.0,0.0,0.0,0.0,0.0,0.0,0.0,0.0,0.0,0.0,0.0,0.0,0.0,0.0,0.0,0.0,0.0,0.0,0.0,0.0,0.0,0.0,0.0,0.0,0.0,0.0,0.0,0.0,0.0,0.0,0.0,0.0,0.0,0.0,0.0,0.0,0.0,0.0,0.0,0.0,0.0,0.0,0.0,0.0,0.0,0.0,0.0,0.0,0.0,0.0,0.0,0.0,0.0,0.0,0.0,0.0,0.0,0.0,0.0,0.0,0.0,0.0,0.0,0.0,0.0,0.0,0.0,0.0,0.0,0.0,0.0,0.0,0.0,0.0,0.0,0.0,0.0,0.0,0.0,0.0,0.0,-3.344,0.0,-3.6747,-3.5396,-3.2997,-2.9737,0.0,0.0,0.0,0.0,0.0,0.0,0.0,0.0,0.0,0.0,0.0,0.0,0.0,0.0,0.0,0.0,0.0,0.0,0.0,0.0,0.0,0.0,0.0,0.0,0.0,0.0,0.0,0.0,0.0,0.0,0.0,0.0,0.0,0.0,0.0,0.0,0.0,0.0,0.0,0.0,0.0,0.0,0.0,0.0,0.0,0.0,0.0,0.0,0.0,0.0,0.0,0.0,0.0,0.0,0.0,0.0,0.0,0.0,0.0,0.0,0.0,0.0,0.0,0.0,0.0,0.0,0.0,0.0,0.0,0.0,0.0,0.0,0.0,0.0,0.0,0.0,0.0,0.0,0.0,0.0,0.0,0.0,0.0,0.0,0.0,0.0,0.0,0.0,0.0,0.0,0.0,0.0,0.0,0.0,0.0,0.0,0.0,0.0,0.0,0.0,0.0,0.0,0.0,0.0,0.0,0.0,0.0,0.0,0.0,-3.4578,-3.5349,-3.849,-3.7934,-3.5347,0.0,0.0,0.0,0.0,0.0,0.0,0.0,0.0,0.0,0.0,0.0,0.0,0.0,0.0,0.0,0.0,0.0,0.0,0.0,0.0,0.0,0.0,0.0,0.0,0.0,0.0,0.0,0.0,0.0,0.0,0.0,0.0,0.0,0.0,0.0,0.0,0.0,0.0,0.0,0.0,0.0,0.0,0.0,0.0,0.0,0.0,0.0,0.0,0.0,0.0,0.0,0.0,0.0,0.0,0.0,0.0,0.0,0.0,0.0,0.0,0.0,0.0,0.0,0.0,0.0,0.0,0.0,0.0,0.0,0.0,0.0,0.0,0.0,0.0,0.0,0.0,0.0,0.0,0.0,0.0,0.0,0.0,0.0,0.0,0.0,0.0,0.0,0.0,0.0,0.0,0.0,0.0,0.0,0.0,0.0,0.0,0.0,0.0,0.0,0.0,0.0,0.0,0.0,0.0,0.0,0.0,0.0,0.0,0.0,-3.3073,-3.5124,-3.7731,-4.0744,-3.7804,-3.4746,0.0,0.0,0.0,0.0,0.0,0.0,0.0,0.0,0.0,0.0,0.0,0.0,0.0,0.0,0.0,0.0,0.0,0.0,0.0,0.0,0.0,0.0,0.0,0.0,0.0,0.0,0.0,0.0,0.0,0.0,0.0,0.0,0.0,0.0,0.0,0.0,0.0,0.0,0.0,0.0,0.0,0.0,0.0,0.0,0.0,0.0,0.0,0.0,0.0,0.0,0.0,0.0,0.0,0.0,0.0,0.0,0.0,0.0,0.0,0.0,0.0,0.0,0.0,0.0,0.0,0.0,0.0,0.0,0.0,0.0,0.0,0.0,0.0,0.0,0.0,0.0,0.0,0.0,0.0,0.0,0.0,0.0,0.0,0.0,0.0,0.0,0.0,0.0,0.0,0.0,0.0,0.0,0.0,0.0,0.0,0.0,0.0,0.0,0.0,0.0,0.0,0.0,0.0,0.0,0.0,0.0,0.0,0.0,0.0,-3.2994,0.0,-3.9577,0.0,-3.7698,-3.4429,0.0,0.0,0.0,0.0,0.0,0.0,0.0,0.0,0.0,0.0,0.0,0.0,0.0,0.0,0.0,0.0,0.0,0.0,0.0,0.0,0.0,0.0,0.0,0.0,0.0,0.0,0.0,0.0,0.0,0.0,0.0,0.0,0.0,0.0,0.0,0.0,0.0,0.0,0.0,0.0,0.0,0.0,0.0,0.0,0.0,0.0,0.0,0.0,0.0,0.0,0.0,0.0,0.0,0.0,0.0,0.0,0.0,0.0,0.0,0.0,0.0,0.0,0.0,0.0,0.0,0.0,0.0,0.0,0.0,0.0,0.0,0.0,0.0,0.0,0.0,0.0,0.0,0.0,0.0,0.0,0.0,0.0,0.0,0.0,0.0,0.0,0.0,0.0,0.0,0.0,0.0,0.0,0.0,0.0,0.0,0.0,0.0,0.0,0.0,0.0,0.0,0.0,0.0,0.0,0.0,0.0,0.0,0.0,-3.1056,-3.6101,-3.9657,-4.0607,-3.8851,-3.7918,-3.4539,0.0,0.0,0.0,0.0,0.0,0.0,0.0,0.0,0.0,0.0,0.0,0.0,0.0,0.0,0.0,0.0,0.0,0.0,0.0,0.0,0.0,0.0,0.0,0.0,0.0,0.0,0.0,0.0,0.0,0.0,0.0,0.0,0.0,0.0,0.0,0.0,0.0,0.0,0.0,0.0,0.0,0.0,0.0,0.0,0.0,0.0,0.0,0.0,0.0,0.0,0.0,0.0,0.0,0.0,0.0,0.0,0.0,0.0,0.0,0.0,0.0,0.0,0.0,0.0,0.0,0.0,0.0,0.0,0.0,0.0,0.0,0.0,0.0,0.0,0.0,0.0,0.0,0.0,0.0,0.0,0.0,0.0,0.0,0.0,0.0,0.0,0.0,0.0,0.0,0.0,0.0,0.0,0.0,0.0,0.0,0.0,0.0,0.0,0.0,0.0,0.0,0.0,0.0,0.0,0.0,0.0,0.0,0.0,0.0,-3.6285,-3.8991,-4.0667,-4.1056,-3.8248,-3.5253,0.0,0.0,0.0,0.0,0.0,0.0,0.0,0.0,0.0,0.0,0.0,0.0,0.0,0.0,0.0,0.0,0.0,0.0,0.0,0.0,0.0,0.0,0.0,0.0,0.0,0.0,0.0,0.0,0.0,0.0,0.0,0.0,0.0,0.0,0.0,0.0,0.0,0.0,0.0,0.0,0.0,0.0,0.0,0.0,0.0,0.0,0.0,0.0,0.0,0.0,0.0,0.0,0.0,0.0,0.0,0.0,0.0,0.0,0.0,0.0,0.0,0.0,0.0,0.0,0.0,0.0,0.0,0.0,0.0,0.0,0.0,0.0,0.0,0.0,0.0,0.0,0.0,0.0,0.0,0.0,0.0,0.0,0.0,0.0,0.0,0.0,0.0,0.0,0.0,0.0,0.0,0.0,0.0,0.0,0.0,0.0,0.0,0.0,0.0,0.0,0.0,0.0,0.0,0.0,0.0,0.0,0.0,0.0,0.0,-3.7679,-4.0127,-4.1549,-4.1846,-3.8524,-3.5581,-3.3144,0.0,0.0,0.0,0.0,0.0,0.0,0.0,0.0,0.0,0.0,0.0,0.0,0.0,0.0,0.0,0.0,0.0,0.0,0.0,0.0,0.0,0.0,0.0,0.0,0.0,0.0,0.0,0.0,0.0,0.0,0.0,0.0,0.0,0.0,0.0,0.0,0.0,0.0,0.0,0.0,0.0,0.0,0.0,0.0,0.0,0.0,0.0,0.0,0.0,0.0,0.0,0.0,0.0,0.0,0.0,0.0,0.0,0.0,0.0,0.0,0.0,0.0,0.0,0.0,0.0,0.0,0.0,0.0,0.0,0.0,0.0,0.0,0.0,0.0,0.0,0.0,0.0,0.0,0.0,0.0,0.0,0.0,0.0,0.0,0.0,0.0,0.0,0.0,0.0,0.0,0.0,0.0,0.0,0.0,0.0,0.0,0.0,0.0,0.0,0.0,0.0,0.0,0.0,0.0,0.0,0.0,0.0,0.0,-3.9845,-4.256,-4.3079,-4.1295,-3.8927,-3.5818,0.0,0.0,0.0,0.0,0.0,0.0,0.0,0.0,0.0,0.0,0.0,0.0,0.0,0.0,0.0,0.0,0.0,0.0,0.0,0.0,0.0,0.0,0.0,0.0,0.0,0.0,0.0,0.0,0.0,0.0,0.0,0.0,0.0,0.0,0.0,0.0,0.0,0.0,0.0,0.0,0.0,0.0,0.0,0.0,0.0,0.0,0.0,0.0,0.0,0.0,0.0,0.0,0.0,0.0,0.0,0.0,0.0,0.0,0.0,0.0,0.0,0.0,0.0,0.0,0.0,0.0,0.0,0.0,0.0,0.0,0.0,0.0,0.0,0.0,0.0,0.0,0.0,0.0,0.0,0.0,0.0,0.0,0.0,0.0,0.0,0.0,0.0,0.0,0.0,0.0,0.0,0.0,0.0,0.0,0.0,0.0,0.0,0.0,0.0,0.0,0.0,0.0,0.0,0.0,0.0,0.0,0.0,0.0,0.0,-3.9866,-4.2329,-4.3378,-4.2854,-4.054,-3.7917,0.0,0.0,0.0,0.0,0.0,0.0,0.0,0.0,0.0,0.0,0.0,0.0,0.0,0.0,0.0,0.0,0.0,0.0,0.0,0.0,0.0,0.0,0.0,0.0,0.0,0.0,0.0,0.0,0.0,0.0,0.0,0.0,0.0,0.0,0.0,0.0,0.0,0.0,0.0,0.0,0.0,0.0,0.0,0.0,0.0,0.0,0.0,0.0,0.0,0.0,0.0,0.0,0.0,0.0,0.0,0.0,0.0,0.0,0.0,0.0,0.0,0.0,0.0,0.0,0.0,0.0,0.0,0.0,0.0,0.0,0.0,0.0,0.0,0.0,0.0,0.0,0.0,0.0,0.0,0.0,0.0,0.0,0.0,0.0,0.0,0.0,0.0,0.0,0.0,0.0,0.0,0.0,0.0,0.0,0.0,0.0,0.0,0.0,0.0,0.0,0.0,0.0,0.0,0.0,0.0,0.0,0.0,0.0,-3.8384,-4.0857,-4.2615,-4.3479,-4.3479,-4.1497,-3.9082,0.0,0.0,0.0,0.0,0.0,0.0,0.0,0.0,0.0,0.0,0.0,0.0,0.0,0.0,0.0,0.0,0.0,0.0,0.0,0.0,0.0,0.0,0.0,0.0,0.0,0.0,0.0,0.0,0.0,0.0,0.0,0.0,0.0,0.0,0.0,0.0,0.0,0.0,0.0,0.0,0.0,0.0,0.0,0.0,0.0,0.0,0.0,0.0,0.0,0.0,0.0,0.0,0.0,0.0,0.0,0.0,0.0,0.0,0.0,0.0,0.0,0.0,0.0,0.0,0.0,0.0,0.0,0.0,0.0,0.0,0.0,0.0,0.0,0.0,0.0,0.0,0.0,0.0,0.0,0.0,0.0,0.0,0.0,0.0,0.0,0.0,0.0,0.0,0.0,0.0,0.0,0.0,0.0,0.0,0.0,0.0,0.0,0.0,0.0,0.0,0.0,0.0,0.0,0.0,0.0,0.0,0.0,0.0,-3.9697,-4.2122,-4.3039,-4.3479,-4.3442,-4.2029,-3.9701,0.0,0.0,0.0,0.0,0.0,0.0,0.0,0.0,0.0,0.0,0.0,0.0,0.0,0.0,0.0,0.0,0.0,0.0,0.0,0.0,0.0,0.0,0.0,0.0,0.0,0.0,0.0,0.0,0.0,0.0,0.0,0.0,0.0,0.0,0.0,0.0,0.0,0.0,0.0,0.0,0.0,0.0,0.0,0.0,0.0,0.0,0.0,0.0,0.0,0.0,0.0,0.0,0.0,0.0,0.0,0.0,0.0,0.0,0.0,0.0,0.0,0.0,0.0,0.0,0.0,0.0,0.0,0.0,0.0,0.0,0.0,0.0,0.0,0.0,0.0,0.0,0.0,0.0,0.0,0.0,0.0,0.0,0.0,0.0,0.0,0.0,0.0,0.0,0.0,0.0,0.0,0.0,0.0,0.0,0.0,0.0,0.0,0.0,0.0,0.0,0.0,0.0,0.0,0.0,0.0,0.0,0.0,0.0,-3.9409,-4.1317,-4.2763,-4.3479,-4.3479,-4.2543,-4.0467,0.0,0.0,0.0,0.0,0.0,0.0,0.0,0.0,0.0,0.0,0.0,0.0,0.0,0.0,0.0,0.0,0.0,0.0,0.0,0.0,0.0,0.0,0.0,0.0,0.0,0.0,0.0,0.0,0.0,0.0,0.0,0.0,0.0,0.0,0.0,0.0,0.0,0.0,0.0,0.0,0.0,0.0,0.0,0.0,0.0,0.0,0.0,0.0,-3.7976,0.0,0.0,0.0,0.0,0.0,0.0,0.0,0.0,0.0,0.0,0.0,0.0,0.0,0.0,0.0,0.0,0.0,0.0,0.0,0.0,0.0,0.0,0.0,0.0,0.0,0.0,0.0,0.0,0.0,0.0,0.0,0.0,0.0,0.0,0.0,0.0,0.0,0.0,0.0,0.0,0.0,0.0,0.0,0.0,0.0,0.0,0.0,0.0,0.0,0.0,0.0,0.0,0.0,0.0,0.0,0.0,0.0,0.0,0.0,-4.0673,-4.2197,-4.3057,-4.3479,-4.3478,-4.3075,-4.1121,0.0,0.0,0.0,0.0,0.0,0.0,0.0,0.0,0.0,0.0,0.0,0.0,0.0,0.0,0.0,0.0,0.0,0.0,0.0,0.0,0.0,0.0,0.0,0.0,0.0,0.0,0.0,0.0,0.0,0.0,0.0,0.0,0.0,0.0,0.0,0.0,0.0,0.0,0.0,0.0,0.0,0.0,0.0,0.0,0.0,0.0,0.0,0.0,0.0,0.0,0.0,0.0,0.0,0.0,0.0,0.0,0.0,0.0,0.0,0.0,0.0,0.0,0.0,0.0,0.0,0.0,0.0,0.0,0.0,0.0,0.0,0.0,0.0,0.0,0.0,0.0,0.0,0.0,0.0,0.0,0.0,0.0,0.0,0.0,0.0,0.0,0.0,0.0,0.0,0.0,0.0,0.0,0.0,0.0,0.0,0.0,0.0,0.0,0.0,0.0,0.0,0.0,0.0,0.0,0.0,0.0,0.0,-3.914,-4.1796,-4.3407,-4.3479,-4.3479,-4.3479,-4.3299,-4.1305,-3.7308,0.0,0.0,0.0,0.0,0.0,0.0,0.0,0.0,0.0,0.0,0.0,0.0,0.0,0.0,0.0,0.0,0.0,0.0,0.0,0.0,0.0,0.0,0.0,0.0,0.0,0.0,0.0,0.0,0.0,0.0,0.0,0.0,0.0,0.0,0.0,0.0,0.0,0.0,-3.0316,-3.4769,0.0,0.0,0.0,0.0,0.0,0.0,0.0,0.0,-3.9842,0.0,0.0,0.0,0.0,0.0,0.0,0.0,0.0,0.0,0.0,0.0,0.0,0.0,0.0,0.0,0.0,0.0,0.0,0.0,0.0,0.0,0.0,0.0,0.0,0.0,0.0,0.0,0.0,0.0,0.0,0.0,0.0,0.0,0.0,0.0,0.0,0.0,0.0,0.0,0.0,0.0,0.0,0.0,0.0,0.0,0.0,0.0,0.0,0.0,0.0,0.0,0.0,0.0,0.0,0.0,0.0,-3.7856,-3.8295,-4.0126,-4.3387,-4.3479,-4.3479,-4.3461,-4.2413,-4.0131,-3.6613,0.0,0.0,0.0,0.0,0.0,0.0,0.0,0.0,0.0,0.0,0.0,0.0,0.0,0.0,0.0,0.0,0.0,0.0,0.0,0.0,0.0,0.0,0.0,0.0,0.0,0.0,0.0,0.0,0.0,0.0,0.0,0.0,0.0,0.0,0.0,0.0,0.0,0.0,0.0,-3.7201,-3.9328,0.0,0.0,0.0,0.0,0.0,0.0,0.0,0.0,-3.9509,0.0,0.0,0.0,0.0,0.0,0.0,0.0,0.0,0.0,0.0,0.0,0.0,0.0,0.0,0.0,0.0,0.0,0.0,0.0,0.0,0.0,0.0,0.0,0.0,0.0,0.0,0.0,0.0,0.0,0.0,0.0,0.0,0.0,0.0,0.0,0.0,0.0,0.0,0.0,0.0,0.0,0.0,0.0,0.0,0.0,0.0,0.0,0.0,0.0,0.0,0.0,0.0,0.0,0.0,0.0,-3.6666,-3.8991,-4.1259,-4.3406,-4.3479,-4.3313,-4.2855,-4.1231,-3.8851,0.0,0.0,0.0,0.0,0.0,0.0,0.0,0.0,0.0,0.0,0.0,0.0,0.0,0.0,0.0,0.0,0.0,0.0,0.0,0.0,0.0,0.0,0.0,0.0,0.0,0.0,0.0,0.0,0.0,0.0,0.0,0.0,0.0,0.0,0.0,0.0,0.0,0.0,0.0,0.0,-3.842,-4.0473,-4.2658,0.0,0.0,0.0,0.0,0.0,0.0,-4.0241,-3.9691,0.0,0.0,0.0,0.0,0.0,0.0,0.0,0.0,0.0,0.0,0.0,0.0,0.0,0.0,0.0,0.0,0.0,0.0,0.0,0.0,0.0,0.0,0.0,0.0,0.0,0.0,0.0,0.0,0.0,0.0,0.0,0.0,0.0,0.0,0.0,0.0,0.0,0.0,0.0,0.0,0.0,0.0,0.0,0.0,0.0,0.0,0.0,0.0,0.0,0.0,0.0,0.0,0.0,0.0,0.0,-3.5184,-3.9192,-4.1956,-4.3167,-4.3094,-4.2656,-4.1876,-3.9945,-3.7558,0.0,0.0,0.0,0.0,0.0,0.0,0.0,0.0,0.0,0.0,0.0,0.0,0.0,0.0,0.0,0.0,0.0,0.0,0.0,0.0,0.0,0.0,0.0,0.0,0.0,0.0,0.0,0.0,0.0,0.0,0.0,0.0,0.0,0.0,0.0,0.0,0.0,0.0,0.0,0.0,0.0,-4.1739,-4.4163,-4.3611,0.0,0.0,0.0,0.0,-4.0697,-4.045,0.0,0.0,0.0,0.0,0.0,0.0,0.0,0.0,0.0,0.0,0.0,0.0,0.0,0.0,0.0,0.0,0.0,0.0,0.0,0.0,0.0,0.0,0.0,0.0,0.0,0.0,0.0,0.0,0.0,0.0,0.0,0.0,0.0,0.0,0.0,0.0,0.0,0.0,0.0,0.0,0.0,0.0,0.0,0.0,0.0,0.0,0.0,0.0,0.0,0.0,0.0,0.0,0.0,0.0,0.0,0.0,-3.5005,-3.7044,-3.9478,-4.2231,-4.1719,-4.1093,-4.0528,-3.8581,-3.6253,0.0,0.0,0.0,0.0,0.0,0.0,0.0,0.0,0.0,0.0,0.0,0.0,0.0,0.0,0.0,0.0,0.0,0.0,0.0,0.0,0.0,0.0,0.0,0.0,0.0,0.0,0.0,0.0,0.0,0.0,0.0,0.0,0.0,0.0,0.0,0.0,0.0,0.0,0.0,0.0,0.0,-4.2983,-4.3792,-4.3833,-4.3544,0.0,0.0,-4.2212,-4.107,-4.1411,0.0,0.0,0.0,0.0,0.0,0.0,0.0,0.0,0.0,0.0,0.0,0.0,0.0,0.0,0.0,0.0,0.0,0.0,0.0,0.0,0.0,0.0,0.0,0.0,0.0,0.0,0.0,0.0,0.0,0.0,0.0,0.0,0.0,0.0,0.0,0.0,0.0,0.0,0.0,0.0,0.0,0.0,0.0,0.0,0.0,0.0,0.0,0.0,0.0,0.0,0.0,0.0,0.0,0.0,0.0,-3.1836,-3.4418,-3.7337,-3.9605,-4.1085,-4.0813,-3.9985,-3.8634,-3.664,-3.4229,0.0,0.0,0.0,0.0,0.0,0.0,0.0,0.0,0.0,0.0,0.0,0.0,0.0,0.0,0.0,0.0,0.0,0.0,0.0,0.0,0.0,0.0,0.0,0.0,0.0,0.0,0.0,0.0,0.0,0.0,0.0,0.0,0.0,0.0,0.0,0.0,0.0,0.0,0.0,0.0,0.0,0.0,-4.3754,-4.3722,0.0,0.0,0.0,-4.1261,-4.1106,0.0,0.0,0.0,0.0,0.0,0.0,0.0,0.0,0.0,0.0,0.0,0.0,0.0,0.0,0.0,0.0,0.0,0.0,0.0,0.0,0.0,0.0,0.0,0.0,0.0,0.0,0.0,0.0,0.0,0.0,0.0,0.0,0.0,0.0,0.0,0.0,0.0,0.0,0.0,0.0,0.0,0.0,0.0,0.0,0.0,0.0,0.0,0.0,0.0,0.0,0.0,0.0,0.0,0.0,0.0,0.0,0.0,-3.3434,-3.7058,-3.922,-3.9787,-3.9427,-3.8472,-3.6832,-3.4785,0.0,0.0,0.0,0.0,0.0,0.0,0.0,0.0,0.0,0.0,0.0,0.0,0.0,0.0,0.0,0.0,0.0,0.0,0.0,0.0,0.0,0.0,0.0,0.0,0.0,0.0,0.0,-2.303,0.0,0.0,0.0,0.0,0.0,0.0,0.0,0.0,0.0,0.0,0.0,0.0,0.0,0.0,-4.2126,-4.3675,-4.3545,-4.3432,0.0,0.0,-4.0493,-4.0865,-4.0612,-3.9994,0.0,0.0,0.0,0.0,0.0,0.0,0.0,0.0,0.0,0.0,0.0,0.0,0.0,0.0,0.0,0.0,0.0,0.0,0.0,0.0,0.0,0.0,0.0,0.0,0.0,0.0,0.0,0.0,0.0,0.0,0.0,0.0,0.0,0.0,0.0,0.0,0.0,0.0,0.0,0.0,0.0,0.0,0.0,0.0,0.0,0.0,0.0,0.0,0.0,0.0,0.0,0.0,0.0,0.0,0.0,-3.2127,-3.4871,-3.7002,-3.8402,-3.7054,-3.6015,-3.5427,-3.3253,-3.1128,0.0,0.0,0.0,0.0,0.0,0.0,0.0,0.0,0.0,0.0,0.0,0.0,0.0,0.0,0.0,0.0,0.0,0.0,0.0,0.0,0.0,0.0,0.0,0.0,0.0,0.0,0.0,0.0,0.0,0.0,0.0,0.0,0.0,0.0,0.0,0.0,0.0,0.0,0.0,0.0,0.0,-4.3169,-4.3249,-4.3291,-4.3103,0.0,0.0,-4.0899,-4.0257,-4.0713,-4.0426,-3.8328,0.0,0.0,0.0,0.0,0.0,0.0,0.0,0.0,0.0,0.0,0.0,0.0,0.0,0.0,0.0,0.0,0.0,0.0,0.0,0.0,0.0,0.0,0.0,0.0,0.0,0.0,0.0,0.0,0.0,0.0,0.0,0.0,0.0,0.0,0.0,0.0,0.0,0.0,0.0,0.0,0.0,0.0,0.0,0.0,0.0,0.0,0.0,0.0,0.0,0.0,0.0,0.0,0.0,-2.9269,-3.0576,-3.3706,-3.5489,-3.5768,-3.5206,-3.4417,-3.3471,-3.2151,-3.0452,0.0,0.0,0.0,0.0,0.0,0.0,0.0,0.0,0.0,0.0,0.0,0.0,0.0,0.0,0.0,0.0,0.0,0.0,0.0,0.0,0.0,0.0,0.0,0.0,0.0,0.0,0.0,0.0,-2.7446,-2.7929,-2.8283,0.0,0.0,0.0,0.0,0.0,0.0,0.0,0.0,0.0,0.0,-4.1476,-4.1912,-4.1988,0.0,0.0,-4.1288,-4.0578,-4.0747,-4.0637,-4.007,-3.8768,-3.8582,0.0,0.0,0.0,0.0,0.0,0.0,0.0,0.0,0.0,0.0,0.0,0.0,0.0,0.0,0.0,0.0,0.0,0.0,0.0,0.0,0.0,0.0,0.0,0.0,0.0,0.0,0.0,0.0,0.0,0.0,0.0,0.0,0.0,0.0,0.0,0.0,0.0,0.0,0.0,0.0,0.0,0.0,0.0,0.0,0.0,0.0,0.0,0.0,0.0,0.0,0.0,0.0,-2.8504,-2.9489,-3.2545,-3.4059,-3.3985,-3.3744,-3.3205,-3.2313,-3.1159,-2.9685,0.0,0.0,0.0,0.0,0.0,0.0,0.0,0.0,0.0,0.0,0.0,0.0,0.0,0.0,0.0,0.0,0.0,0.0,0.0,0.0,0.0,0.0,0.0,0.0,0.0,0.0,0.0,0.0,-2.8356,-2.8837,-2.9164,0.0,0.0,0.0,0.0,0.0,0.0,0.0,0.0,0.0,0.0,-4.0603,-4.1136,-4.1204,-4.1373,-4.188,-4.0925,-4.0282,-4.0781,-4.0443,-3.9859,-3.9106,0.0,0.0,0.0,0.0,0.0,0.0,0.0,0.0,0.0,0.0,0.0,0.0,0.0,0.0,0.0,0.0,0.0,0.0,0.0,0.0,0.0,0.0,0.0,0.0,0.0,0.0,0.0,0.0,0.0,0.0,0.0,0.0,0.0,0.0,0.0,0.0,0.0,0.0,0.0,0.0,0.0,0.0,0.0,0.0,0.0,0.0,0.0,0.0,0.0,0.0,0.0,0.0,0.0,-2.7504,-2.8994,-3.1237,-3.2707,-3.3326,-3.2703,-3.2297,-3.2209,-3.0194,-2.8653,-2.7773,0.0,0.0,0.0,0.0,0.0,0.0,0.0,0.0,0.0,0.0,0.0,0.0,0.0,0.0,0.0,0.0,0.0,0.0,0.0,0.0,0.0,0.0,0.0,0.0,0.0,0.0,-2.7789,-2.7992,-2.8435,0.0,0.0,0.0,0.0,0.0,0.0,0.0,0.0,0.0,0.0,-4.024,-4.117,-4.1187,-4.1204,-4.1187,-4.1221,-4.0603,-4.0113,-4.0146,-4.013,-3.9859,0.0,0.0,0.0,0.0,0.0,0.0,0.0,0.0,0.0,0.0,0.0,0.0,0.0,0.0,0.0,0.0,0.0,0.0,0.0,0.0,0.0,0.0,0.0,0.0,0.0,0.0,0.0,-3.0656,-2.9384,0.0,0.0,0.0,0.0,0.0,0.0,0.0,0.0,0.0,0.0,0.0,-3.1463,-3.2766,0.0,0.0,0.0,0.0,0.0,0.0,0.0,0.0,0.0,0.0,0.0,0.0,-2.7199,-2.8264,-3.0429,-3.1681,-3.1918,-3.1224,-3.0835,-3.0818,-2.9144,-2.7604,-2.637,0.0,0.0,0.0,0.0,0.0,0.0,0.0,0.0,0.0,0.0,0.0,0.0,0.0,0.0,0.0,0.0,0.0,0.0,0.0,0.0,0.0,0.0,0.0,0.0,0.0,-2.7789,0.0,0.0,0.0,0.0,0.0,0.0,0.0,0.0,0.0,0.0,0.0,-3.7889,-3.8853,-3.9859,-4.0485,-4.0485,-4.046,-4.0468,0.0,0.0,0.0,0.0,0.0,0.0,0.0,0.0,0.0,0.0,0.0,0.0,0.0,0.0,-3.5878,-3.4648,-3.3392,-3.2496,-3.2407,0.0,0.0,0.0,0.0,0.0,0.0,0.0,0.0,0.0,0.0,0.0,0.0,0.0,0.0,0.0,0.0,-2.9904,0.0,0.0,0.0,0.0,0.0,0.0,0.0,0.0,-3.2766,-3.3587,-3.3078,-3.438,-3.4307,0.0,-3.2349,-3.0797,0.0,0.0,0.0,0.0,0.0,0.0,0.0,0.0,-2.7452,-2.8229,-2.9922,-3.0818,-3.0801,-3.0091,-2.9719,-2.9702,-2.8466,-2.7114,-2.5643,-2.5609,-2.5033,0.0,0.0,0.0,0.0,0.0,0.0,0.0,0.0,0.0,0.0,0.0,0.0,0.0,0.0,0.0,0.0,0.0,0.0,0.0,0.0,0.0,0.0,0.0,-2.8332,0.0,0.0,0.0,0.0,0.0,0.0,0.0,0.0,0.0,-3.6394,-3.7499,-3.8548,-3.9276,-3.9791,-4.0113,-4.0113,0.0,0.0,0.0,0.0,0.0,0.0,0.0,-4.0113,-4.0113,-4.0113,-4.0003,-3.9638,-3.9203,-3.8509,-3.7233,0.0,0.0,-3.5067,-3.4089,-3.3508,-3.3479,-3.388,-3.4068,-3.3634,-3.4233,-3.4711,0.0,0.0,0.0,0.0,0.0,0.0,0.0,0.0,-3.339,-3.3078,0.0,-3.1017,0.0,0.0,0.0,0.0,0.0,0.0,0.0,0.0,-3.5037,-3.5385,-3.3954,-3.4674,-3.4637,-3.389,-3.4159,-3.3306,-3.1274,-2.7942,0.0,0.0,0.0,0.0,0.0,0.0,-2.818,-2.8908,-2.9668,-3.0074,-3.0038,-2.933,-2.8959,-2.8891,-2.818,-2.708,-2.5744,-2.5676,-2.5304,-2.4575,-2.3866,0.0,0.0,0.0,0.0,0.0,0.0,0.0,0.0,0.0,0.0,0.0,0.0,0.0,0.0,0.0,0.0,0.0,0.0,0.0,0.0,-2.8976,0.0,0.0,0.0,0.0,0.0,0.0,0.0,0.0,0.0,0.0,-3.7973,-3.8582,-3.9317,-3.9994,0.0,0.0,0.0,0.0,-4.0113,-4.0113,-4.0113,-4.0113,-4.0113,-4.0113,-4.0113,-4.0113,0.0,0.0,-3.878,-3.8772,-3.8663,-3.7937,-3.7764,-3.7324,-3.5864,-3.5533,-3.5452,-3.5467,-3.5434,-3.5474,-3.5474,-3.5419,-3.5527,-3.7439,0.0,0.0,0.0,0.0,-3.5626,-3.6213,-3.7223,-3.6726,-3.5491,-3.3758,-3.3091,0.0,0.0,0.0,0.0,0.0,0.0,-3.2381,-3.2711,-3.4509,-3.5114,-3.4692,-3.5532,-3.5463,-3.4646,-3.4137,-3.3305,-3.2113,-3.0006,-2.8082,-2.6404,0.0,0.0,0.0,0.0,-2.7402,-2.8146,-2.8924,-2.9314,-2.9331,-2.8552,-2.7892,-2.7368,-2.7131,-2.681,-2.6404,-2.6387,-2.6031,-2.5321,-2.5084,0.0,0.0,0.0,0.0,0.0,0.0,0.0,0.0,0.0,0.0,0.0,0.0,0.0,0.0,0.0,0.0,0.0,0.0,0.0,-2.801,-2.8636,-2.9517,0.0,0.0,0.0,0.0,0.0,0.0,0.0,0.0,0.0,-3.9394,-3.9631,-3.9876,0.0,0.0,-4.0113,-4.0113,-4.0113,-4.0113,-4.0113,0.0,0.0,0.0,-4.0113,-4.0113,-4.0113,-4.0113,-3.9757,-3.8754,-3.8772,-3.8663,-3.795,-3.7822,-3.7648,-3.7235,-3.6661,-3.6306,-3.6244,-3.5863,-3.5522,-3.5522,-3.5879,-3.6118,-3.941,-3.8326,-3.7025,-3.6852,-3.7406,-3.7459,-3.7734,-3.8105,-3.7773,-3.6671,-3.505,-3.4171,-3.2724,-3.0858,-3.0246,0.0,0.0,0.0,-3.2779,-3.3128,-3.4087,-3.4527,-3.4546,-3.5055,-3.5037,-3.45,-3.3633,-3.2835,-3.2057,-3.0743,-2.9075,-2.7199,0.0,0.0,-2.6082,-2.6759,-2.735,-2.7807,-2.8281,-2.8535,-2.8518,-2.7774,-2.7148,-2.6725,-2.6708,-2.6708,-2.6708,-2.6708,-2.6505,-2.6048,-2.5745,-2.5134,0.0,0.0,0.0,0.0,0.0,0.0,0.0,0.0,0.0,0.0,0.0,-2.4175,-2.326,0.0,0.0,0.0,-2.659,-2.7993,-2.9448,-3.0277,0.0,0.0,0.0,0.0,0.0,0.0,0.0,-3.8802,-3.9242,-3.9597,-4.0045,-4.0113,-4.0113,-4.0113,-4.0113,-4.0113,-4.0113,0.0,-4.0113,-4.0113,-4.0113,-4.0113,-4.0113,-4.0113,-4.0113,-4.0113,-4.0113,-3.9935,-3.9363,-3.9292,-3.9209,-3.8799,-3.845,-3.827,-3.8286,-3.7496,-3.6745,-3.6658,-3.6352,-3.5999,-3.5615,-3.6148,-3.6421,-4.0827,-4.0571,-3.8832,-3.8215,-3.8452,-3.9056,-3.8539,-3.7289,-3.7211,-3.6855,-3.6145,-3.4587,-3.3862,-3.3697,-3.2265,0.0,0.0,-3.2693,-3.3096,-3.3807,-3.3807,-3.3807,-3.3807,-3.3733,-3.3715,-3.3683,-3.2775,-3.1969,-3.1278,-3.0435,-2.9261,-2.7858,-2.7789,-2.7418,-2.6776,-2.7367,-2.7705,-2.7722,-2.7705,-2.7722,-2.7705,-2.7046,-2.6708,-2.6708,-2.664,-2.6607,-2.6607,-2.6556,-2.6556,-2.659,-2.5964,-2.5487,-2.5222,0.0,0.0,0.0,0.0,0.0,0.0,0.0,0.0,0.0,0.0,0.0,0.0,0.0,0.0,0.0,-2.8941,0.0,-3.2259,-3.3051,0.0,0.0,0.0,-3.5301,-3.6897,-3.7618,-3.8278,-3.9005,0.0,0.0,0.0,0.0,-4.0113,-4.0113,-4.0113,-4.0113,-4.0113,-4.0113,-4.0113,-4.0113,-4.0113,-4.0113,-4.0096,-4.0028,-3.9943,-3.9943,-3.9977,-3.9834,-3.9851,-3.9792,-3.991,-3.98,-3.9377,-3.8879,-3.8879,-3.7903,-3.7084,-3.677,-3.6765,-3.6578,-3.5828,-3.6186,-3.6466,-4.0052,-4.0062,-3.9368,-3.9474,-4.0072,-3.9518,-3.9096,-3.8687,-3.7601,-3.6696,-3.5946,-3.5095,-3.4362,-3.377,-3.3403,-3.333,-3.3513,-3.3513,-3.3623,-3.3807,-3.3807,-3.3807,-3.377,-3.3183,-3.2876,-3.2782,-3.1428,-3.0659,-3.0451,-2.9661,-2.8755,-2.7858,-2.7789,-2.7418,-2.6725,-2.6877,-2.6962,-2.6962,-2.6979,-2.6945,-2.6962,-2.6793,-2.6708,-2.6691,-2.6167,-2.5862,-2.5862,-2.5304,-2.5303,-2.5828,-2.571,-2.5574,-2.5488,-2.4709,0.0,0.0,0.0,0.0,0.0,0.0,0.0,0.0,0.0,-2.7148,-2.4694,0.0,-2.8637,0.0,-3.0482,-3.2158,-3.3068,-3.3812,0.0,0.0,-3.6711,-3.7066,-3.908,-3.8971,-3.9005,-3.9757,-3.9994,-4.0113,-4.0113,-4.0113,-4.0113,-4.0113,-4.0096,-4.0113,-4.0113,-4.0113,-4.0113,-4.0079,-4.0062,-4.0113,-4.0028,-3.9622,-3.9259,-3.9242,-3.8802,-3.8539,-3.8907,-3.8672,-3.8539,-3.8856,-3.8529,-3.8193,-3.8159,-3.7862,-3.7472,-3.691,-3.6346,-3.5864,-3.5664,-3.6206,-3.6478,-3.9207,-3.9205,-3.8999,-3.9155,-3.9505,-3.8952,-3.8424,-3.7899,-3.711,-3.6232,-3.5344,-3.4859,-3.4399,-3.3974,-3.3837,-3.3807,-3.377,-3.3421,-3.3256,-3.3243,-3.2889,-3.2742,-3.2706,-3.2265,-3.2063,-3.2038,-3.0801,-3.0021,-2.9672,-2.887,-2.8078,-2.7334,-2.73,-2.7114,-2.6708,-2.6708,-2.6708,-2.6708,-2.6708,-2.6708,-2.6708,-2.6708,-2.6539,-2.6218,-2.5828,-2.544,-2.5118,-2.4711,-2.4694,-2.5067,-2.5101,-2.54,-2.6002,-2.506,-2.4404,0.0,0.0,0.0,0.0,0.0,0.0,0.0,0.0,0.0,0.0,0.0,-2.9924,0.0,-3.2378,0.0,-3.5267,-3.6062,-3.7144,-3.87,-3.8539,-3.8776,-3.9977,-3.974,-3.9673,-4.0045,-4.0113,-4.0113,-4.0113,-3.9808,-3.9622,-3.9622,-3.9334,-3.936,-3.9943,-3.9859,-3.9622,-3.9622,-3.9334,-3.9106,-3.9123,-3.8785,-3.8497,-3.8481,-3.8193,-3.8048,-3.8506,-3.8214,-3.7922,-3.7922,-3.7652,-3.7398,-3.7398,-3.7094,-3.6654,-3.5937,-3.5357,-3.5177,-3.5504,-3.6216,-3.6439,-3.8357,-3.8234,-3.8194,-3.8015,-3.7785,-3.7733,-3.7183,-3.6339,-3.6209,-3.5609,-3.4674,-3.4409,-3.4235,-3.4176,-3.3979,-3.3829,-3.3752,-3.2981,-3.2601,-3.2546,-3.177,-3.1403,-3.1397,-3.1286,-3.1225,-3.1144,-3.0306,-2.9546,-2.8844,-2.8046,-2.7334,-2.6725,-2.6708,-2.6708,-2.6691,-2.6607,-2.6623,-2.6691,-2.6708,-2.6708,-2.6708,-2.6708,-2.6336,-2.5659,-2.5524,-2.5101,-2.4406,-2.4355,-2.4423,-2.4491,-2.4592,-2.5275,-2.658,-2.5391,-2.4825,0.0,-2.5453,0.0,0.0,0.0,0.0,0.0,0.0,0.0,0.0,-3.0074,-3.1478,-3.3389,-3.4303,-3.5605,-3.7567,-3.8514,-3.9259,-3.9876,-4.0045,-4.0079,-3.9977,-3.996,-3.9926,-3.9842,-3.9825,-3.9825,-3.974,-3.9225,-3.8853,-3.8819,-3.8396,-3.8464,-3.9453,-3.9249,-3.8853,-3.8853,-3.8328,-3.8075,-3.8024,-3.7872,-3.777,-3.777,-3.7601,-3.776,-3.8041,-3.7801,-3.7351,-3.6744,-3.646,-3.6457,-3.648,-3.5881,-3.5255,-3.4663,-3.4283,-3.428,-3.5032,-3.5684,-3.5898,-3.7463,-3.7414,-3.7406,-3.6924,-3.6153,-3.6071,-3.6267,-3.6576,-3.5703,-3.5087,-3.4713,-3.4643,-3.4464,-3.42,-3.4147,-3.3993,-3.3752,-3.2968,-3.2601,-3.2564,-3.177,-3.1403,-3.136,-3.0723,-3.0258,-2.988,-2.8852,-2.8106,-2.7618,-2.7144,-2.6843,-2.6708,-2.6708,-2.6708,0.0,0.0,0.0,0.0,-2.6708,-2.6708,-2.6708,-2.6708,-2.6353,-2.5609,-2.5032,0.0,-2.3646,-2.3596,-2.3881,-2.4489,-2.505,0.0,0.0,0.0,0.0,0.0,0.0,0.0,0.0,0.0,0.0,0.0,-2.7926,-2.8094,-2.9786,-3.2205,-3.3829,-3.4286,-3.5554,-3.6541,-3.6981,-3.821,-3.9039,-3.9191,-3.9757,-3.9876,-3.9292,-3.9208,-3.8988,-3.8396,-3.8328,-3.8328,-3.8362,-3.8193,-3.8125,-3.8091,-3.799,-3.8007,-3.8244,-3.8193,-3.8108,-3.8091,-3.7872,-3.7872,-3.7898,-3.7347,-3.6948,-3.6948,-3.6434,-3.6129,-3.6186,-3.6129,-3.5554,-3.4488,-3.4548,-3.4905,-3.4754,-3.4555,-3.4432,-3.4283,-3.3571,-3.3144,-3.3685,-3.3947,-3.3947,-3.6506,0.0,-3.6484,-3.6202,0.0,-3.5653,-3.58,-3.6118,-3.5559,-3.5242,-3.5088,-3.4954,-3.4567,-3.3985,-3.3728,-3.3528,-3.3346,-3.2145,-3.1759,-3.1947,-3.0897,-3.0351,-3.021,-2.9794,-2.9509,-2.9264,-2.834,-2.7797,-2.756,-2.6627,-2.6167,-2.615,-2.5811,-2.5625,-2.5608,-2.5236,-2.5423,-2.615,-2.6505,-2.6708,-2.6708,-2.6708,-2.6336,-2.5642,0.0,0.0,0.0,0.0,0.0,0.0,0.0,0.0,0.0,0.0,0.0,-2.6133,-2.686,-2.7097,-2.6776,-2.8078,-2.9093,-2.9499,-2.9837,-3.0345,-3.1142,-3.2899,-3.4421,-3.556,-3.6372,-3.6965,-3.7313,-3.8024,-3.8447,-3.8481,-3.8785,-3.8836,-3.8548,-3.8664,-3.8546,-3.8007,-3.7665,-3.759,-3.7865,-3.7567,-3.7364,-3.733,-3.7009,-3.6766,-3.6806,-3.7127,-3.7246,-3.6857,-3.6749,-3.6766,-3.6681,-3.6146,-3.5678,-3.5594,-3.503,-3.4697,-3.4842,-3.4701,-3.417,-3.3321,-3.3553,-3.399,-3.4147,-3.3994,-3.3731,-3.3464,-3.2936,-3.2279,-3.2016,-3.2628,-3.3271,-3.571,-3.5841,-3.5772,-3.5682,-3.5633,-3.5488,-3.5321,-3.5169,0.0,0.0,0.0,-3.5101,-3.4508,-3.3783,-3.3172,-3.2884,-3.275,-3.1318,-3.0861,-3.1188,-2.9986,-2.9257,-2.9005,-2.8858,-2.875,-2.8644,-2.7839,-2.7462,-2.7328,-2.6038,-2.5406,-2.5355,-2.4795,-2.444,-2.4321,-2.4516,-2.482,-2.5314,-2.601,-2.6417,-2.6482,-2.6498,-2.6191,-2.5611,-2.5577,-2.5302,-2.475,-2.5141,-2.5256,-2.4919,-2.5366,-2.568,-2.5872,-2.5908,-2.613,-2.6708,-2.8011,-2.8484,-2.7891,-2.9668,-3.0598,-3.0123,-3.1343,-3.2158,-3.2276,-3.3085,-3.4353,-3.6237,-3.6485,-3.6823,-3.7449,-3.7652,-3.7702,-3.7702,-3.7821,-3.7889,-3.7736,-3.8068,-3.8068,-3.7567,-3.7067,-3.6986,-3.7358,-3.6941,-3.6508,-3.6355,-3.5842,-3.5329,-3.5329,-3.5842,-3.6045,-3.538,-3.5211,-3.5211,-3.5126,-3.4754,-3.432,-3.4336,-3.3846,-3.3567,-3.3761,-3.3656,-3.3195,-3.2509,-3.2849,-3.3245,-3.3539,-3.3087,-3.2649,-3.217,-3.1859,-3.1379,-3.0412,-3.1326,-3.2239,-3.5405,-3.5663,-3.5812,-3.5422,-3.4686,-3.4732,-3.4225,-3.3514,-3.4854,-3.55,-3.5462,-3.4672,-3.4131,-3.3762,-3.2944,-3.2455,-3.2173,-3.1271,-3.0797,0.0,-2.9791,-2.9257,-2.8968,-2.8301,-2.7798,-2.7387,-2.6364,-2.567,-2.5389,-2.4891,-2.466,-2.4659,-2.4541,-2.4169,-2.3693,-2.4464,-2.4678,-2.4178,-2.4867,-2.5392,-2.5655,-2.5669,-2.5626,-2.5526,-2.5512,-2.55,-2.546,-2.6162,-2.6533,-2.6478,-2.7123,-2.737,-2.7084,-2.7053,-2.6948,-2.6775,-2.7503,-2.7908,-2.7824,-2.8755,-2.9551,-3.0072,-3.0869,-3.1613,-3.2276,-3.3541,-3.4472,-3.4844,-3.5402,-3.5785,-3.5955,-3.6552,-3.6941,-3.6998,-3.7516,-3.7652,-3.7049,-3.7163,-3.6977,-3.614,-3.587,-3.5864,-3.5955,-3.5853,-3.5537,-3.4996,-3.4776,-3.4438,-3.4032,-3.4353,-3.4455,-3.3914,-3.3711,-3.3728,-3.3825,-3.3677,-3.3558,-3.3558,-3.3423,-3.3148,-3.2917,-3.3009,-3.2701,-3.1648,-3.1901,-3.2113,-3.183,-3.1036,-3.0448,-2.9856,-2.9634,-2.9517,-2.9196,-2.9533,-2.967,-3.5254,-3.5338,-3.5126,-3.4847,-3.4523,-3.409,-3.3604,-3.3188,-3.3926,-3.421,-3.4045,-3.366,-3.3172,-3.2623,-3.21,-3.1792,-3.1619,-3.0793,-3.0531,-3.0705,-3.0028,-2.9279,-2.8524,-2.8143,-2.758,-2.6868,-2.6153,-2.559,-2.5224,-2.4534,-2.4074,-2.3881,-2.3494,-2.3206,-2.3062,-2.3501,-2.3768,-2.3803,-2.4765,-2.5353,-2.55,-2.55,-2.5513,-2.5522,-2.591,-2.6185,-2.6211,-2.7143,-2.7585,-2.7412,-2.7897,-2.8006,-2.7648,-2.7636,-2.7439,-2.7101,-2.7917,-2.8365,-2.8117,-2.9454,-3.0283,-3.0378,-3.1319,-3.1908,-3.2008,-3.2808,-3.3474,-3.388,-3.4573,-3.5013,-3.503,-3.569,-3.6146,-3.6129,-3.6485,-3.6518,-3.6231,-3.6237,-3.6101,-3.5684,-3.5616,-3.547,-3.5047,-3.5013,-3.4742,-3.4066,-3.3914,-3.3609,-3.2916,-3.3051,-3.3359,-3.3389,-3.3389,-3.3406,-3.3372,-3.3034,-3.2848,-3.2797,-3.2442,-3.2168,-3.1871,-3.1847,-3.1337,-3.0738,-3.0627,-3.073,-3.0939,-3.0245,-2.9176,-2.8095,-2.8546,-2.877,-2.8501,-2.8061,-2.8062,-3.4884,-3.4843,-3.44,-3.4148,-3.3954,-3.3085,-3.2675,-3.2647,-3.2622,-3.2536,-3.2406,-3.2553,-3.2306,-3.1705,-3.1294,-3.1102,-3.0985,-3.0407,-3.0316,-3.0612,-3.0019,-2.9134,-2.8147,-2.7764,-2.7127,-2.6327,-2.5767,-2.5321,-2.4906,-2.4051,-2.3516,-2.3213,-2.266,-2.2544,-2.281,-2.2898,-2.3177,-2.3732,-2.47,-2.5198,-2.5198,-2.5216,-2.5376,-2.5763,-2.6346,-2.6827,-2.7228,-2.8057,-2.8425,-2.8174,-2.8381,-2.8386,-2.8051,-2.8024,-2.7837,-2.7567,-2.827,-2.8619,-2.8415,-2.9822,-3.0714,-3.0559,-3.1579,-3.2139,-3.2021,-3.2193,-3.265,-3.3382,-3.4158,-3.4634,-3.4915,-3.5335,-3.5693,-3.5776,-3.5898,-3.5944,-3.5667,-3.5604,-3.5525,-3.5407,-3.5312,-3.4991,-3.4455,-3.4252,-3.3947,-3.3339,-3.3034,-3.2645,-3.2175,-3.2056,-3.2327,-3.2696,-3.2899,-3.2831,-3.2865,-3.2239,-3.1836,-3.1802,-3.1193,-3.0768,-3.0598,-3.0192,-2.9991,-2.9924,-2.9501,-2.9577,-3.0344,-2.9635,-2.8329,-2.7222,-2.7498,-2.7824,-2.7063,-2.6556,-2.6725,-3.4136,-3.3955,-3.3895,-3.3261,-3.2212,-3.1348,-3.1016,-3.1006,-3.0942,-3.0891,-3.0979,-3.159,-3.1829,-3.1608,-3.0853,-3.0528,-3.0489,-3.0399,-3.0247,-2.9991,-2.9275,-2.8623,-2.7923,-2.6628,-2.5792,-2.5411,-2.4493,-2.3914,-2.3567,-2.3095,-2.2821,-2.276,-2.2691,-2.2822,-2.3141,-2.3455,-2.3639,-2.3703,-2.4103,-2.4313,-2.4303,-2.4313,-2.4998,-2.6472,-2.6553,-2.7313,-2.8474,-2.891,-2.891,-2.8905,-2.888,-2.8743,-2.8389,-2.8337,-2.8192,-2.7883,-2.7971,-2.7989,-2.8014,-2.8753,-2.9581,-3.0207,-3.1016,-3.1758,-3.231,-3.247,-3.279,-3.3495,-3.4234,-3.4882,-3.566,-3.578,-3.5867,-3.6098,-3.6527,-3.6686,-3.5766,-3.5617,-3.5347,-3.4651,-3.4558,-3.4124,-3.3731,-3.3524,-3.3211,-3.2578,-3.2026,-3.1585,-3.1404,-3.1353,-3.1303,-3.1399,-3.1413,-3.1447,-3.1376,-3.0801,-3.048,-3.0328,-2.9754,-2.9467,-2.9399,-2.9314,-2.9197,-2.9386,-2.9166,-2.8965,-2.8883,-2.8473,-2.7672,-2.6724,-2.6286,-2.5812,-2.505,-2.4897,-2.5455,-3.3421,-3.3269,-3.2637,-3.1871,-3.1113,-3.0808,-3.0709,-3.0702,-3.0779,-3.0764,-3.0706,-3.1008,-3.1106,-3.1019,-3.0584,-3.0436,-3.0414,-2.9872,-2.9573,-2.941,-2.8637,-2.7774,-2.6833,-2.6228,-2.549,-2.4733,-2.421,-2.3845,-2.35,-2.3153,-2.2996,-2.2996,-2.2996,-2.3153,-2.3488,-2.3639,-2.3795,-2.3996,-2.4123,-2.4199,-2.4199,-2.4199,-2.4511,-2.5144,-2.564,-2.6164,-2.6833,-2.7299,-2.7574,-2.7574,-2.7592,-2.772,-2.8026,-2.805,-2.8088,-2.8183,-2.8197,-2.829,-2.8551,-2.9287,-2.9742,-2.9866,-3.1229,-3.2123,-3.222,-3.2832,-3.34,-3.3683,-3.3937,-3.42,-3.4553,-3.4924,-3.5256,-3.5406,-3.5609,-3.557,-3.5133,-3.507,-3.4917,-3.4642,-3.4534,-3.4239,-3.3561,-3.2904,-3.2389,-3.1987,-3.1526,-3.1106,-3.0904,-3.0841,-3.0635,-3.031,-3.0207,-3.0302,-3.0404,-2.9939,-2.9533,-2.9381,-2.9213,-2.8993,-2.8891,-2.8518,-2.8417,-2.8727,-2.8149,-2.7724,-2.7606,-2.7419,-2.6893,-2.608,-2.5439,-2.4846,-2.4541,-2.4508,-2.4846,-3.2648,-3.2227,-3.1335,-3.0778,-3.0516,-3.0614,-3.0684,-3.0718,-3.0838,-3.0838,-3.0747,-3.0718,-3.0705,-3.0665,-3.052,-3.0482,-3.0408,-2.9555,-2.9128,-2.8988,-2.8051,-2.6987,-2.6042,-2.5748,-2.5171,-2.4339,-2.4208,-2.4016,-2.3692,-2.3369,-2.3236,-2.3323,-2.3335,-2.3511,-2.3788,-2.3827,-2.3947,-2.417,-2.4199,-2.4199,-2.4199,-2.4199,-2.43,-2.4548,-2.5099,-2.5485,-2.5742,-2.63,-2.6602,-2.6602,-2.6602,-2.6851,-2.742,-2.7486,-2.7705,-2.8203,-2.8456,-2.8682,-2.8975,-2.9537,-2.985,-2.9891,-3.119,-3.202,-3.2265,-3.2967,-3.3555,-3.3789,-3.3716,-3.3732,-3.404,-3.447,-3.4794,-3.4905,-3.5027,-3.5062,-3.4765,-3.4783,-3.4818,-3.4482,-3.4305,-3.4129,-3.3335,-3.2389,-3.169,-3.162,-3.1214,-3.0827,-3.056,-3.0455,-3.0264,-2.9759,-2.955,-2.9489,-2.9697,-2.9161,-2.8755,-2.8604,-2.8502,-2.8231,-2.835,-2.7774,-2.7215,-2.7182,-2.6623,-2.6166,-2.593,-2.5809,-2.5853,-2.5015,-2.4428,-2.4101,-2.3746,-2.3881,-2.3864,-3.1881,-3.076,-3.0246,-3.0266,-3.0507,-3.0555,-3.0648,-3.0713,-3.0837,-3.0898,-3.0879,-3.0748,-3.0769,-3.0857,-3.0672,-3.0574,-3.0432,-2.9552,-2.9072,-2.8866,-2.7393,-2.6427,-2.597,-2.5231,-2.4639,-2.4228,-2.4199,-2.4036,-2.3732,-2.341,-2.3369,-2.3653,-2.3664,-2.3855,-2.4103,-2.4151,-2.418,-2.419,-2.4199,-2.4199,-2.4199,-2.4199,-2.4539,-2.5165,-2.5338,-2.5668,-2.6319,-2.6528,-2.6547,-2.6565,-2.6492,-2.6565,-2.6649,-2.6675,-2.7042,-2.7754,-2.8524,-2.8945,-2.8938,-2.906,-2.9367,-2.999,-3.0302,-3.0968,-3.2151,-3.252,-3.2931,-3.3697,-3.3689,-3.3981,-3.4625,-3.4714,-3.4975,-3.5259,-3.5809,-3.5548,-3.4765,-3.4981,-3.4804,-3.4035,-3.3771,-3.3503,-3.2709,-3.1848,-3.1444,-3.1216,-3.0658,-3.0186,-3.0149,-3.0127,-3.0039,-2.9843,-2.9442,-2.9045,-2.8954,-2.8472,-2.7996,-2.7707,-2.7369,-2.6877,-2.6809,-2.6656,-2.6182,-2.5792,-2.5599,-2.5143,-2.4378,-2.4094,-2.422,-2.39,-2.3615,-2.3291,-2.3021,-2.2584,-2.2634,-3.2285,-3.0989,-3.0281,-3.0177,-3.0427,-3.0563,-3.062,-3.0633,-3.0814,-3.0918,-3.0898,-3.084,-3.0858,-3.0879,-3.0832,-3.0461,-2.9823,-2.8877,-2.814,-2.752,-2.6333,-2.5579,-2.5229,-2.491,-2.4602,-2.4238,-2.4199,-2.4151,-2.4026,-2.3878,-2.3896,-2.3996,-2.4034,-2.4094,-2.418,-2.4199,-2.4199,-2.4199,-2.4199,-2.4199,-2.4228,-2.433,-2.4541,-2.4791,-2.4699,-2.4768,-2.5052,-2.5052,-2.5071,-2.5052,-2.5071,-2.5309,-2.5833,-2.6319,-2.6712,-2.7053,-2.7787,-2.8227,-2.8301,-2.8712,-2.9115,-2.9409,-2.9922,-3.0381,-3.0999,-3.1531,-3.2173,-3.2821,-3.3036,-3.339,-3.4009,-3.4229,-3.4284,-3.4406,-3.459,-3.4613,-3.4273,-3.4302,-3.4204,-3.3833,-3.3731,-3.3441,-3.2632,-3.2082,-3.156,-3.1017,-3.0467,-3.0047,-2.9815,-2.9765,-2.9601,-2.915,-2.8774,-2.8354,-2.755,-2.7591,-2.7343,-2.6816,-2.6357,-2.5841,-2.5605,-2.5637,-2.5289,-2.4828,-2.4647,-2.4522,-2.3866,-2.3572,-2.3494,-2.3071,-2.2786,-2.2753,-2.2364,-2.2313,-2.2313,-3.1686,-3.0856,-3.0254,-3.0171,-3.0441,-3.0559,-3.062,-3.065,-3.082,-3.0918,-3.0918,-3.0918,-3.0918,-3.0918,-3.0918,-3.0211,-2.9092,-2.834,-2.7558,-2.6653,-2.5735,-2.5149,-2.4916,-2.4857,-2.4704,-2.4435,-2.4393,-2.4383,-2.4401,-2.4393,-2.4401,-2.4401,-2.4401,-2.4401,-2.4393,-2.4383,-2.4393,-2.4393,-2.4393,-2.4401,-2.44,-2.451,-2.4591,-2.4575,-2.4479,-2.4411,-2.4393,-2.4339,-2.433,-2.4375,-2.4339,-2.457,-2.5199,-2.5977,-2.6403,-2.6495,-2.711,-2.764,-2.7896,-2.8346,-2.8712,-2.8987,-2.9482,-2.9886,-3.0173,-3.0705,-3.1366,-3.199,-3.2228,-3.254,-3.3128,-3.3183,-3.3238,-3.3642,-3.3807,-3.3807,-3.3807,-3.3812,-3.3702,-3.34,-3.3075,-3.2735,-3.2276,-3.1737,-3.1198,-3.0649,-3.0118,-2.9669,-2.946,-2.9145,-2.8886,-2.8305,-2.7961,-2.7513,-2.7002,-2.688,-2.665,-2.615,-2.5873,-2.5234,-2.4722,-2.4686,-2.4445,-2.3984,-2.3744,-2.3733,-2.3549,-2.3224,-2.2823,-2.2398,-2.2398,-2.2465,-2.2313,-2.2313,-2.2313,-2.9932,-3.0128,-3.0006,-3.019,-3.0472,-3.0581,-3.0626,-3.0689,-3.0857,-3.0918,-3.0918,-3.0918,-3.0918,-3.0898,-3.0801,-2.988,-2.8512,-2.8061,-2.7468,-2.6517,-2.5701,-2.5198,-2.4992,-2.4961,-2.491,-2.4746,-2.4775,-2.4782,-2.4753,-2.4738,-2.4746,-2.4775,-2.4746,-2.4723,-2.4782,-2.4746,-2.4787,-2.4753,-2.4738,-2.476,-2.4797,-2.479,-2.4797,-2.4804,-2.4797,-2.4785,-2.4778,-2.4607,-2.4594,-2.4716,-2.4591,-2.461,-2.4904,-2.5532,-2.5973,-2.6038,-2.655,-2.7223,-2.7864,-2.7922,-2.829,-2.8764,-2.9017,-2.939,-2.9934,-3.0155,-3.054,-3.1219,-3.1433,-3.1745,-3.2302,-3.2027,-3.2192,-3.3421,-3.3568,-3.3495,-3.3605,-3.3697,-3.3458,-3.2687,-3.2082,-3.1507,-3.1256,-3.0858,-3.0381,-3.007,-2.9558,-2.9132,-2.904,-2.8539,-2.7948,-2.7728,-2.7379,-2.6859,-2.6552,-2.6254,-2.5888,-2.5551,-2.5393,-2.5,-2.4424,-2.4199,-2.387,-2.3442,-2.3124,-2.3081,-2.296,-2.2685,-2.2617,-2.2313,-2.2313,-2.2313,-2.2313,-2.2313,-2.2313,-3.0566,-3.1079,-3.0503,-3.0322,-3.0446,-3.0559,-3.062,-3.0652,-3.0832,-3.0918,-3.0918,-3.0918,-3.0918,-3.0742,-3.0293,-2.9353,-2.8183,-2.7582,-2.6751,-2.5878,-2.5446,-2.5208,-2.504,-2.4991,-2.4943,-2.4825,-2.4804,-2.4804,-2.4811,-2.4811,-2.4804,-2.4804,-2.4811,-2.4804,-2.4818,-2.4804,-2.4804,-2.4804,-2.4804,-2.4804,-2.4818,-2.4872,-2.4949,-2.4962,-2.5086,-2.5138,-2.5132,-2.4855,-2.4746,-2.4811,-2.4738,-2.4738,-2.4846,-2.5035,-2.5167,-2.5273,-2.5882,-2.6333,-2.672,-2.7484,-2.8042,-2.84,-2.8739,-2.9072,-2.9335,-2.939,-2.9769,-3.043,-3.0577,-3.0907,-3.1513,-3.158,-3.185,-3.2852,-3.2485,-3.2228,-3.2284,-3.2205,-3.2058,-3.1825,-3.1549,-3.1213,-3.0705,-3.0228,-2.9953,-2.95,-2.9152,-2.9005,-2.8877,-2.8264,-2.7824,-2.7743,-2.7071,-2.6235,-2.5842,-2.5562,-2.5321,-2.5021,-2.4836,-2.4643,-2.4125,-2.3759,-2.3419,-2.315,-2.2802,-2.2579,-2.2432,-2.2338,-2.2363,-2.2324,-2.2324,-2.2324,-2.2313,-2.2313,-2.2313,-3.0731,-3.1135,-3.0635,-3.0419,-3.0446,-3.0529,-3.0578,-3.0595,-3.0725,-3.079,-3.082,-3.084,-3.0858,-3.0703,-2.998,-2.9082,-2.8184,-2.7302,-2.6387,-2.5557,-2.5375,-2.5264,-2.5166,-2.5127,-2.5065,-2.4993,-2.5,-2.4981,-2.4994,-2.4994,-2.4994,-2.5,-2.4994,-2.5,-2.4975,-2.4994,-2.4975,-2.4975,-2.4981,-2.5,-2.5019,-2.5059,-2.513,-2.5116,-2.5224,-2.5284,-2.5274,-2.5091,-2.4975,-2.4981,-2.4994,-2.4975,-2.4975,-2.5,-2.4994,-2.5076,-2.5358,-2.5764,-2.6118,-2.6771,-2.7381,-2.7659,-2.8223,-2.8539,-2.8601,-2.8748,-2.9304,-2.9761,-2.9905,-3.0253,-3.1002,-3.0895,-3.1162,-3.1874,-3.1703,-3.1409,-3.1378,-3.114,-3.0974,-3.0889,-3.0668,-3.0283,-2.9916,-2.9739,-2.9574,-2.9097,-2.8987,-2.8987,-2.8767,-2.8014,-2.7574,-2.695,-2.6051,-2.5409,-2.5034,-2.485,-2.4722,-2.4494,-2.427,-2.4073,-2.3709,-2.3584,-2.3354,-2.3291,-2.3033,-2.2938,-2.2786,-2.2581,-2.2517,-2.244,-2.2402,-2.2324,-2.231,-2.2313,-2.2313,-3.0404,-3.0404,-3.0404,-3.0425,-3.0486,-3.0503,-3.0541,-3.0587,-3.0611,-3.0652,-3.0705,-3.071,-3.0766,-3.0662,-2.9961,-2.9082,-2.8171,-2.7308,-2.6416,-2.5702,-2.5459,-2.5404,-2.5375,-2.5318,-2.5288,-2.5293,-2.5293,-2.5289,-2.5269,-2.5269,-2.5313,-2.5284,-2.5259,-2.5274,-2.5248,-2.5274,-2.5259,-2.5248,-2.5274,-2.5269,-2.5264,-2.5293,-2.5279,-2.5279,-2.5313,-2.5308,-2.5303,-2.5259,-2.5264,-2.5298,-2.5253,-2.5248,-2.5274,-2.5303,-2.5278,-2.5248,-2.5118,-2.5494,-2.5969,-2.6109,-2.6261,-2.6897,-2.7469,-2.7823,-2.8046,-2.8576,-2.9084,-2.9495,-2.9516,-2.9848,-3.0462,-3.0255,-3.0236,-3.0706,-3.1001,-3.1112,-3.1176,-3.0582,-3.0251,-3.0038,-2.9482,-2.9023,-2.9133,-2.9115,-2.9042,-2.8858,-2.8785,-2.8748,-2.8308,-2.7427,-2.6489,-2.5792,-2.5244,-2.4841,-2.4566,-2.4548,-2.4456,-2.4379,-2.4117,-2.3908,-2.3649,-2.3541,-2.357,-2.3487,-2.3354,-2.3277,-2.3111,-2.2878,-2.2751,-2.2755,-2.2634,-2.2415,-2.2391,-2.247,-2.2388,-3.0404,-3.0404,-3.0404,-3.0408,-3.0444,-3.0477,-3.0516,-3.0533,-3.0578,-3.0589,-3.0633,-3.0614,-3.0645,-3.0583,-2.9857,-2.9051,-2.8178,-2.7344,-2.6502,-2.5733,-2.559,-2.5526,-2.5473,-2.5462,-2.5447,-2.5463,-2.5454,-2.545,-2.5444,-2.5398,-2.5364,-2.5375,-2.5345,-2.5298,-2.5308,-2.5303,-2.5308,-2.5308,-2.537,-2.5383,-2.5398,-2.5379,-2.5364,-2.5364,-2.5326,-2.5303,-2.5288,-2.5308,-2.5308,-2.5308,-2.5308,-2.5308,-2.5308,-2.5308,-2.5308,-2.5279,-2.5259,-2.5271,-2.5573,-2.5882,-2.6176,-2.6457,-2.6971,-2.7613,-2.8212,-2.8409,-2.8914,-2.94,-2.9626,-2.9728,-2.9941,-2.9854,-2.9883,-2.9951,-3.0265,-3.0231,-3.0047,-2.9771,-2.9558,-2.9308,-2.9108,-2.895,-2.8913,-2.884,-2.8675,-2.8253,-2.8081,-2.7923,-2.7391,-2.6722,-2.5758,-2.5428,-2.4942,-2.452,-2.4236,-2.4236,-2.4236,-2.4254,-2.4139,-2.403,-2.3813,-2.3674,-2.3811,-2.3909,-2.3696,-2.3584,-2.3346,-2.3093,-2.3081,-2.3069,-2.2965,-2.2824,-2.2807,-2.2845,-2.2643,-3.0404,-3.0404,-3.0404,-3.0404,-3.0396,-3.0446,-3.0457,-3.0472,-3.049,-3.0533,-3.054,-3.0551,-3.0571,-3.0531,-2.9769,-2.8963,-2.8111,-2.7275,-2.6445,-2.5729,-2.5605,-2.5551,-2.5498,-2.551,-2.551,-2.551,-2.5513,-2.5508,-2.5484,-2.5449,-2.545,-2.5438,-2.5409,-2.5403,-2.5391,-2.5379,-2.5379,-2.5395,-2.5421,-2.5425,-2.546,-2.546,-2.5444,-2.5421,-2.5409,-2.5379,-2.5383,-2.5383,-2.5363,-2.5322,-2.5308,-2.5308,-2.5308,-2.5308,-2.5308,-2.5308,-2.5308,-2.5308,-2.5321,-2.5566,-2.5691,-2.5844,-2.6336,-2.6868,-2.7409,-2.7915,-2.8732,-2.9188,-2.9575,-2.985,-2.9966,-2.9981,-3.0,-3.0053,-2.9992,-2.9856,-2.958,-2.95,-2.9341,-2.9126,-2.8791,-2.8491,-2.8484,-2.8235,-2.7831,-2.7438,-2.731,-2.694,-2.6423,-2.5758,-2.5246,-2.4914,-2.4722,-2.4365,-2.4199,-2.4199,-2.4199,-2.4199,-2.418,-2.4066,-2.3988,-2.3858,-2.3969,-2.4081,-2.3971,-2.3847,-2.3649,-2.3459,-2.3414,-2.338,-2.3311,-2.3165,-2.3069,-2.3069,-2.2873,-3.0404,-3.0404,-3.0404,-3.0404,-3.0404,-3.0404,-3.0402,-3.039,-3.0408,-3.046,-3.0482,-3.0481,-3.0524,-3.052,-2.9677,-2.8854,-2.806,-2.7208,-2.6335,-2.5773,-2.5554,-2.5546,-2.5523,-2.5556,-2.5549,-2.5547,-2.5533,-2.5537,-2.5524,-2.5511,-2.55,-2.5493,-2.5489,-2.5506,-2.5488,-2.5495,-2.5508,-2.5495,-2.5508,-2.55,-2.552,-2.552,-2.55,-2.5517,-2.5498,-2.549,-2.5493,-2.5493,-2.5425,-2.5321,-2.5298,-2.5322,-2.5317,-2.5308,-2.5308,-2.5308,-2.5308,-2.5308,-2.5279,-2.5204,-2.5116,-2.5265,-2.5682,-2.5997,-2.6457,-2.7388,-2.8188,-2.8673,-2.9443,-2.9888,-3.0248,-3.0284,-3.0074,-2.9979,-3.0067,-2.9863,-2.961,-2.9411,-2.9304,-2.9143,-2.8241,-2.7827,-2.7526,-2.7119,-2.6612,-2.6576,-2.6429,-2.6125,-2.5693,-2.5207,-2.4776,-2.4453,-2.4326,-2.4254,-2.4199,-2.4199,-2.4199,-2.4199,-2.4199,-2.4161,-2.4161,-2.4094,-2.4133,-2.4161,-2.4074,-2.4074,-2.4064,-2.3917,-2.3767,-2.3696,-2.3653,-2.3328,-2.3052,-2.3153,-2.3081,-3.0404,-3.0404,-3.0404,-3.0404,-3.0404,-3.0404,-3.0404,-3.0404,-3.0404,-3.0408,-3.0431,-3.0417,-3.0439,-3.0399,-2.9584,-2.8784,-2.7977,-2.7122,-2.6333,-2.561,-2.5522,-2.5524,-2.553,-2.5586,-2.564,-2.566,-2.566,-2.5659,-2.5638,-2.5583,-2.557,-2.5567,-2.5545,-2.5513,-2.5517,-2.5526,-2.5513,-2.552,-2.5552,-2.557,-2.557,-2.557,-2.557,-2.5569,-2.5541,-2.5517,-2.5513,-2.551,-2.5495,-2.5459,-2.5424,-2.5387,-2.5375,-2.5326,-2.5298,-2.5308,-2.5308,-2.5308,-2.5284,-2.5239,-2.5224,-2.5247,-2.5401,-2.5732,-2.6447,-2.6749,-2.7386,-2.8013,-2.8825,-2.9517,-3.0046,-2.9698,-2.9448,-2.9294,-2.8929,-2.8516,-2.837,-2.867,-2.8542,-2.7934,-2.7429,-2.71,-2.7071,-2.6774,-2.6309,-2.5854,-2.5531,-2.5301,-2.5007,-2.4668,-2.4436,-2.4196,-2.4197,-2.4199,-2.4199,-2.4199,-2.4199,-2.4199,-2.4199,-2.4199,-2.4199,-2.4199,-2.4199,-2.4199,-2.419,-2.419,-2.4208,-2.418,-2.4006,-2.3988,-2.3978,-2.3746,-2.3526,-2.3482,-2.3259,-3.0769,-3.0404,-3.0404,-3.0404,-3.0404,-3.0404,-3.0404,-3.0404,-3.0404,-3.0404,-3.0404,-3.0404,-3.0404,-3.0314,-2.9524,-2.871,-2.7792,-2.6645,-2.5846,-2.5462,-2.5431,-2.5456,-2.5482,-2.5551,-2.5624,-2.5626,-2.5636,-2.5658,-2.5642,-2.5644,-2.5657,-2.5657,-2.5606,-2.5603,-2.5598,-2.5598,-2.5601,-2.5622,-2.5632,-2.5658,-2.5657,-2.5638,-2.5657,-2.5637,-2.5607,-2.5598,-2.5601,-2.5599,-2.5599,-2.559,-2.5537,-2.5468,-2.542,-2.5356,-2.5339,-2.5298,-2.5308,-2.5308,-2.5308,-2.5308,-2.5284,-2.5308,-2.5308,-2.5538,-2.6019,-2.6332,-2.6774,-2.7332,-2.8005,-2.878,-2.9159,-2.8909,-2.8569,-2.8492,-2.8159,-2.7736,-2.7484,-2.7822,-2.8046,-2.7343,-2.6887,-2.6599,-2.641,-2.6172,-2.5809,-2.5276,-2.5088,-2.4866,-2.4783,-2.4487,-2.4365,-2.4198,-2.4208,-2.4199,-2.4199,-2.4199,-2.4199,-2.4199,-2.4199,-2.4199,-2.4199,-2.4199,-2.4199,-2.4199,-2.4199,-2.4199,-2.419,-2.4199,-2.4199,-2.4114,-2.4057,-2.4075,-2.3958,-2.3646,-2.3419,-3.1077,-3.0404,-3.0404,-3.0404,-3.0404,-3.0404,-3.0404,-3.0404,-3.0404,-3.0404,-3.0404,-3.0404,-3.0308,-3.0006,-2.9248,-2.8415,-2.726,-2.6227,-2.5355,-2.5345,-2.5367,-2.5376,-2.5409,-2.5441,-2.5479,-2.5468,-2.5551,-2.5572,-2.5602,-2.5636,-2.5621,-2.5661,-2.5661,-2.5623,-2.5642,-2.5662,-2.5642,-2.5622,-2.5641,-2.5662,-2.5663,-2.5683,-2.5683,-2.5684,-2.5684,-2.5684,-2.5684,-2.5684,-2.5684,-2.5703,-2.5657,-2.5554,-2.5457,-2.5411,-2.5402,-2.5344,-2.5342,-2.5348,-2.533,-2.5312,-2.5327,-2.5298,-2.5308,-2.5308,-2.5519,-2.5904,-2.6231,-2.6615,-2.714,-2.7736,-2.7755,-2.7717,-2.7717,-2.7645,-2.7601,-2.7159,-2.671,-2.6877,-2.6982,-2.6943,-2.6301,-2.5883,-2.5676,-2.5446,-2.5077,-2.4782,-2.4657,-2.4545,-2.4486,-2.4454,-2.4393,-2.4384,-2.4418,-2.4435,-2.4435,-2.4409,-2.4374,-2.4274,-2.4256,-2.421,-2.4183,-2.4023,-2.4022,-2.4173,-2.4199,-2.4163,-2.4163,-2.4199,-2.4171,-2.4153,-2.4079,-2.4031,-2.3905,-2.3741,-2.3559,-3.0538,-3.0404,-3.0404,-3.0404,-3.0404,-3.0398,-3.0373,-3.0404,-3.0367,-3.0398,-3.0373,-3.0379,-2.9976,-2.9296,-2.8467,-2.7269,-2.6079,-2.5378,-2.5259,-2.5269,-2.5313,-2.5303,-2.533,-2.5337,-2.5342,-2.5375,-2.5447,-2.5498,-2.5526,-2.5537,-2.5558,-2.5545,-2.5549,-2.5551,-2.5552,-2.5522,-2.5554,-2.5559,-2.5577,-2.5569,-2.5604,-2.5632,-2.5657,-2.5684,-2.5703,-2.5703,-2.5703,-2.5703,-2.5703,-2.5703,-2.5703,-2.5656,-2.5566,-2.5524,-2.549,-2.5462,-2.545,-2.5441,-2.5375,-2.5383,-2.535,-2.5303,-2.5313,-2.5308,-2.5361,-2.5438,-2.5673,-2.5818,-2.6318,-2.6904,-2.7124,-2.6937,-2.6827,-2.6673,-2.6308,-2.5865,-2.5702,-2.5753,-2.5899,-2.5935,-2.5518,-2.526,-2.5234,-2.5183,-2.5037,-2.4903,-2.4806,-2.4741,-2.4704,-2.47,-2.4678,-2.4685,-2.4723,-2.4731,-2.4712,-2.4689,-2.464,-2.4443,-2.4356,-2.4243,-2.4128,-2.3836,-2.3794,-2.3681,-2.3842,-2.3952,-2.4026,-2.4099,-2.3988,-2.3814,-2.3869,-2.3877,-2.3635,-2.3375,-2.3706,-3.0889,-3.0215,-3.0196,-3.0267,-3.0361,-3.0228,-3.0196,-3.0182,-3.008,-3.003,-3.003,-2.9991,-2.9587,-2.8736,-2.7916,-2.6613,-2.5418,-2.505,-2.5072,-2.5124,-2.5152,-2.5214,-2.5288,-2.5303,-2.5308,-2.5322,-2.5375,-2.5415,-2.5453,-2.5498,-2.5501,-2.5513,-2.551,-2.551,-2.551,-2.5517,-2.5508,-2.5508,-2.5508,-2.5522,-2.5552,-2.5588,-2.563,-2.5657,-2.5684,-2.5703,-2.5703,-2.5703,-2.5703,-2.5703,-2.5703,-2.5664,-2.5644,-2.5625,-2.5586,-2.5529,-2.5515,-2.5501,-2.5449,-2.5459,-2.5438,-2.5408,-2.5406,-2.5409,-2.5409,-2.5413,-2.5383,-2.5447,-2.552,-2.5981,-2.6091,-2.6043,-2.5942,-2.5865,-2.5538,-2.5351,-2.5308,-2.5308,-2.5308,-2.5308,-2.5285,-2.5275,-2.5223,-2.517,-2.5086,-2.5018,-2.4962,-2.4923,-2.4904,-2.4889,-2.4881,-2.4867,-2.4874,-2.4855,-2.4805,-2.4718,-2.4604,-2.4432,-2.4173,-2.4071,-2.3685,-2.3213,-2.2966,-2.2823,-2.3101,-2.3211,-2.3741,-2.3769,-2.3612,-2.3336,-2.2905,-2.2676,-2.2933,-2.3098,-2.3345,-3.1008,-2.9947,-2.9939,-3.0054,-3.0208,-3.0032,-2.9947,-2.9908,-2.9799,-2.9731,-2.9705,-2.9657,-2.9267,-2.8391,-2.7352,-2.6155,-2.4861,-2.4818,-2.4871,-2.4937,-2.4962,-2.5047,-2.516,-2.5238,-2.5219,-2.5214,-2.5303,-2.5317,-2.5368,-2.5415,-2.5437,-2.5447,-2.5459,-2.5468,-2.5434,-2.5457,-2.5468,-2.5449,-2.5465,-2.5449,-2.5481,-2.5545,-2.5591,-2.5593,-2.5614,-2.5644,-2.5644,-2.5664,-2.5664,-2.5684,-2.5703,-2.5703,-2.5703,-2.5703,-2.5644,-2.558,-2.5545,-2.5541,-2.5511,-2.5509,-2.552,-2.549,-2.5506,-2.5508,-2.5484,-2.5482,-2.5457,-2.5421,-2.5422,-2.5447,-2.5575,-2.541,-2.5397,-2.5374,-2.5394,-2.5322,-2.5298,-2.5308,-2.5308,-2.5308,-2.5308,-2.5288,-2.5254,-2.5229,-2.5176,-2.5171,-2.5126,-2.5096,-2.5078,-2.5024,-2.5013,-2.4981,-2.4974,-2.4974,-2.4873,-2.4632,-2.4435,-2.4136,-2.3724,-2.34,-2.2897,-2.2355,-2.2241,-2.2199,-2.1648,-2.1829,-2.2603,-2.3178,-2.2774,-2.2289,-2.1668,-2.1512,-2.1823,-2.2263,-2.262,-2.9892,-2.9748,-2.9739,-2.9765,-2.979,-2.9746,-2.9739,-2.9739,-2.9687,-2.9705,-2.9643,-2.9584,-2.9115,-2.8146,-2.6771,-2.5676,-2.505,-2.4753,-2.4749,-2.4806,-2.4814,-2.4842,-2.4908,-2.4993,-2.5041,-2.5059,-2.5198,-2.5288,-2.5293,-2.5293,-2.5315,-2.5344,-2.5357,-2.5345,-2.5346,-2.537,-2.5331,-2.5321,-2.5326,-2.5354,-2.5401,-2.5465,-2.5498,-2.5505,-2.5516,-2.5547,-2.5556,-2.5576,-2.5606,-2.5629,-2.5681,-2.5703,-2.5703,-2.5703,-2.5703,-2.5683,-2.5682,-2.5658,-2.5603,-2.5595,-2.5566,-2.5543,-2.5507,-2.5515,-2.5529,-2.5524,-2.5498,-2.5486,-2.546,-2.5485,-2.5495,-2.5513,-2.5466,-2.5404,-2.5391,-2.5363,-2.5335,-2.5354,-2.5342,-2.5329,-2.5354,-2.5335,-2.5307,-2.5308,-2.5284,-2.5298,-2.5293,-2.5259,-2.5238,-2.516,-2.5138,-2.5115,-2.5109,-2.5109,-2.4887,-2.4681,-2.4132,-2.3814,-2.3221,-2.2685,-2.2114,-2.1691,-2.1877,-2.1673,-2.1005,-2.0816,-2.1712,-2.2025,-2.1723,-2.1369,-2.089,-2.0756,-2.0759,-2.1253,-2.1757,-2.9395,-2.9514,-2.9542,-2.9598,-2.9678,-2.9579,-2.9532,-2.9504,-2.9375,-2.9295,-2.9202,-2.8785,-2.8153,-2.7326,-2.6126,-2.5494,-2.5085,-2.472,-2.4537,-2.4634,-2.4639,-2.4666,-2.4804,-2.4855,-2.4877,-2.4904,-2.4949,-2.4994,-2.5068,-2.5217,-2.5308,-2.5298,-2.5284,-2.5303,-2.5274,-2.5284,-2.5313,-2.5298,-2.5298,-2.5337,-2.5346,-2.5413,-2.545,-2.5453,-2.5468,-2.5501,-2.5513,-2.5511,-2.5547,-2.5551,-2.557,-2.5605,-2.5625,-2.5605,-2.5575,-2.5575,-2.5576,-2.5596,-2.5643,-2.5661,-2.5635,-2.5611,-2.5606,-2.5629,-2.5624,-2.559,-2.5558,-2.5538,-2.5529,-2.5517,-2.5537,-2.553,-2.5498,-2.5477,-2.5465,-2.5441,-2.5427,-2.5434,-2.5425,-2.5411,-2.5397,-2.5395,-2.5379,-2.5352,-2.5335,-2.534,-2.5327,-2.5308,-2.5288,-2.5259,-2.5248,-2.5259,-2.5253,-2.5253,-2.498,-2.4672,-2.3774,-2.3247,-2.2417,-2.1884,-2.134,-2.1078,-2.1258,-2.1091,-2.0502,-2.058,-2.1078,-2.0877,-2.058,-2.0378,-2.0185,-2.0394,-2.0565,-2.017,-2.0839,-2.8904,-2.9155,-2.9267,-2.9404,-2.9504,-2.9363,-2.9299,-2.9267,-2.91,-2.8998,-2.884,-2.8415,-2.7735,-2.6943,-2.6379,-2.5931,-2.5349,-2.475,-2.4487,-2.4458,-2.4435,-2.4485,-2.4583,-2.467,-2.4723,-2.4731,-2.4806,-2.484,-2.4889,-2.5006,-2.5157,-2.5171,-2.5126,-2.5176,-2.5203,-2.5171,-2.5149,-2.5208,-2.5269,-2.5313,-2.5317,-2.5361,-2.5364,-2.5395,-2.5434,-2.5437,-2.5459,-2.5482,-2.5485,-2.5485,-2.5513,-2.5546,-2.5565,-2.555,-2.5529,-2.5529,-2.5531,-2.5552,-2.5611,-2.564,-2.5662,-2.5683,-2.5703,-2.5684,-2.5683,-2.5638,-2.5612,-2.5612,-2.558,-2.5563,-2.5552,-2.5577,-2.5551,-2.5545,-2.5533,-2.5526,-2.5515,-2.5484,-2.5488,-2.5471,-2.5465,-2.5482,-2.5447,-2.5398,-2.5379,-2.5359,-2.5357,-2.5344,-2.5326,-2.5317,-2.5308,-2.5293,-2.4923,-2.4884,-2.4649,-2.4225,-2.3432,-2.2677,-2.1831,-2.1231,-2.0788,-2.0554,-2.0583,-2.0305,-2.0069,-2.0255,-2.0673,-2.0045,-1.9505,-1.9863,-2.0217,-2.047,-2.0458,-2.0002,-2.0178,-2.817,-2.8509,-2.8857,-2.9033,-2.9078,-2.9033,-2.9051,-2.9055,-2.901,-2.8968,-2.8877,-2.8858,-2.8374,-2.7732,-2.7236,-2.6568,-2.5429,-2.5338,-2.4798,-2.4375,-2.4228,-2.4266,-2.4357,-2.4444,-2.4528,-2.4553,-2.4623,-2.4723,-2.4782,-2.4734,-2.4814,-2.484,-2.4908,-2.4949,-2.4962,-2.4968,-2.4993,-2.5078,-2.5176,-2.5283,-2.5274,-2.5284,-2.5289,-2.5317,-2.5317,-2.5317,-2.5322,-2.5372,-2.5397,-2.5397,-2.5447,-2.5477,-2.549,-2.5474,-2.5474,-2.5474,-2.5474,-2.5493,-2.5522,-2.5566,-2.5622,-2.5631,-2.5644,-2.5664,-2.5664,-2.5683,-2.5683,-2.5644,-2.5624,-2.5643,-2.5663,-2.5682,-2.5633,-2.5606,-2.5597,-2.5569,-2.5559,-2.5525,-2.5513,-2.5517,-2.5526,-2.5547,-2.5551,-2.5515,-2.5453,-2.5434,-2.5421,-2.5411,-2.5387,-2.5387,-2.5344,-2.5167,-2.4565,-2.4291,-2.4066,-2.3435,-2.25,-2.1921,-2.1288,-2.0827,-2.0442,-2.0281,-2.0277,-2.0249,-2.0197,-2.0229,-2.022,-1.9988,-1.9871,-2.0022,-2.0214,-2.0311,-2.0697,-2.0697,-2.0843,-2.7982,-2.8102,-2.8255,-2.8589,-2.8987,-2.8987,-2.8987,-2.8987,-2.8987,-2.8693,-2.8315,-2.8712,-2.8558,-2.7868,-2.7218,-2.6796,-2.6007,-2.5007,-2.4565,-2.4318,-2.4199,-2.4199,-2.4247,-2.4257,-2.4321,-2.4348,-2.4419,-2.4436,-2.4428,-2.4469,-2.4426,-2.4478,-2.4662,-2.4818,-2.4835,-2.4835,-2.4884,-2.4949,-2.5024,-2.5074,-2.5259,-2.5173,-2.5168,-2.5303,-2.5308,-2.5308,-2.5303,-2.5336,-2.5335,-2.5333,-2.5371,-2.5376,-2.5391,-2.5391,-2.5391,-2.5391,-2.5391,-2.5391,-2.5417,-2.5482,-2.5541,-2.5545,-2.5559,-2.5572,-2.5598,-2.5593,-2.557,-2.5575,-2.5629,-2.5635,-2.5636,-2.5663,-2.5683,-2.5681,-2.5659,-2.5617,-2.5593,-2.5585,-2.5586,-2.5586,-2.5605,-2.5635,-2.5635,-2.5612,-2.5563,-2.5503,-2.5493,-2.5481,-2.5468,-2.5373,-2.5309,-2.5093,-2.4513,-2.3956,-2.3736,-2.2732,-2.1594,-2.1163,-2.0789,-2.0539,-2.0292,-2.0288,-2.0285,-2.0288,-2.0288,-2.0277,-2.0252,-2.0214,-2.0203,-2.0214,-2.0096,-1.9979,-2.0479,-2.1062,-2.1274,-2.7604,-2.7725,-2.7722,-2.8093,-2.8639,-2.8682,-2.8663,-2.8663,-2.8651,-2.8403,-2.7894,-2.8421,-2.8385,-2.7713,-2.7047,-2.6472,-2.5912,-2.4973,-2.4356,-2.4095,-2.4016,-2.4103,-2.417,-2.4209,-2.4228,-2.419,-2.4199,-2.4228,-2.4247,-2.4209,-2.4237,-2.4321,-2.4442,-2.4591,-2.4723,-2.4782,-2.4809,-2.4797,-2.4857,-2.4888,-2.5109,-2.5037,-2.4981,-2.5115,-2.5121,-2.5121,-2.5109,-2.5126,-2.5146,-2.5173,-2.521,-2.5239,-2.5279,-2.5308,-2.5308,-2.5308,-2.5308,-2.5284,-2.5326,-2.5395,-2.5488,-2.5496,-2.552,-2.552,-2.551,-2.551,-2.5529,-2.5524,-2.5552,-2.5566,-2.5566,-2.5603,-2.563,-2.5593,-2.5641,-2.5624,-2.5644,-2.5644,-2.5664,-2.5684,-2.5684,-2.5683,-2.5683,-2.5662,-2.5638,-2.5576,-2.554,-2.5533,-2.5537,-2.5413,-2.5229,-2.4949,-2.4505,-2.3964,-2.3423,-2.2405,-2.146,-2.0894,-2.0579,-2.0455,-2.029,-2.0307,-2.03,-2.0288,-2.0288,-2.0288,-2.0277,-2.0252,-2.0265,-2.0287,-2.0241,-2.024,-2.0119,-2.0662,-2.0978,-2.6971,-2.7303,-2.7319,-2.7545,-2.7926,-2.794,-2.7968,-2.8037,-2.8006,-2.797,-2.7895,-2.8006,-2.8006,-2.7668,-2.6983,-2.6247,-2.5574,-2.4729,-2.4092,-2.3779,-2.3714,-2.3896,-2.4006,-2.4056,-2.3986,-2.4142,-2.4084,-2.4016,-2.4103,-2.4026,-2.4056,-2.4103,-2.4154,-2.4311,-2.4512,-2.4693,-2.4685,-2.4567,-2.4697,-2.4768,-2.4861,-2.4847,-2.4814,-2.4895,-2.4889,-2.4903,-2.4922,-2.4922,-2.4955,-2.5031,-2.503,-2.5071,-2.5212,-2.5228,-2.5233,-2.5219,-2.5248,-2.5259,-2.5313,-2.5363,-2.5401,-2.5446,-2.5459,-2.5471,-2.5473,-2.5479,-2.5482,-2.5456,-2.5501,-2.5491,-2.5496,-2.5522,-2.5533,-2.5549,-2.5594,-2.5622,-2.5628,-2.5625,-2.5625,-2.5644,-2.5664,-2.5703,-2.5703,-2.5684,-2.5684,-2.5662,-2.5613,-2.5565,-2.5441,-2.5059,-2.4707,-2.4363,-2.3917,-2.3332,-2.2697,-2.209,-2.1342,-2.0761,-2.0422,-2.0347,-2.0331,-2.0334,-2.0324,-2.03,-2.0303,-2.0324,-2.0306,-2.03,-2.0304,-2.0339,-2.0676,-2.0693,-2.0416,-2.0214,-2.0514,-2.6775,-2.6906,-2.6906,-2.6971,-2.7178,-2.7678,-2.7897,-2.7897,-2.7897,-2.7897,-2.7897,-2.7897,-2.7897,-2.7525,-2.6578,-2.5734,-2.5305,-2.4068,-2.3424,-2.3382,-2.3351,-2.3414,-2.3544,-2.361,-2.3595,-2.3544,-2.3544,-2.3577,-2.3493,-2.3599,-2.3566,-2.3573,-2.3806,-2.4027,-2.4229,-2.4401,-2.4393,-2.4461,-2.4486,-2.4493,-2.4746,-2.4685,-2.4654,-2.4768,-2.4775,-2.4768,-2.476,-2.4746,-2.4804,-2.4862,-2.4838,-2.4897,-2.5,-2.5013,-2.5,-2.4975,-2.4987,-2.4999,-2.5065,-2.5126,-2.5207,-2.5295,-2.5372,-2.5395,-2.536,-2.5352,-2.5371,-2.5379,-2.5434,-2.5425,-2.5431,-2.5471,-2.5513,-2.552,-2.5539,-2.5539,-2.5545,-2.5549,-2.5547,-2.5547,-2.5566,-2.5605,-2.5631,-2.5634,-2.5636,-2.5406,-2.5293,-2.5018,-2.4839,-2.4199,-2.373,-2.3418,-2.3001,-2.2483,-2.1966,-2.1825,-2.1324,-2.0662,-2.0432,-2.0387,-2.0364,-2.0363,-2.0358,-2.0344,-2.0355,-2.0344,-2.0341,-2.032,-2.032,-2.0444,-2.0646,-2.0642,-2.0306,-2.0039,-2.0006,-2.6556,-2.6708,-2.6708,-2.6708,-2.6791,-2.7272,-2.7502,-2.747,-2.747,-2.7485,-2.7487,-2.747,-2.7263,-2.674,-2.5862,-2.4919,-2.4658,-2.3528,-2.3002,-2.2996,-2.3033,-2.3129,-2.3189,-2.3177,-2.3288,-2.3189,-2.3189,-2.3212,-2.3259,-2.3212,-2.3236,-2.3323,-2.3397,-2.361,-2.3847,-2.4027,-2.4284,-2.4339,-2.4321,-2.4321,-2.4469,-2.4478,-2.4471,-2.4537,-2.4578,-2.4586,-2.4594,-2.4618,-2.4631,-2.467,-2.47,-2.4731,-2.476,-2.4797,-2.4797,-2.4804,-2.4818,-2.4836,-2.4891,-2.4924,-2.4998,-2.5077,-2.5217,-2.5303,-2.5308,-2.5317,-2.5313,-2.5317,-2.5337,-2.535,-2.536,-2.5421,-2.5434,-2.5441,-2.5462,-2.5462,-2.5477,-2.5463,-2.5491,-2.5503,-2.5508,-2.5539,-2.5552,-2.5561,-2.5567,-2.5249,-2.4909,-2.4624,-2.4374,-2.3848,-2.3281,-2.293,-2.2949,-2.2869,-2.2475,-2.2083,-2.147,-2.0615,-2.0447,-2.0435,-2.0422,-2.0406,-2.041,-2.0391,-2.0379,-2.037,-2.0359,-2.0355,-2.0381,-2.0354,-2.0375,-2.0304,-2.0099,-2.0022,-1.9948,-2.6244,-2.6624,-2.6674,-2.6641,-2.6624,-2.6674,-2.6725,-2.6725,-2.6725,-2.6758,-2.6741,-2.674,-2.6431,-2.5655,-2.4825,-2.4173,-2.359,-2.2762,-2.2617,-2.2652,-2.2717,-2.2878,-2.3002,-2.3063,-2.2989,-2.3075,-2.3087,-2.2965,-2.3117,-2.3014,-2.3026,-2.3129,-2.3153,-2.3288,-2.3471,-2.3735,-2.4016,-2.4008,-2.4095,-2.4114,-2.4182,-2.4238,-2.4266,-2.4321,-2.4312,-2.4312,-2.4303,-2.4303,-2.4375,-2.4445,-2.4513,-2.4618,-2.4693,-2.4775,-2.4782,-2.4768,-2.4746,-2.4727,-2.4763,-2.4771,-2.4814,-2.4903,-2.5103,-2.5228,-2.5243,-2.5182,-2.5165,-2.5187,-2.521,-2.5234,-2.5259,-2.5284,-2.5312,-2.5329,-2.536,-2.5379,-2.5406,-2.5418,-2.5443,-2.5457,-2.5485,-2.5501,-2.5481,-2.5489,-2.5496,-2.5342,-2.5028,-2.4651,-2.4372,-2.4121,-2.3535,-2.291,-2.3063,-2.3535,-2.3086,-2.2148,-2.1562,-2.0703,-2.0547,-2.0488,-2.048,-2.0455,-2.0475,-2.045,-2.043,-2.0409,-2.0429,-2.0444,-2.0485,-2.0424,-2.0366,-2.0296,-2.0222,-2.0237,-2.0181,-2.5505,-2.5672,-2.605,-2.5997,-2.5709,-2.6033,-2.6384,-2.6674,-2.6708,-2.6708,-2.6657,-2.6133,-2.5812,-2.5507,-2.4305,-2.3695,-2.3173,-2.2733,-2.2437,-2.2398,-2.248,-2.2508,-2.2561,-2.2611,-2.2588,-2.2602,-2.2598,-2.2634,-2.2571,-2.2584,-2.2734,-2.2815,-2.2865,-2.296,-2.3153,-2.3392,-2.3466,-2.3584,-2.3721,-2.3827,-2.3917,-2.4006,-2.4074,-2.4113,-2.4103,-2.4103,-2.4103,-2.4113,-2.42,-2.4238,-2.4275,-2.4358,-2.4339,-2.4375,-2.4384,-2.4375,-2.4384,-2.4409,-2.4561,-2.4602,-2.4642,-2.4731,-2.4876,-2.4903,-2.4936,-2.4949,-2.4955,-2.5018,-2.5066,-2.5078,-2.5103,-2.5126,-2.5124,-2.5143,-2.5177,-2.524,-2.5264,-2.5263,-2.5305,-2.5345,-2.536,-2.5425,-2.5425,-2.5425,-2.5418,-2.5371,-2.5199,-2.4803,-2.4501,-2.4274,-2.3841,-2.3218,-2.3165,-2.3659,-2.267,-2.168,-2.1289,-2.0879,-2.0703,-2.0546,-2.0526,-2.0505,-2.0541,-2.0521,-2.0462,-2.0501,-2.0542,-2.054,-2.05,-2.0503,-2.0449,-2.0396,-2.0358,-2.0347,-2.0332,-2.5008,-2.524,-2.5559,-2.5486,-2.5297,-2.5559,-2.5854,-2.6141,-2.6539,-2.6708,-2.6623,-2.5931,-2.5439,-2.4983,-2.3968,-2.3257,-2.2885,-2.255,-2.2324,-2.2324,-2.2254,-2.2338,-2.231,-2.2268,-2.2352,-2.2313,-2.2296,-2.2377,-2.2282,-2.231,-2.2426,-2.2527,-2.2537,-2.2656,-2.2786,-2.2824,-2.2837,-2.3007,-2.3206,-2.3426,-2.3588,-2.3703,-2.3756,-2.3837,-2.3845,-2.3845,-2.3845,-2.3837,-2.3816,-2.3847,-2.3886,-2.4006,-2.4046,-2.4113,-2.4199,-2.4228,-2.4247,-2.4284,-2.4366,-2.4402,-2.4471,-2.4528,-2.454,-2.4551,-2.4647,-2.4716,-2.479,-2.4867,-2.4889,-2.491,-2.4936,-2.4942,-2.493,-2.4949,-2.5024,-2.5097,-2.5097,-2.5097,-2.5135,-2.5175,-2.5245,-2.5337,-2.5363,-2.5354,-2.5363,-2.5352,-2.5321,-2.5151,-2.4888,-2.4701,-2.422,-2.3609,-2.3579,-2.3706,-2.2586,-2.1832,-2.168,-2.1348,-2.0684,-2.0569,-2.0555,-2.0498,-2.0479,-2.0478,-2.0516,-2.0517,-2.0521,-2.0518,-2.048,-2.0488,-2.0505,-2.0453,-2.0399,-2.0392,-2.0378,-2.4632,-2.5047,-2.5067,-2.5067,-2.5128,-2.5128,-2.5147,-2.5243,-2.6105,-2.6556,-2.637,-2.5697,-2.4893,-2.421,-2.3307,-2.2635,-2.2289,-2.2024,-2.1976,-2.2197,-2.2005,-2.1991,-2.202,-2.2152,-2.1945,-2.2092,-2.2152,-2.1974,-2.2149,-2.2106,-2.2034,-2.2268,-2.222,-2.2301,-2.2429,-2.2443,-2.2484,-2.2561,-2.2837,-2.3087,-2.3183,-2.3189,-2.3189,-2.3247,-2.3259,-2.3247,-2.3247,-2.3224,-2.32,-2.3323,-2.3466,-2.366,-2.3746,-2.3858,-2.4006,-2.4026,-2.3958,-2.3986,-2.3998,-2.4008,-2.4046,-2.4085,-2.4123,-2.4068,-2.4136,-2.4442,-2.4575,-2.4639,-2.4666,-2.4666,-2.4674,-2.4792,-2.4849,-2.4835,-2.4855,-2.4922,-2.4948,-2.4948,-2.4962,-2.5011,-2.5065,-2.5168,-2.5154,-2.5143,-2.5113,-2.5205,-2.5215,-2.5152,-2.5096,-2.4923,-2.4523,-2.3952,-2.393,-2.3862,-2.3426,-2.2773,-2.2503,-2.1992,-2.1229,-2.0834,-2.0971,-2.0747,-2.0395,-2.0432,-2.0468,-2.0472,-2.0471,-2.0456,-2.0449,-2.0464,-2.046,-2.0485,-2.0448,-2.0431,-2.042,-2.3879,-2.3985,-2.397,-2.4204,-2.4572,-2.4576,-2.4592,-2.4652,-2.5278,-2.5561,-2.5334,-2.4359,-2.3696,-2.3454,-2.2361,-2.1676,-2.1481,-2.1477,-2.1338,-2.1401,-2.1416,-2.1508,-2.1369,-2.1478,-2.1385,-2.1307,-2.1354,-2.1588,-2.169,-2.1631,-2.1693,-2.2166,-2.2017,-2.1884,-2.2166,-2.218,-2.2237,-2.2237,-2.247,-2.2708,-2.2827,-2.3069,-2.3189,-2.3165,-2.3153,-2.3117,-2.3117,-2.3141,-2.3165,-2.3236,-2.3259,-2.3323,-2.3335,-2.3414,-2.3437,-2.3437,-2.3511,-2.3544,-2.3544,-2.3555,-2.3555,-2.3511,-2.35,-2.3466,-2.3613,-2.4078,-2.4339,-2.4374,-2.4426,-2.4426,-2.4469,-2.4623,-2.4738,-2.4719,-2.4696,-2.4742,-2.4775,-2.4797,-2.4792,-2.4842,-2.4896,-2.4929,-2.4942,-2.4936,-2.491,-2.491,-2.491,-2.4897,-2.4911,-2.4799,-2.462,-2.421,-2.4159,-2.4035,-2.378,-2.3476,-2.3091,-2.2817,-2.2219,-2.182,-2.1417,-2.0818,-2.031,-2.0355,-2.0395,-2.0407,-2.04,-2.0408,-2.0422,-2.0425,-2.0414,-2.0433,-2.0416,-2.0399,-2.0429,-2.3595,-2.3595,-2.3595,-2.3752,-2.4012,-2.4053,-2.4032,-2.4095,-2.4384,-2.4476,-2.4487,-2.3834,-2.3371,-2.3035,-2.1918,-2.1102,-2.1006,-2.1023,-2.1087,-2.1039,-2.0942,-2.1055,-2.1007,-2.0926,-2.1055,-2.1023,-2.1343,-2.1537,-2.1325,-2.1552,-2.1777,-2.1759,-2.1477,-2.1477,-2.1766,-2.1855,-2.1988,-2.1988,-2.2152,-2.2329,-2.2497,-2.2691,-2.2781,-2.2781,-2.2794,-2.2807,-2.2798,-2.2798,-2.2798,-2.284,-2.2903,-2.3105,-2.3165,-2.3247,-2.3224,-2.3224,-2.3236,-2.3189,-2.3177,-2.3153,-2.3141,-2.3141,-2.3177,-2.3277,-2.33,-2.3699,-2.386,-2.3923,-2.4247,-2.4303,-2.4303,-2.44,-2.4426,-2.4428,-2.4428,-2.4435,-2.4512,-2.4578,-2.4599,-2.4636,-2.4727,-2.4804,-2.4818,-2.4836,-2.4816,-2.4771,-2.4747,-2.4746,-2.4753,-2.4564,-2.4417,-2.4309,-2.4173,-2.4291,-2.4274,-2.3915,-2.3476,-2.3236,-2.3083,-2.2284,-2.1555,-2.0757,-2.0231,-2.0259,-2.0316,-2.0349,-2.0355,-2.0305,-2.0337,-2.0364,-2.0371,-2.0366,-2.0366,-2.0346,-2.0387,-2.3595,-2.3595,-2.3595,-2.3595,-2.3595,-2.3595,-2.3616,-2.3616,-2.3616,-2.3638,-2.3728,-2.3908,-2.3578,-2.2857,-2.205,-2.14,-2.0922,-2.063,-2.0698,-2.0747,-2.073,-2.0631,-2.0632,-2.0731,-2.0665,-2.079,-2.1073,-2.1048,-2.091,-2.108,-2.1077,-2.099,-2.0975,-2.0958,-2.1071,-2.1291,-2.1521,-2.1615,-2.1766,-2.202,-2.2135,-2.2254,-2.2349,-2.2335,-2.2237,-2.2237,-2.2282,-2.2237,-2.222,-2.2402,-2.2567,-2.273,-2.2895,-2.2945,-2.2965,-2.2952,-2.2928,-2.297,-2.3007,-2.2952,-2.2989,-2.3038,-2.3069,-2.3069,-2.3075,-2.3183,-2.3323,-2.3544,-2.3858,-2.4046,-2.4036,-2.4046,-2.4056,-2.4066,-2.4075,-2.4075,-2.4163,-2.422,-2.4265,-2.431,-2.4385,-2.4468,-2.4511,-2.4545,-2.4534,-2.4523,-2.4549,-2.4636,-2.4575,-2.4227,-2.3978,-2.3964,-2.3936,-2.4145,-2.4523,-2.4298,-2.3822,-2.3859,-2.3587,-2.2623,-2.1664,-2.0766,-2.0205,-2.0135,-2.019,-2.0203,-2.0199,-2.0137,-2.0192,-2.023,-2.018,-2.0149,-2.0188,-2.0186,-2.0288,-2.3595,-2.3595,-2.3595,-2.3595,-2.3595,-2.3595,-2.3595,-2.3595,-2.3595,-2.3595,-2.3599,-2.3522,-2.3076,-2.1918,-2.0643,-2.0119,-2.0369,-2.0146,-1.9995,-1.9942,-2.012,-2.0065,-2.0065,-2.0208,-1.9997,-2.0154,-2.0349,-2.0266,-2.0426,-2.0393,-2.0498,-2.0861,-2.0532,-2.0632,-2.0959,-2.1102,-2.1118,-2.1197,-2.1245,-2.1416,-2.1586,-2.1797,-2.2254,-2.218,-2.1928,-2.2046,-2.2106,-2.1882,-2.2001,-2.2192,-2.2349,-2.2426,-2.2535,-2.2584,-2.2598,-2.2638,-2.2611,-2.2541,-2.2541,-2.2581,-2.2607,-2.2412,-2.2426,-2.25,-2.255,-2.2673,-2.2815,-2.294,-2.3218,-2.3414,-2.3448,-2.3482,-2.3493,-2.3493,-2.3504,-2.3504,-2.3541,-2.3563,-2.3567,-2.3599,-2.3613,-2.3661,-2.3671,-2.3682,-2.3692,-2.3666,-2.3668,-2.3741,-2.3783,-2.3632,-2.353,-2.3583,-2.3653,-2.4137,-2.4534,-2.4481,-2.4208,-2.429,-2.4068,-2.3035,-2.1913,-2.0676,-2.0229,-2.0267,-2.0101,-2.0031,-2.0001,-1.9938,-1.9967,-1.9984,-1.9914,-1.9898,-1.9945,-2.0024,-2.0104]},{"header":{"parameterUnit":"m.s-1","parameterCategory":1,"la1":31.0,"la2":29.5877,"lo1":-88.7671,"lo2":-86.6584,"dy":0.0162,"dx":0.0185,"nx":115,"ny":88,"refTime":"2024-08-16T12:00:00:Z","depth":0,"parameterNumber":3,"parameterNumberName":"V-component_of_WINDS"},"data":[0.0,0.0,0.0,0.0,0.0,0.0,0.0,0.0,0.0,0.0,0.0,0.0,0.0,0.0,0.0,0.0,0.0,0.0,0.0,0.0,0.0,0.0,0.0,0.0,0.0,0.0,0.0,0.0,0.0,0.0,0.0,0.0,0.0,0.0,0.0,0.0,0.0,0.0,0.0,0.0,0.0,0.0,0.0,0.0,0.0,0.0,0.0,0.0,0.0,0.0,0.0,0.0,0.0,0.0,0.0,0.0,0.0,0.0,0.0,0.0,0.0,0.0,0.0,0.0,0.0,0.0,0.0,0.0,0.0,0.0,0.0,0.0,0.0,0.0,0.0,0.0,0.0,0.0,0.0,0.0,0.0,0.0,0.0,0.0,0.0,0.0,0.0,0.0,0.0,0.0,0.0,0.0,0.0,0.0,0.0,0.0,0.0,0.0,0.0,0.0,0.0,0.0,0.0,0.0,0.0,0.0,0.0,0.0,0.0,0.0,0.0,0.0,0.0,0.0,0.0,0.0,0.0,0.0,0.0,0.0,0.0,0.0,0.0,0.0,0.0,0.0,0.0,0.0,0.0,0.0,0.0,0.0,0.0,0.0,0.0,0.0,0.0,0.0,0.0,0.0,0.0,0.0,0.0,0.0,0.0,0.0,0.0,0.0,0.0,0.0,0.0,0.0,0.0,0.0,0.0,0.0,0.0,0.0,0.0,0.0,0.0,0.0,0.0,0.0,0.0,0.0,0.0,0.0,0.0,0.0,0.0,0.0,0.0,0.0,0.0,0.0,0.0,0.0,0.0,0.0,0.0,0.0,0.0,0.0,0.0,0.0,0.0,0.0,0.0,0.0,0.0,0.0,0.0,0.0,0.0,0.0,0.0,0.0,0.0,0.0,0.0,0.0,0.0,0.0,0.0,0.0,0.0,0.0,0.0,0.0,0.0,0.0,0.0,0.0,0.0,0.0,0.0,0.0,0.0,0.0,0.0,0.0,0.0,0.0,0.0,0.0,0.0,0.0,0.0,0.0,0.0,0.0,0.0,0.0,0.0,0.0,0.0,0.0,0.0,0.0,0.0,0.0,0.0,0.0,0.0,0.0,0.0,0.0,0.0,0.0,0.0,0.0,0.0,0.0,0.0,0.0,0.0,0.0,0.0,0.0,0.0,0.0,0.0,0.0,0.0,0.0,0.0,0.0,0.0,0.0,0.0,0.0,0.0,0.0,0.0,0.0,0.0,0.0,0.0,0.0,0.0,0.0,0.0,0.0,0.0,0.0,0.0,0.0,0.0,0.0,0.0,0.0,0.0,0.0,0.0,0.0,0.0,0.0,0.0,0.0,0.0,0.0,0.0,0.0,0.0,0.0,0.0,0.0,0.0,0.0,0.0,0.0,0.0,0.0,0.0,0.0,0.0,0.0,0.0,0.0,0.0,0.0,0.0,0.0,0.0,0.0,0.0,0.0,0.0,0.0,0.0,0.0,0.0,0.0,0.0,0.0,0.0,0.0,0.0,0.0,0.0,0.0,0.0,0.0,0.0,0.0,0.0,0.0,0.0,0.0,0.0,0.0,0.0,0.0,0.0,0.0,0.0,0.0,0.0,0.0,0.0,0.0,0.0,0.0,0.0,0.0,0.0,0.0,0.0,0.0,0.0,0.0,0.0,0.0,0.0,0.0,0.0,0.0,0.0,0.0,0.0,0.0,0.0,0.0,0.0,0.0,0.0,0.0,0.0,0.0,0.0,0.0,0.0,0.0,0.0,0.0,0.0,0.0,0.0,0.0,0.0,0.0,0.0,0.0,0.0,0.0,0.0,0.0,0.0,0.0,0.0,0.0,0.0,0.0,0.0,0.0,0.0,0.0,0.0,0.0,0.0,0.0,0.0,0.0,0.0,0.0,0.0,0.0,0.0,0.0,0.0,0.0,0.0,0.0,0.0,0.0,0.0,0.0,0.0,0.0,0.0,0.0,0.0,0.0,0.0,0.0,0.0,0.0,0.0,0.0,0.0,0.0,0.0,0.0,0.0,0.0,0.0,0.0,0.0,0.0,0.0,0.0,0.0,0.0,0.0,0.0,0.0,0.0,0.0,0.0,0.0,0.0,0.0,0.0,0.0,0.0,0.0,0.0,0.0,0.0,0.0,0.0,0.0,0.0,0.0,0.0,0.0,0.0,0.0,0.0,0.0,0.0,0.0,0.0,0.0,0.0,0.0,0.0,0.0,0.0,0.0,0.0,0.0,0.0,0.0,0.0,0.0,0.0,0.0,0.0,0.0,0.0,0.0,0.0,0.0,0.0,0.0,0.0,0.0,0.0,0.0,0.0,0.0,0.0,0.0,0.0,0.0,0.0,0.0,0.0,0.0,0.0,0.0,0.0,0.0,0.0,0.0,0.0,0.0,0.0,0.0,0.0,0.0,0.0,0.0,0.0,0.0,0.0,0.0,0.0,0.0,0.0,0.0,0.0,0.0,0.0,0.0,0.0,0.0,0.0,0.0,0.0,0.0,0.0,0.0,0.0,0.0,0.0,0.0,0.0,0.0,0.0,0.0,0.0,0.0,0.0,0.0,0.0,0.0,0.0,0.0,0.0,0.0,0.0,0.0,0.0,0.0,0.0,0.0,0.0,0.0,0.0,0.0,0.0,0.0,0.0,0.0,0.0,0.0,0.0,0.0,0.0,0.0,0.0,0.0,0.0,0.0,0.0,0.0,0.0,0.0,0.0,0.0,0.0,0.0,0.0,0.0,0.0,0.0,0.0,0.0,0.0,0.0,0.0,0.0,0.0,0.0,0.0,0.0,0.0,0.0,0.0,0.0,0.0,0.0,0.0,0.0,0.0,0.0,0.0,0.0,0.0,0.0,0.0,0.0,0.0,0.0,0.0,0.0,0.0,0.0,0.0,0.0,0.0,0.0,0.0,0.0,0.0,0.0,0.0,0.0,0.0,0.0,0.0,0.0,0.0,0.0,0.0,0.0,0.0,0.0,0.0,0.0,0.0,0.0,0.0,0.0,0.0,0.0,0.0,0.0,0.0,0.0,0.0,0.0,0.0,0.0,0.0,0.0,0.0,0.0,0.0,0.0,0.0,0.0,0.0,0.0,0.0,0.0,0.0,0.0,0.0,0.0,0.0,0.0,0.0,0.0,0.0,0.0,0.0,0.0,0.0,0.0,0.0,0.0,0.0,0.0,0.0,0.0,0.0,0.0,0.0,0.0,0.0,0.0,0.0,0.0,0.0,0.0,0.0,0.0,0.0,0.0,0.0,0.0,0.0,0.0,0.0,0.0,0.0,0.0,0.0,0.0,0.0,0.0,0.0,0.0,0.0,0.0,0.0,0.0,0.0,0.0,0.0,0.0,0.0,0.0,0.0,0.0,0.0,0.0,0.0,0.0,0.0,0.0,0.0,0.0,0.0,0.0,0.0,0.0,0.0,0.0,0.0,0.0,0.0,0.0,0.0,0.0,0.0,0.0,0.0,0.0,0.0,0.0,0.0,0.0,0.0,0.0,0.0,0.0,0.0,0.0,0.0,0.0,0.0,0.0,0.0,0.0,0.0,0.0,0.0,0.0,0.0,0.0,0.0,0.0,0.0,0.0,0.0,0.0,0.0,0.0,0.0,0.0,0.0,0.0,0.0,0.0,0.0,0.0,0.0,0.0,0.0,0.0,0.0,0.0,0.0,0.0,0.0,0.0,0.0,0.0,0.0,0.0,0.0,0.0,0.0,0.0,0.0,0.0,0.0,0.0,0.0,0.0,0.0,0.0,0.0,0.0,0.0,0.0,0.0,0.0,0.0,0.0,0.0,0.0,0.0,0.0,0.0,0.0,0.0,0.0,0.0,0.0,0.0,0.0,0.0,0.0,0.0,0.0,0.0,0.0,0.0,0.0,0.0,0.0,0.0,0.0,0.0,0.0,0.0,0.0,0.0,0.0,0.0,0.0,0.0,0.0,0.0,0.0,0.0,0.0,0.0,0.0,0.0,0.0,0.0,0.0,0.0,0.0,0.0,0.0,0.0,0.0,0.0,0.0,0.0,0.0,0.0,0.0,0.0,0.0,0.0,0.0,0.0,0.0,0.0,0.0,0.0,0.0,0.0,0.0,0.0,0.0,0.0,0.0,0.0,0.0,0.0,0.0,0.0,0.0,0.0,0.0,0.0,0.0,0.0,0.0,0.0,0.0,0.0,0.0,0.0,0.0,0.0,0.0,0.0,0.0,0.0,0.0,0.0,0.0,0.0,0.0,0.0,0.0,0.0,0.0,0.0,0.0,0.0,0.0,0.0,0.0,0.0,-1.3191,0.0,0.0,0.0,0.0,0.0,0.0,0.0,0.0,0.0,0.0,0.0,0.0,0.0,0.0,0.0,0.0,0.0,0.0,0.0,0.0,0.0,0.0,0.0,0.0,0.0,0.0,0.0,0.0,0.0,0.0,0.0,0.0,0.0,0.0,0.0,0.0,0.0,0.0,0.0,0.0,0.0,0.0,0.0,0.0,0.0,0.0,0.0,0.0,0.0,0.0,0.0,0.0,0.0,0.0,0.0,0.0,0.0,0.0,0.0,0.0,0.0,0.0,0.0,0.0,0.0,0.0,0.0,0.0,0.0,0.0,0.0,0.0,0.0,0.0,0.0,0.0,0.0,0.0,0.0,0.0,0.0,0.0,0.0,0.0,0.0,0.0,0.0,0.0,0.0,0.0,0.0,0.0,0.0,0.0,0.0,0.0,0.0,0.0,0.0,0.0,0.0,0.0,0.0,0.0,0.0,0.0,0.0,0.0,0.0,0.0,-1.1676,-1.1757,-1.2302,-1.2724,-1.3029,0.0,0.0,0.0,0.0,0.0,0.0,0.0,0.0,0.0,0.0,0.0,0.0,0.0,0.0,0.0,0.0,0.0,0.0,0.0,0.0,0.0,0.0,0.0,0.0,0.0,0.0,0.0,0.0,0.0,0.0,0.0,0.0,0.0,0.0,0.0,0.0,0.0,0.0,0.0,0.0,0.0,0.0,0.0,0.0,0.0,0.0,0.0,0.0,0.0,0.0,0.0,0.0,0.0,0.0,0.0,0.0,0.0,0.0,0.0,0.0,0.0,0.0,0.0,0.0,0.0,0.0,0.0,0.0,0.0,0.0,0.0,0.0,0.0,0.0,0.0,0.0,0.0,0.0,0.0,0.0,0.0,0.0,0.0,0.0,0.0,0.0,0.0,0.0,0.0,0.0,0.0,0.0,0.0,0.0,0.0,0.0,0.0,0.0,0.0,0.0,0.0,0.0,0.0,0.0,0.0,0.0,0.0,0.0,0.0,0.0,0.0,0.0,-1.2705,-1.313,-1.2872,0.0,0.0,0.0,0.0,0.0,0.0,0.0,0.0,0.0,0.0,0.0,0.0,0.0,0.0,0.0,0.0,0.0,0.0,0.0,0.0,0.0,0.0,0.0,0.0,0.0,0.0,0.0,0.0,0.0,0.0,0.0,0.0,0.0,0.0,0.0,0.0,0.0,0.0,0.0,0.0,0.0,0.0,0.0,0.0,0.0,0.0,0.0,0.0,0.0,0.0,0.0,0.0,0.0,0.0,0.0,0.0,0.0,0.0,0.0,0.0,0.0,0.0,0.0,0.0,0.0,0.0,0.0,0.0,0.0,0.0,0.0,0.0,0.0,0.0,0.0,0.0,0.0,0.0,0.0,0.0,0.0,0.0,0.0,0.0,0.0,0.0,0.0,0.0,0.0,0.0,0.0,0.0,0.0,0.0,0.0,0.0,0.0,0.0,0.0,0.0,0.0,0.0,0.0,0.0,0.0,0.0,0.0,0.0,0.0,0.0,-1.1848,-1.2674,-1.2811,0.0,-1.3076,0.0,0.0,0.0,0.0,0.0,0.0,0.0,0.0,0.0,0.0,0.0,0.0,0.0,0.0,0.0,0.0,0.0,0.0,0.0,0.0,0.0,0.0,0.0,0.0,0.0,0.0,0.0,0.0,0.0,0.0,0.0,0.0,0.0,0.0,0.0,0.0,0.0,0.0,0.0,0.0,0.0,0.0,0.0,0.0,0.0,0.0,0.0,0.0,0.0,0.0,0.0,0.0,0.0,0.0,0.0,0.0,0.0,0.0,0.0,0.0,0.0,0.0,0.0,0.0,0.0,0.0,0.0,0.0,0.0,0.0,0.0,0.0,0.0,0.0,0.0,0.0,0.0,0.0,0.0,0.0,0.0,0.0,0.0,0.0,0.0,0.0,0.0,0.0,0.0,0.0,0.0,0.0,0.0,0.0,0.0,0.0,0.0,0.0,0.0,0.0,0.0,0.0,0.0,0.0,0.0,0.0,0.0,0.0,0.0,0.0,-1.2291,-1.3006,-1.3158,-1.314,0.0,0.0,0.0,0.0,0.0,0.0,0.0,0.0,0.0,0.0,0.0,0.0,0.0,0.0,0.0,0.0,0.0,0.0,0.0,0.0,0.0,0.0,0.0,0.0,0.0,0.0,0.0,0.0,0.0,0.0,0.0,0.0,0.0,0.0,0.0,0.0,0.0,0.0,0.0,0.0,0.0,0.0,0.0,0.0,0.0,0.0,0.0,0.0,0.0,0.0,0.0,0.0,0.0,0.0,0.0,0.0,0.0,0.0,0.0,0.0,0.0,0.0,0.0,0.0,0.0,0.0,0.0,0.0,0.0,0.0,0.0,0.0,0.0,0.0,0.0,0.0,0.0,0.0,0.0,0.0,0.0,0.0,0.0,0.0,0.0,0.0,0.0,0.0,0.0,0.0,0.0,0.0,0.0,0.0,0.0,0.0,0.0,0.0,0.0,0.0,0.0,0.0,0.0,0.0,0.0,0.0,0.0,0.0,0.0,0.0,-1.2171,0.0,-1.342,-1.3898,-1.3837,-1.3162,0.0,0.0,0.0,0.0,0.0,0.0,0.0,0.0,0.0,0.0,0.0,0.0,0.0,0.0,0.0,0.0,0.0,0.0,0.0,0.0,0.0,0.0,0.0,0.0,0.0,0.0,0.0,0.0,0.0,0.0,0.0,0.0,0.0,0.0,0.0,0.0,0.0,0.0,0.0,0.0,0.0,0.0,0.0,0.0,0.0,0.0,0.0,0.0,0.0,0.0,0.0,0.0,0.0,0.0,0.0,0.0,0.0,0.0,0.0,0.0,0.0,0.0,0.0,0.0,0.0,0.0,0.0,0.0,0.0,0.0,0.0,0.0,0.0,0.0,0.0,0.0,0.0,0.0,0.0,0.0,0.0,0.0,0.0,0.0,0.0,0.0,0.0,0.0,0.0,0.0,0.0,0.0,0.0,0.0,0.0,0.0,0.0,0.0,0.0,0.0,0.0,0.0,0.0,0.0,0.0,0.0,0.0,0.0,0.0,-1.2585,-1.2866,-1.4057,-1.5182,-1.505,0.0,0.0,0.0,0.0,0.0,0.0,0.0,0.0,0.0,0.0,0.0,0.0,0.0,0.0,0.0,0.0,0.0,0.0,0.0,0.0,0.0,0.0,0.0,0.0,0.0,0.0,0.0,0.0,0.0,0.0,0.0,0.0,0.0,0.0,0.0,0.0,0.0,0.0,0.0,0.0,0.0,0.0,0.0,0.0,0.0,0.0,0.0,0.0,0.0,0.0,0.0,0.0,0.0,0.0,0.0,0.0,0.0,0.0,0.0,0.0,0.0,0.0,0.0,0.0,0.0,0.0,0.0,0.0,0.0,0.0,0.0,0.0,0.0,0.0,0.0,0.0,0.0,0.0,0.0,0.0,0.0,0.0,0.0,0.0,0.0,0.0,0.0,0.0,0.0,0.0,0.0,0.0,0.0,0.0,0.0,0.0,0.0,0.0,0.0,0.0,0.0,0.0,0.0,0.0,0.0,0.0,0.0,0.0,0.0,-1.2037,-1.2741,-1.3686,-1.483,-1.4276,-1.395,0.0,0.0,0.0,0.0,0.0,0.0,0.0,0.0,0.0,0.0,0.0,0.0,0.0,0.0,0.0,0.0,0.0,0.0,0.0,0.0,0.0,0.0,0.0,0.0,0.0,0.0,0.0,0.0,0.0,0.0,0.0,0.0,0.0,0.0,0.0,0.0,0.0,0.0,0.0,0.0,0.0,0.0,0.0,0.0,0.0,0.0,0.0,0.0,0.0,0.0,0.0,0.0,0.0,0.0,0.0,0.0,0.0,0.0,0.0,0.0,0.0,0.0,0.0,0.0,0.0,0.0,0.0,0.0,0.0,0.0,0.0,0.0,0.0,0.0,0.0,0.0,0.0,0.0,0.0,0.0,0.0,0.0,0.0,0.0,0.0,0.0,0.0,0.0,0.0,0.0,0.0,0.0,0.0,0.0,0.0,0.0,0.0,0.0,0.0,0.0,0.0,0.0,0.0,0.0,0.0,0.0,0.0,0.0,0.0,-1.1968,0.0,-1.3918,0.0,-1.3721,-1.3259,0.0,0.0,0.0,0.0,0.0,0.0,0.0,0.0,0.0,0.0,0.0,0.0,0.0,0.0,0.0,0.0,0.0,0.0,0.0,0.0,0.0,0.0,0.0,0.0,0.0,0.0,0.0,0.0,0.0,0.0,0.0,0.0,0.0,0.0,0.0,0.0,0.0,0.0,0.0,0.0,0.0,0.0,0.0,0.0,0.0,0.0,0.0,0.0,0.0,0.0,0.0,0.0,0.0,0.0,0.0,0.0,0.0,0.0,0.0,0.0,0.0,0.0,0.0,0.0,0.0,0.0,0.0,0.0,0.0,0.0,0.0,0.0,0.0,0.0,0.0,0.0,0.0,0.0,0.0,0.0,0.0,0.0,0.0,0.0,0.0,0.0,0.0,0.0,0.0,0.0,0.0,0.0,0.0,0.0,0.0,0.0,0.0,0.0,0.0,0.0,0.0,0.0,0.0,0.0,0.0,0.0,0.0,0.0,-1.2233,-1.314,-1.3077,-1.3439,-1.4093,-1.3801,-1.3301,0.0,0.0,0.0,0.0,0.0,0.0,0.0,0.0,0.0,0.0,0.0,0.0,0.0,0.0,0.0,0.0,0.0,0.0,0.0,0.0,0.0,0.0,0.0,0.0,0.0,0.0,0.0,0.0,0.0,0.0,0.0,0.0,0.0,0.0,0.0,0.0,0.0,0.0,0.0,0.0,0.0,0.0,0.0,0.0,0.0,0.0,0.0,0.0,0.0,0.0,0.0,0.0,0.0,0.0,0.0,0.0,0.0,0.0,0.0,0.0,0.0,0.0,0.0,0.0,0.0,0.0,0.0,0.0,0.0,0.0,0.0,0.0,0.0,0.0,0.0,0.0,0.0,0.0,0.0,0.0,0.0,0.0,0.0,0.0,0.0,0.0,0.0,0.0,0.0,0.0,0.0,0.0,0.0,0.0,0.0,0.0,0.0,0.0,0.0,0.0,0.0,0.0,0.0,0.0,0.0,0.0,0.0,0.0,0.0,-1.3206,-1.376,-1.4351,-1.4943,-1.3921,-1.3621,0.0,0.0,0.0,0.0,0.0,0.0,0.0,0.0,0.0,0.0,0.0,0.0,0.0,0.0,0.0,0.0,0.0,0.0,0.0,0.0,0.0,0.0,0.0,0.0,0.0,0.0,0.0,0.0,0.0,0.0,0.0,0.0,0.0,0.0,0.0,0.0,0.0,0.0,0.0,0.0,0.0,0.0,0.0,0.0,0.0,0.0,0.0,0.0,0.0,0.0,0.0,0.0,0.0,0.0,0.0,0.0,0.0,0.0,0.0,0.0,0.0,0.0,0.0,0.0,0.0,0.0,0.0,0.0,0.0,0.0,0.0,0.0,0.0,0.0,0.0,0.0,0.0,0.0,0.0,0.0,0.0,0.0,0.0,0.0,0.0,0.0,0.0,0.0,0.0,0.0,0.0,0.0,0.0,0.0,0.0,0.0,0.0,0.0,0.0,0.0,0.0,0.0,0.0,0.0,0.0,0.0,0.0,0.0,0.0,-1.3714,-1.4062,-1.4611,-1.5231,-1.4021,-1.3747,-1.4584,0.0,0.0,0.0,0.0,0.0,0.0,0.0,0.0,0.0,0.0,0.0,0.0,0.0,0.0,0.0,0.0,0.0,0.0,0.0,0.0,0.0,0.0,0.0,0.0,0.0,0.0,0.0,0.0,0.0,0.0,0.0,0.0,0.0,0.0,0.0,0.0,0.0,0.0,0.0,0.0,0.0,0.0,0.0,0.0,0.0,0.0,0.0,0.0,0.0,0.0,0.0,0.0,0.0,0.0,0.0,0.0,0.0,0.0,0.0,0.0,0.0,0.0,0.0,0.0,0.0,0.0,0.0,0.0,0.0,0.0,0.0,0.0,0.0,0.0,0.0,0.0,0.0,0.0,0.0,0.0,0.0,0.0,0.0,0.0,0.0,0.0,0.0,0.0,0.0,0.0,0.0,0.0,0.0,0.0,0.0,0.0,0.0,0.0,0.0,0.0,0.0,0.0,0.0,0.0,0.0,0.0,0.0,0.0,-1.4502,-1.4189,-1.4362,-1.503,-1.4168,-1.3839,0.0,0.0,0.0,0.0,0.0,0.0,0.0,0.0,0.0,0.0,0.0,0.0,0.0,0.0,0.0,0.0,0.0,0.0,0.0,0.0,0.0,0.0,0.0,0.0,0.0,0.0,0.0,0.0,0.0,0.0,0.0,0.0,0.0,0.0,0.0,0.0,0.0,0.0,0.0,0.0,0.0,0.0,0.0,0.0,0.0,0.0,0.0,0.0,0.0,0.0,0.0,0.0,0.0,0.0,0.0,0.0,0.0,0.0,0.0,0.0,0.0,0.0,0.0,0.0,0.0,0.0,0.0,0.0,0.0,0.0,0.0,0.0,0.0,0.0,0.0,0.0,0.0,0.0,0.0,0.0,0.0,0.0,0.0,0.0,0.0,0.0,0.0,0.0,0.0,0.0,0.0,0.0,0.0,0.0,0.0,0.0,0.0,0.0,0.0,0.0,0.0,0.0,0.0,0.0,0.0,0.0,0.0,0.0,0.0,-1.4559,-1.5041,-1.5414,-1.5545,-1.4705,-1.4745,0.0,0.0,0.0,0.0,0.0,0.0,0.0,0.0,0.0,0.0,0.0,0.0,0.0,0.0,0.0,0.0,0.0,0.0,0.0,0.0,0.0,0.0,0.0,0.0,0.0,0.0,0.0,0.0,0.0,0.0,0.0,0.0,0.0,0.0,0.0,0.0,0.0,0.0,0.0,0.0,0.0,0.0,0.0,0.0,0.0,0.0,0.0,0.0,0.0,0.0,0.0,0.0,0.0,0.0,0.0,0.0,0.0,0.0,0.0,0.0,0.0,0.0,0.0,0.0,0.0,0.0,0.0,0.0,0.0,0.0,0.0,0.0,0.0,0.0,0.0,0.0,0.0,0.0,0.0,0.0,0.0,0.0,0.0,0.0,0.0,0.0,0.0,0.0,0.0,0.0,0.0,0.0,0.0,0.0,0.0,0.0,0.0,0.0,0.0,0.0,0.0,0.0,0.0,0.0,0.0,0.0,0.0,0.0,-1.6194,-1.4921,-1.5458,-1.5825,-1.5825,-1.5104,-1.5198,0.0,0.0,0.0,0.0,0.0,0.0,0.0,0.0,0.0,0.0,0.0,0.0,0.0,0.0,0.0,0.0,0.0,0.0,0.0,0.0,0.0,0.0,0.0,0.0,0.0,0.0,0.0,0.0,0.0,0.0,0.0,0.0,0.0,0.0,0.0,0.0,0.0,0.0,0.0,0.0,0.0,0.0,0.0,0.0,0.0,0.0,0.0,0.0,0.0,0.0,0.0,0.0,0.0,0.0,0.0,0.0,0.0,0.0,0.0,0.0,0.0,0.0,0.0,0.0,0.0,0.0,0.0,0.0,0.0,0.0,0.0,0.0,0.0,0.0,0.0,0.0,0.0,0.0,0.0,0.0,0.0,0.0,0.0,0.0,0.0,0.0,0.0,0.0,0.0,0.0,0.0,0.0,0.0,0.0,0.0,0.0,0.0,0.0,0.0,0.0,0.0,0.0,0.0,0.0,0.0,0.0,0.0,0.0,-1.685,-1.5383,-1.5665,-1.5825,-1.5812,-1.5297,-1.5439,0.0,0.0,0.0,0.0,0.0,0.0,0.0,0.0,0.0,0.0,0.0,0.0,0.0,0.0,0.0,0.0,0.0,0.0,0.0,0.0,0.0,0.0,0.0,0.0,0.0,0.0,0.0,0.0,0.0,0.0,0.0,0.0,0.0,0.0,0.0,0.0,0.0,0.0,0.0,0.0,0.0,0.0,0.0,0.0,0.0,0.0,0.0,0.0,0.0,0.0,0.0,0.0,0.0,0.0,0.0,0.0,0.0,0.0,0.0,0.0,0.0,0.0,0.0,0.0,0.0,0.0,0.0,0.0,0.0,0.0,0.0,0.0,0.0,0.0,0.0,0.0,0.0,0.0,0.0,0.0,0.0,0.0,0.0,0.0,0.0,0.0,0.0,0.0,0.0,0.0,0.0,0.0,0.0,0.0,0.0,0.0,0.0,0.0,0.0,0.0,0.0,0.0,0.0,0.0,0.0,0.0,0.0,0.0,-1.6779,-1.514,-1.5565,-1.5825,-1.5825,-1.5484,-1.5788,0.0,0.0,0.0,0.0,0.0,0.0,0.0,0.0,0.0,0.0,0.0,0.0,0.0,0.0,0.0,0.0,0.0,0.0,0.0,0.0,0.0,0.0,0.0,0.0,0.0,0.0,0.0,0.0,0.0,0.0,0.0,0.0,0.0,0.0,0.0,0.0,0.0,0.0,0.0,0.0,0.0,0.0,0.0,0.0,0.0,0.0,0.0,0.0,-1.4152,0.0,0.0,0.0,0.0,0.0,0.0,0.0,0.0,0.0,0.0,0.0,0.0,0.0,0.0,0.0,0.0,0.0,0.0,0.0,0.0,0.0,0.0,0.0,0.0,0.0,0.0,0.0,0.0,0.0,0.0,0.0,0.0,0.0,0.0,0.0,0.0,0.0,0.0,0.0,0.0,0.0,0.0,0.0,0.0,0.0,0.0,0.0,0.0,0.0,0.0,0.0,0.0,0.0,0.0,0.0,0.0,0.0,0.0,0.0,-1.6692,-1.5463,-1.5671,-1.5825,-1.5771,-1.5678,-1.5991,0.0,0.0,0.0,0.0,0.0,0.0,0.0,0.0,0.0,0.0,0.0,0.0,0.0,0.0,0.0,0.0,0.0,0.0,0.0,0.0,0.0,0.0,0.0,0.0,0.0,0.0,0.0,0.0,0.0,0.0,0.0,0.0,0.0,0.0,0.0,0.0,0.0,0.0,0.0,0.0,0.0,0.0,0.0,0.0,0.0,0.0,0.0,0.0,0.0,0.0,0.0,0.0,0.0,0.0,0.0,0.0,0.0,0.0,0.0,0.0,0.0,0.0,0.0,0.0,0.0,0.0,0.0,0.0,0.0,0.0,0.0,0.0,0.0,0.0,0.0,0.0,0.0,0.0,0.0,0.0,0.0,0.0,0.0,0.0,0.0,0.0,0.0,0.0,0.0,0.0,0.0,0.0,0.0,0.0,0.0,0.0,0.0,0.0,0.0,0.0,0.0,0.0,0.0,0.0,0.0,0.0,0.0,-1.6513,-1.6464,-1.5852,-1.5825,-1.5825,-1.5825,-1.592,-1.6218,-1.6757,0.0,0.0,0.0,0.0,0.0,0.0,0.0,0.0,0.0,0.0,0.0,0.0,0.0,0.0,0.0,0.0,0.0,0.0,0.0,0.0,0.0,0.0,0.0,0.0,0.0,0.0,0.0,0.0,0.0,0.0,0.0,0.0,0.0,0.0,0.0,0.0,0.0,0.0,-1.6978,-1.5208,0.0,0.0,0.0,0.0,0.0,0.0,0.0,0.0,-1.6758,0.0,0.0,0.0,0.0,0.0,0.0,0.0,0.0,0.0,0.0,0.0,0.0,0.0,0.0,0.0,0.0,0.0,0.0,0.0,0.0,0.0,0.0,0.0,0.0,0.0,0.0,0.0,0.0,0.0,0.0,0.0,0.0,0.0,0.0,0.0,0.0,0.0,0.0,0.0,0.0,0.0,0.0,0.0,0.0,0.0,0.0,0.0,0.0,0.0,0.0,0.0,0.0,0.0,0.0,0.0,0.0,-1.7252,-1.6403,-1.5907,-1.5792,-1.5825,-1.5825,-1.5818,-1.644,-1.6674,-1.6397,0.0,0.0,0.0,0.0,0.0,0.0,0.0,0.0,0.0,0.0,0.0,0.0,0.0,0.0,0.0,0.0,0.0,0.0,0.0,0.0,0.0,0.0,0.0,0.0,0.0,0.0,0.0,0.0,0.0,0.0,0.0,0.0,0.0,0.0,0.0,0.0,0.0,0.0,0.0,-1.6127,-1.5641,0.0,0.0,0.0,0.0,0.0,0.0,0.0,0.0,-1.8792,0.0,0.0,0.0,0.0,0.0,0.0,0.0,0.0,0.0,0.0,0.0,0.0,0.0,0.0,0.0,0.0,0.0,0.0,0.0,0.0,0.0,0.0,0.0,0.0,0.0,0.0,0.0,0.0,0.0,0.0,0.0,0.0,0.0,0.0,0.0,0.0,0.0,0.0,0.0,0.0,0.0,0.0,0.0,0.0,0.0,0.0,0.0,0.0,0.0,0.0,0.0,0.0,0.0,0.0,0.0,-1.6469,-1.5902,-1.5632,-1.5798,-1.5825,-1.5711,-1.5598,-1.6086,-1.6242,0.0,0.0,0.0,0.0,0.0,0.0,0.0,0.0,0.0,0.0,0.0,0.0,0.0,0.0,0.0,0.0,0.0,0.0,0.0,0.0,0.0,0.0,0.0,0.0,0.0,0.0,0.0,0.0,0.0,0.0,0.0,0.0,0.0,0.0,0.0,0.0,0.0,0.0,0.0,0.0,-1.6556,-1.625,-1.5737,0.0,0.0,0.0,0.0,0.0,0.0,-1.8979,-1.9843,0.0,0.0,0.0,0.0,0.0,0.0,0.0,0.0,0.0,0.0,0.0,0.0,0.0,0.0,0.0,0.0,0.0,0.0,0.0,0.0,0.0,0.0,0.0,0.0,0.0,0.0,0.0,0.0,0.0,0.0,0.0,0.0,0.0,0.0,0.0,0.0,0.0,0.0,0.0,0.0,0.0,0.0,0.0,0.0,0.0,0.0,0.0,0.0,0.0,0.0,0.0,0.0,0.0,0.0,0.0,-1.5573,-1.5241,-1.5271,-1.5712,-1.5685,-1.5631,-1.5657,-1.5886,-1.5991,0.0,0.0,0.0,0.0,0.0,0.0,0.0,0.0,0.0,0.0,0.0,0.0,0.0,0.0,0.0,0.0,0.0,0.0,0.0,0.0,0.0,0.0,0.0,0.0,0.0,0.0,0.0,0.0,0.0,0.0,0.0,0.0,0.0,0.0,0.0,0.0,0.0,0.0,0.0,0.0,0.0,-1.7129,-1.6732,-1.7344,0.0,0.0,0.0,0.0,-1.9521,-2.0333,0.0,0.0,0.0,0.0,0.0,0.0,0.0,0.0,0.0,0.0,0.0,0.0,0.0,0.0,0.0,0.0,0.0,0.0,0.0,0.0,0.0,0.0,0.0,0.0,0.0,0.0,0.0,0.0,0.0,0.0,0.0,0.0,0.0,0.0,0.0,0.0,0.0,0.0,0.0,0.0,0.0,0.0,0.0,0.0,0.0,0.0,0.0,0.0,0.0,0.0,0.0,0.0,0.0,0.0,0.0,0.0,-1.5494,-1.4405,-1.4369,-1.5371,-1.5236,-1.5518,-1.6426,-1.6775,-1.6857,0.0,0.0,0.0,0.0,0.0,0.0,0.0,0.0,0.0,0.0,0.0,0.0,0.0,0.0,0.0,0.0,0.0,0.0,0.0,0.0,0.0,0.0,0.0,0.0,0.0,0.0,0.0,0.0,0.0,0.0,0.0,0.0,0.0,0.0,0.0,0.0,0.0,0.0,0.0,0.0,0.0,-1.9137,-1.8195,-1.8044,-1.8483,0.0,0.0,-2.0247,-2.0926,-2.15,0.0,0.0,0.0,0.0,0.0,0.0,0.0,0.0,0.0,0.0,0.0,0.0,0.0,0.0,0.0,0.0,0.0,0.0,0.0,0.0,0.0,0.0,0.0,0.0,0.0,0.0,0.0,0.0,0.0,0.0,0.0,0.0,0.0,0.0,0.0,0.0,0.0,0.0,0.0,0.0,0.0,0.0,0.0,0.0,0.0,0.0,0.0,0.0,0.0,0.0,0.0,0.0,0.0,0.0,0.0,-1.4258,-1.5324,-1.4567,-1.4759,-1.6029,-1.5974,-1.6206,-1.6849,-1.7183,-1.6834,0.0,0.0,0.0,0.0,0.0,0.0,0.0,0.0,0.0,0.0,0.0,0.0,0.0,0.0,0.0,0.0,0.0,0.0,0.0,0.0,0.0,0.0,0.0,0.0,0.0,0.0,0.0,0.0,0.0,0.0,0.0,0.0,0.0,0.0,0.0,0.0,0.0,0.0,0.0,0.0,0.0,0.0,-1.971,-2.0156,0.0,0.0,0.0,-2.1996,-2.261,0.0,0.0,0.0,0.0,0.0,0.0,0.0,0.0,0.0,0.0,0.0,0.0,0.0,0.0,0.0,0.0,0.0,0.0,0.0,0.0,0.0,0.0,0.0,0.0,0.0,0.0,0.0,0.0,0.0,0.0,0.0,0.0,0.0,0.0,0.0,0.0,0.0,0.0,0.0,0.0,0.0,0.0,0.0,0.0,0.0,0.0,0.0,0.0,0.0,0.0,0.0,0.0,0.0,0.0,0.0,0.0,0.0,-1.5414,-1.5161,-1.5647,-1.6837,-1.6736,-1.6878,-1.7371,-1.7296,0.0,0.0,0.0,0.0,0.0,0.0,0.0,0.0,0.0,0.0,0.0,0.0,0.0,0.0,0.0,0.0,0.0,0.0,0.0,0.0,0.0,0.0,0.0,0.0,0.0,0.0,0.0,-1.5171,0.0,0.0,0.0,0.0,0.0,0.0,0.0,0.0,0.0,0.0,0.0,0.0,0.0,0.0,-2.1349,-2.1125,-2.183,-2.2609,0.0,0.0,-2.3379,-2.3594,-2.3447,-2.3033,0.0,0.0,0.0,0.0,0.0,0.0,0.0,0.0,0.0,0.0,0.0,0.0,0.0,0.0,0.0,0.0,0.0,0.0,0.0,0.0,0.0,0.0,0.0,0.0,0.0,0.0,0.0,0.0,0.0,0.0,0.0,0.0,0.0,0.0,0.0,0.0,0.0,0.0,0.0,0.0,0.0,0.0,0.0,0.0,0.0,0.0,0.0,0.0,0.0,0.0,0.0,0.0,0.0,0.0,0.0,-1.6105,-1.64,-1.6912,-1.7653,-1.7033,-1.7178,-1.8148,-1.708,-1.6508,0.0,0.0,0.0,0.0,0.0,0.0,0.0,0.0,0.0,0.0,0.0,0.0,0.0,0.0,0.0,0.0,0.0,0.0,0.0,0.0,0.0,0.0,0.0,0.0,0.0,0.0,0.0,0.0,0.0,0.0,0.0,0.0,0.0,0.0,0.0,0.0,0.0,0.0,0.0,0.0,0.0,-2.2353,-2.2454,-2.2416,-2.2858,0.0,0.0,-2.3613,-2.3242,-2.3506,-2.334,-2.2129,0.0,0.0,0.0,0.0,0.0,0.0,0.0,0.0,0.0,0.0,0.0,0.0,0.0,0.0,0.0,0.0,0.0,0.0,0.0,0.0,0.0,0.0,0.0,0.0,0.0,0.0,0.0,0.0,0.0,0.0,0.0,0.0,0.0,0.0,0.0,0.0,0.0,0.0,0.0,0.0,0.0,0.0,0.0,0.0,0.0,0.0,0.0,0.0,0.0,0.0,0.0,0.0,0.0,-1.4833,-1.5537,-1.6032,-1.6738,-1.7687,-1.7457,-1.7678,-1.8458,-1.7776,-1.7054,0.0,0.0,0.0,0.0,0.0,0.0,0.0,0.0,0.0,0.0,0.0,0.0,0.0,0.0,0.0,0.0,0.0,0.0,0.0,0.0,0.0,0.0,0.0,0.0,0.0,0.0,0.0,0.0,-1.6248,-1.7073,-1.8018,0.0,0.0,0.0,0.0,0.0,0.0,0.0,0.0,0.0,0.0,-2.2991,-2.3292,-2.3275,0.0,0.0,-2.3838,-2.3428,-2.3525,-2.3403,-2.3135,-2.2383,-2.2275,0.0,0.0,0.0,0.0,0.0,0.0,0.0,0.0,0.0,0.0,0.0,0.0,0.0,0.0,0.0,0.0,0.0,0.0,0.0,0.0,0.0,0.0,0.0,0.0,0.0,0.0,0.0,0.0,0.0,0.0,0.0,0.0,0.0,0.0,0.0,0.0,0.0,0.0,0.0,0.0,0.0,0.0,0.0,0.0,0.0,0.0,0.0,0.0,0.0,0.0,0.0,0.0,-1.5036,-1.5597,-1.636,-1.7261,-1.8165,-1.8036,-1.817,-1.8562,-1.7944,-1.7139,0.0,0.0,0.0,0.0,0.0,0.0,0.0,0.0,0.0,0.0,0.0,0.0,0.0,0.0,0.0,0.0,0.0,0.0,0.0,0.0,0.0,0.0,0.0,0.0,0.0,0.0,0.0,0.0,-1.6703,-1.7498,-1.849,0.0,0.0,0.0,0.0,0.0,0.0,0.0,0.0,0.0,0.0,-2.3501,-2.375,-2.3789,-2.3887,-2.418,-2.3569,-2.3198,-2.3545,-2.335,-2.2955,-2.2578,0.0,0.0,0.0,0.0,0.0,0.0,0.0,0.0,0.0,0.0,0.0,0.0,0.0,0.0,0.0,0.0,0.0,0.0,0.0,0.0,0.0,0.0,0.0,0.0,0.0,0.0,0.0,0.0,0.0,0.0,0.0,0.0,0.0,0.0,0.0,0.0,0.0,0.0,0.0,0.0,0.0,0.0,0.0,0.0,0.0,0.0,0.0,0.0,0.0,0.0,0.0,0.0,0.0,-1.5799,-1.6655,-1.7808,-1.8741,-1.9192,-1.8786,-1.8553,-1.8549,-1.7389,-1.6543,-1.6075,0.0,0.0,0.0,0.0,0.0,0.0,0.0,0.0,0.0,0.0,0.0,0.0,0.0,0.0,0.0,0.0,0.0,0.0,0.0,0.0,0.0,0.0,0.0,0.0,0.0,0.0,-1.6125,-1.7195,-1.8071,0.0,0.0,0.0,0.0,0.0,0.0,0.0,0.0,0.0,0.0,-2.3232,-2.3769,-2.3779,-2.3789,-2.3779,-2.3799,-2.3383,-2.3101,-2.312,-2.311,-2.2955,0.0,0.0,0.0,0.0,0.0,0.0,0.0,0.0,0.0,0.0,0.0,0.0,0.0,0.0,0.0,0.0,0.0,0.0,0.0,0.0,0.0,0.0,0.0,0.0,0.0,0.0,0.0,-1.1196,-1.0695,0.0,0.0,0.0,0.0,0.0,0.0,0.0,0.0,0.0,0.0,0.0,-1.1491,-1.1966,0.0,0.0,0.0,0.0,0.0,0.0,0.0,0.0,0.0,0.0,0.0,0.0,-1.5703,-1.6318,-1.7568,-1.8291,-1.8428,-1.8027,-1.7803,-1.7793,-1.6826,-1.5977,-1.5263,0.0,0.0,0.0,0.0,0.0,0.0,0.0,0.0,0.0,0.0,0.0,0.0,0.0,0.0,0.0,0.0,0.0,0.0,0.0,0.0,0.0,0.0,0.0,0.0,0.0,-1.6125,0.0,0.0,0.0,0.0,0.0,0.0,0.0,0.0,0.0,0.0,0.0,-2.1875,-2.2432,-2.2955,-2.3315,-2.3315,-2.3359,-2.3305,0.0,0.0,0.0,0.0,0.0,0.0,0.0,0.0,0.0,0.0,0.0,0.0,0.0,0.0,-2.5947,-2.4714,-2.4878,-2.5218,-2.5205,0.0,0.0,0.0,0.0,0.0,0.0,0.0,0.0,0.0,0.0,0.0,0.0,0.0,0.0,0.0,0.0,-1.0921,0.0,0.0,0.0,0.0,0.0,0.0,0.0,0.0,-1.1966,-1.2225,-1.208,-1.2556,-1.2529,0.0,-1.2947,-1.3271,0.0,0.0,0.0,0.0,0.0,0.0,0.0,0.0,-1.585,-1.6339,-1.7275,-1.7793,-1.7783,-1.7373,-1.7158,-1.7148,-1.6476,-1.5694,-1.4842,-1.4785,-1.4453,0.0,0.0,0.0,0.0,0.0,0.0,0.0,0.0,0.0,0.0,0.0,0.0,0.0,0.0,0.0,0.0,0.0,0.0,0.0,0.0,0.0,0.0,0.0,-1.6357,0.0,0.0,0.0,0.0,0.0,0.0,0.0,0.0,0.0,-2.1065,-2.165,-2.2256,-2.2676,-2.2916,-2.3101,-2.3101,0.0,0.0,0.0,0.0,0.0,0.0,0.0,-2.3101,-2.3101,-2.3101,-2.3212,-2.3641,-2.4318,-2.5368,-2.7238,0.0,0.0,-2.6485,-2.6573,-2.6773,-2.681,-2.7804,-2.8586,-2.8222,-2.8725,-2.9126,0.0,0.0,0.0,0.0,0.0,0.0,0.0,0.0,-0.9891,-1.0827,0.0,-1.1289,0.0,0.0,0.0,0.0,0.0,0.0,0.0,0.0,-1.2752,-1.2879,-1.2358,-1.2663,-1.265,-1.2419,-1.3628,-1.4309,-1.4501,-1.4122,0.0,0.0,0.0,0.0,0.0,0.0,-1.6269,-1.6648,-1.7129,-1.7363,-1.7386,-1.6934,-1.6677,-1.6638,-1.6269,-1.5674,-1.4863,-1.4824,-1.4609,-1.4153,-1.3779,0.0,0.0,0.0,0.0,0.0,0.0,0.0,0.0,0.0,0.0,0.0,0.0,0.0,0.0,0.0,0.0,0.0,0.0,0.0,0.0,-1.6687,0.0,0.0,0.0,0.0,0.0,0.0,0.0,0.0,0.0,0.0,-2.1924,-2.2275,-2.2643,-2.3033,0.0,0.0,0.0,0.0,-2.3101,-2.3101,-2.3101,-2.3101,-2.3101,-2.3101,-2.3101,-2.3101,0.0,0.0,-2.4587,-2.4819,-2.5168,-2.6318,-2.6565,-2.718,-2.9172,-2.9422,-2.955,-2.9563,-2.9601,-2.9767,-2.9767,-2.9589,-2.9613,-0.5303,0.0,0.0,0.0,0.0,-0.7006,-0.8194,-0.8937,-1.0661,-1.1233,-1.1009,-1.1637,0.0,0.0,0.0,0.0,0.0,0.0,-1.1826,-1.1946,-1.2603,-1.2824,-1.267,-1.2933,-1.2951,-1.2739,-1.4402,-1.5134,-1.506,-1.5913,-1.5969,-1.5244,0.0,0.0,0.0,0.0,-1.582,-1.625,-1.6699,-1.6882,-1.6892,-1.6484,-1.6103,-1.5761,-1.5664,-1.5478,-1.5244,-1.5234,-1.5029,-1.4619,-1.4482,0.0,0.0,0.0,0.0,0.0,0.0,0.0,0.0,0.0,0.0,0.0,0.0,0.0,0.0,0.0,0.0,0.0,0.0,0.0,-1.6172,-1.6533,-1.6999,0.0,0.0,0.0,0.0,0.0,0.0,0.0,0.0,0.0,-2.2744,-2.2881,-2.2964,0.0,0.0,-2.3101,-2.3101,-2.3101,-2.3101,-2.3101,0.0,0.0,0.0,-2.3101,-2.3101,-2.3101,-2.3101,-2.3477,-2.4629,-2.4819,-2.5168,-2.6265,-2.6483,-2.673,-2.7302,-2.8068,-2.8557,-2.8636,-2.9236,-2.974,-2.974,-2.9184,-2.8794,-0.3968,-0.4367,-0.5823,-0.5796,-0.4966,-0.6774,-0.8193,-0.928,-1.0476,-1.1255,-1.1643,-1.21,-1.1911,-1.127,-1.1009,0.0,0.0,0.0,-1.1931,-1.2058,-1.2449,-1.261,-1.2616,-1.2759,-1.2752,-1.2685,-1.4537,-1.5268,-1.4948,-1.6606,-1.6829,-1.5703,0.0,0.0,-1.5059,-1.5488,-1.5831,-1.6095,-1.6328,-1.6475,-1.6465,-1.6035,-1.5713,-1.543,-1.542,-1.542,-1.542,-1.542,-1.5264,-1.5039,-1.4901,-1.4475,0.0,0.0,0.0,0.0,0.0,0.0,0.0,0.0,0.0,0.0,0.0,-1.4526,-1.3463,0.0,0.0,0.0,-1.5352,-1.6202,-1.7002,-1.748,0.0,0.0,0.0,0.0,0.0,0.0,0.0,-2.2402,-2.2656,-2.2861,-2.3062,-2.3101,-2.3101,-2.3101,-2.3101,-2.3101,-2.3101,0.0,-2.3101,-2.3101,-2.3101,-2.3101,-2.3101,-2.3101,-2.3101,-2.3101,-2.3101,-2.329,-2.3945,-2.4137,-2.4382,-2.4957,-2.5029,-2.4912,-2.4923,-2.565,-2.6514,-2.7064,-2.7894,-2.8379,-2.8077,-2.755,-2.7383,-0.2408,-0.3505,-0.563,-0.5925,-0.5105,-0.6361,-0.7972,-0.9644,-0.971,-1.0917,-1.2844,-1.2503,-1.2325,-1.2265,-1.1744,0.0,0.0,-1.194,-1.2087,-1.2305,-1.2305,-1.2305,-1.2305,-1.2278,-1.2271,-1.2301,-1.4209,-1.4907,-1.4585,-1.6396,-1.6936,-1.6124,-1.6125,-1.587,-1.5459,-1.584,-1.6036,-1.6046,-1.6036,-1.6046,-1.6036,-1.5615,-1.542,-1.542,-1.5381,-1.5361,-1.5361,-1.5332,-1.5332,-1.5352,-1.499,-1.4604,-1.4161,0.0,0.0,0.0,0.0,0.0,0.0,0.0,0.0,0.0,0.0,0.0,0.0,0.0,0.0,0.0,-1.6709,0.0,-1.8578,-1.9082,0.0,0.0,0.0,-2.0381,-2.1249,-2.1719,-2.21,-2.2519,0.0,0.0,0.0,0.0,-2.3101,-2.3101,-2.3101,-2.3101,-2.3101,-2.3101,-2.3101,-2.3101,-2.3101,-2.3101,-2.3091,-2.3052,-2.3003,-2.3003,-2.3023,-2.2998,-2.3008,-2.3032,-2.2984,-2.3095,-2.2734,-2.2503,-2.2503,-2.3113,-2.3796,-2.5154,-2.5983,-2.6211,-2.5615,-2.5515,-2.5593,-0.1442,-0.1137,-0.4181,-0.5416,-0.5365,-0.6436,-0.7158,-0.7739,-0.9201,-1.0048,-1.0477,-1.1999,-1.2549,-1.2291,-1.2158,-1.2131,-1.2198,-1.2198,-1.2238,-1.2305,-1.2305,-1.2305,-1.2291,-1.2078,-1.2007,-1.2094,-1.3584,-1.4296,-1.428,-1.5979,-1.6602,-1.6124,-1.6125,-1.587,-1.543,-1.5518,-1.5566,-1.5566,-1.5576,-1.5557,-1.5566,-1.5469,-1.542,-1.541,-1.5107,-1.4932,-1.4932,-1.4609,-1.4572,-1.4912,-1.4844,-1.4728,-1.4642,-1.4194,0.0,0.0,0.0,0.0,0.0,0.0,0.0,0.0,0.0,-1.5634,-1.4221,0.0,-1.6492,0.0,-1.7555,-1.852,-1.9092,-1.9521,0.0,0.0,-2.1142,-2.1346,-2.2506,-2.25,-2.2519,-2.2896,-2.3033,-2.3101,-2.3101,-2.3101,-2.3101,-2.3101,-2.3091,-2.3101,-2.3101,-2.3101,-2.3101,-2.3081,-2.3071,-2.3101,-2.3052,-2.2818,-2.2666,-2.2656,-2.2402,-2.2194,-2.2181,-2.2159,-2.2194,-2.2152,-2.2133,-2.2051,-2.2031,-2.2192,-2.2238,-2.2453,-2.4,-2.5464,-2.5205,-2.4594,-2.4259,-0.0941,-0.1027,-0.3326,-0.4678,-0.5332,-0.6387,-0.7035,-0.7496,-0.8567,-0.9202,-0.9512,-1.1158,-1.1802,-1.1657,-1.2107,-1.2305,-1.2291,-1.2164,-1.2104,-1.2141,-1.1971,-1.1917,-1.1904,-1.1744,-1.167,-1.174,-1.3313,-1.3999,-1.3915,-1.5594,-1.6211,-1.5781,-1.5801,-1.5654,-1.542,-1.542,-1.542,-1.542,-1.542,-1.542,-1.542,-1.542,-1.5322,-1.5137,-1.4912,-1.4725,-1.4502,-1.4231,-1.4221,-1.4473,-1.4492,-1.4481,-1.4487,-1.425,-1.4019,0.0,0.0,0.0,0.0,0.0,0.0,0.0,0.0,0.0,0.0,0.0,-1.7233,0.0,-1.8646,0.0,-2.0361,-2.082,-2.1445,-2.2344,-2.2194,-2.2331,-2.3023,-2.2886,-2.2847,-2.3062,-2.3101,-2.3101,-2.3101,-2.2925,-2.2818,-2.2818,-2.2652,-2.2725,-2.3003,-2.2955,-2.2818,-2.2818,-2.2652,-2.2578,-2.2588,-2.2393,-2.2227,-2.2217,-2.2051,-2.1912,-2.1897,-2.1896,-2.1894,-2.1894,-2.1738,-2.1592,-2.1592,-2.1416,-2.1162,-2.0958,-2.1773,-2.279,-2.3111,-2.2795,-2.2659,-0.0418,-0.146,-0.2587,-0.3786,-0.4933,-0.5976,-0.6975,-0.7807,-0.7944,-0.8467,-0.9372,-1.0233,-1.0671,-1.0858,-1.17,-1.2187,-1.2285,-1.2004,-1.1906,-1.1886,-1.1563,-1.143,-1.1389,-1.1349,-1.1404,-1.1567,-1.3177,-1.3817,-1.3565,-1.5188,-1.5781,-1.543,-1.542,-1.542,-1.541,-1.5361,-1.5332,-1.541,-1.542,-1.542,-1.542,-1.542,-1.5205,-1.4814,-1.4736,-1.4492,-1.4055,-1.4026,-1.4065,-1.4104,-1.4163,-1.4227,-1.4245,-1.422,-1.4189,0.0,-1.4585,0.0,0.0,0.0,0.0,0.0,0.0,0.0,0.0,-1.7363,-1.8174,-1.9277,-1.9805,-2.0557,-2.1689,-2.2236,-2.2666,-2.2964,-2.3062,-2.3081,-2.3023,-2.3013,-2.2994,-2.2945,-2.2935,-2.2935,-2.2886,-2.2646,-2.2432,-2.2412,-2.2168,-2.2207,-2.2721,-2.2604,-2.2432,-2.2432,-2.2129,-2.1982,-2.1953,-2.1865,-2.1807,-2.1807,-2.1709,-2.1746,-2.1687,-2.1714,-2.1673,-2.159,-2.1263,-2.0995,-2.0956,-2.0664,-2.0303,-1.9962,-1.9993,-2.0192,-2.0532,-2.081,-2.0674,0.1145,0.0776,-0.1102,-0.2542,-0.3561,-0.4629,-0.5744,-0.682,-0.7508,-0.8383,-0.9301,-0.9485,-1.0045,-1.0783,-1.1013,-1.1539,-1.2285,-1.204,-1.1906,-1.1893,-1.1563,-1.143,-1.1375,-1.1182,-1.1426,-1.2072,-1.2846,-1.3481,-1.4072,-1.5046,-1.5498,-1.542,-1.542,-1.542,0.0,0.0,0.0,0.0,-1.542,-1.542,-1.542,-1.542,-1.5215,-1.4823,-1.4416,0.0,-1.3652,-1.3623,-1.3753,-1.4068,-1.4463,0.0,0.0,0.0,0.0,0.0,0.0,0.0,0.0,0.0,0.0,0.0,-1.6123,-1.6261,-1.7197,-1.8594,-1.9531,-1.9795,-2.0527,-2.1044,-2.1298,-2.206,-2.2539,-2.2627,-2.2896,-2.2964,-2.2685,-2.2637,-2.251,-2.2168,-2.2129,-2.2129,-2.2148,-2.2051,-2.2012,-2.1992,-2.1934,-2.1943,-2.208,-2.2051,-2.2002,-2.1992,-2.1865,-2.1865,-2.1936,-2.1562,-2.1278,-2.1278,-2.1035,-2.0859,-2.0839,-2.0859,-2.0683,-2.0416,-2.0198,-2.0051,-1.9763,-1.96,-1.958,-1.9446,-1.9431,-1.9426,-1.9546,-1.96,-1.96,0.2033,0.0,-0.0159,-0.1422,0.0,-0.4023,-0.5031,-0.568,-0.6631,-0.733,-0.7859,-0.8351,-0.8779,-0.9226,-1.0191,-1.0894,-1.1441,-1.1029,-1.1129,-1.1588,-1.0752,-1.0599,-1.0995,-1.0881,-1.1033,-1.1454,-1.2507,-1.3221,-1.3666,-1.4608,-1.5107,-1.5098,-1.4864,-1.4757,-1.4747,-1.457,-1.4678,-1.5098,-1.5303,-1.542,-1.542,-1.542,-1.5205,-1.4805,0.0,0.0,0.0,0.0,0.0,0.0,0.0,0.0,0.0,0.0,0.0,-1.5088,-1.5508,-1.5644,-1.5498,-1.6211,-1.6797,-1.7031,-1.7227,-1.7519,-1.7935,-1.8994,-1.9873,-2.0479,-2.0947,-2.1288,-2.1543,-2.1953,-2.2197,-2.2217,-2.2393,-2.2422,-2.2256,-2.2211,-2.2142,-2.1943,-2.191,-2.1922,-2.1916,-2.1689,-2.1572,-2.1553,-2.1367,-2.128,-2.125,-2.1435,-2.1504,-2.1279,-2.1271,-2.128,-2.1231,-2.0869,-2.0547,-2.0498,-2.0225,-1.9982,-1.9964,-1.9934,-1.9878,-1.9627,-1.9617,-1.9525,-1.9369,-1.9282,-1.923,-1.9029,-1.8968,-1.8778,-1.8531,-1.8838,-1.9209,0.3046,0.2035,0.082,-0.035,-0.1478,-0.3339,-0.4337,-0.4747,0.0,0.0,0.0,-0.7141,-0.7493,-0.7606,-0.9161,-1.0014,-1.0248,-0.9724,-1.0065,-1.1044,-0.9852,-0.9754,-1.0593,-1.0539,-1.0607,-1.0781,-1.2141,-1.2879,-1.3071,-1.4138,-1.4668,-1.4639,-1.428,-1.4075,-1.4007,-1.3941,-1.4078,-1.4395,-1.4791,-1.4946,-1.483,-1.4801,-1.463,-1.4306,-1.4287,-1.4098,-1.3684,-1.3122,-1.3112,-1.3742,-1.324,-1.344,-1.46,-1.4695,-1.4897,-1.5381,-1.6132,-1.6445,-1.6144,-1.7129,-1.7666,-1.7435,-1.8096,-1.852,-1.8588,-1.9102,-1.9834,-2.0869,-2.1064,-2.126,-2.1621,-2.1738,-2.1768,-2.1768,-2.1836,-2.1875,-2.1787,-2.1758,-2.1758,-2.1689,-2.1617,-2.1678,-2.1623,-2.1328,-2.1025,-2.0937,-2.0693,-2.0449,-2.0449,-2.0693,-2.081,-2.0478,-2.038,-2.038,-2.0331,-2.0116,-1.9814,-1.9824,-1.9541,-1.9282,-1.9296,-1.9284,-1.9262,-1.9197,-1.9157,-1.9097,-1.8976,-1.8863,-1.8802,-1.834,-1.8255,-1.8071,-1.7559,-1.8086,-1.8613,0.5173,0.4103,0.219,0.0734,-0.0341,-0.1516,-0.2994,-0.4598,-0.5793,-0.63,-0.6293,-0.627,-0.6712,-0.7523,-0.7682,-0.8205,-0.9036,-0.8709,-0.9086,0.0,-0.95,-0.9754,-1.0579,-1.0301,-1.0532,-1.1204,-1.1807,-1.2416,-1.3111,-1.3833,-1.4202,-1.4165,-1.4133,-1.3919,-1.361,-1.3352,-1.3121,-1.2855,-1.3222,-1.3148,-1.2582,-1.2554,-1.2464,-1.2312,-1.234,-1.2231,-1.2042,-1.2339,-1.2514,-1.2629,-1.2865,-1.3386,-1.4212,-1.4271,-1.4632,-1.5342,-1.5879,-1.6153,-1.6105,-1.6602,-1.7019,-1.7406,-1.7822,-1.8252,-1.8588,-1.9365,-1.9902,-2.0117,-2.0439,-2.0713,-2.0811,-2.1103,-2.1328,-2.1307,-2.166,-2.1738,-2.1337,-2.1294,-2.1188,-2.0918,-2.0762,-2.0811,-2.0811,-2.0752,-2.0518,-2.0205,-2.0078,-1.9883,-1.9648,-1.9834,-1.9893,-1.958,-1.9463,-1.9473,-1.9578,-1.9443,-1.9375,-1.9375,-1.9297,-1.9187,-1.9196,-1.9154,-1.9023,-1.8735,-1.8651,-1.8401,-1.7871,-1.7649,-1.7535,-1.7194,-1.7109,-1.6999,-1.6814,-1.7051,-1.7087,0.6454,0.536,0.3808,0.2284,0.0753,-0.0893,-0.2424,-0.3745,-0.4316,-0.5113,-0.6003,-0.5935,-0.6111,-0.6489,-0.6896,-0.7376,-0.7847,-0.7606,-0.8003,-0.8913,-0.8222,-0.85,-0.9544,-0.9451,-0.9766,-1.0448,-1.1068,-1.1763,-1.2439,-1.2976,-1.3413,-1.3753,-1.3564,-1.3163,-1.262,-1.2463,-1.1947,-1.1068,-1.2045,-1.24,-1.2095,-1.2095,-1.2067,-1.2003,-1.2186,-1.2245,-1.2188,-1.212,-1.2282,-1.271,-1.2493,-1.2726,-1.3485,-1.3554,-1.3906,-1.4677,-1.4766,-1.4963,-1.5425,-1.5537,-1.5933,-1.6623,-1.6565,-1.6788,-1.7469,-1.8562,-1.9326,-1.9561,-1.9961,-2.0215,-2.0225,-2.0605,-2.0869,-2.0859,-2.1064,-2.1084,-2.0918,-2.0869,-2.0791,-2.0654,-2.0615,-2.0478,-2.0234,-2.0215,-2.0059,-1.9668,-1.958,-1.9404,-1.9004,-1.9082,-1.9212,-1.9277,-1.9277,-1.9287,-1.9268,-1.9072,-1.8965,-1.8936,-1.873,-1.8619,-1.8586,-1.8433,-1.8184,-1.7971,-1.7772,-1.7475,-1.7062,-1.7025,-1.6887,-1.6798,-1.6689,-1.6652,-1.6455,-1.6201,-1.6161,0.7694,0.6419,0.5295,0.3589,0.1445,-0.0217,-0.1605,-0.2641,-0.2711,-0.3599,-0.5024,-0.5338,-0.5515,-0.5662,-0.626,-0.6611,-0.6692,-0.6498,-0.6999,-0.7846,-0.7068,-0.7399,-0.8673,-0.8721,-0.8978,-0.9615,-1.0313,-1.0977,-1.1614,-1.2123,-1.2602,-1.3033,-1.282,-1.2304,-1.1591,-1.1416,-1.0838,-0.9921,-1.0836,-1.1351,-1.1351,-1.1359,-1.1431,-1.1571,-1.1799,-1.2014,-1.2123,-1.1729,-1.181,-1.2397,-1.1865,-1.1903,-1.2673,-1.2734,-1.3092,-1.3782,-1.3636,-1.3766,-1.44,-1.4465,-1.4773,-1.557,-1.5317,-1.5415,-1.6228,-1.7208,-1.8005,-1.8456,-1.8788,-1.9099,-1.9155,-1.9486,-1.9887,-2.0138,-2.0001,-2.0078,-2.0489,-2.0401,-2.0304,-2.0391,-2.0439,-2.0253,-1.9893,-1.9775,-1.96,-1.9248,-1.9072,-1.8848,-1.8529,-1.8461,-1.8617,-1.8877,-1.8994,-1.8955,-1.8975,-1.8613,-1.8334,-1.8315,-1.7964,-1.7764,-1.7666,-1.7432,-1.7272,-1.7233,-1.6989,-1.6777,-1.6604,-1.6554,-1.6479,-1.6356,-1.6198,-1.6064,-1.5625,-1.5332,-1.5391,0.9266,0.7372,0.6282,0.4121,0.1477,0.1095,0.0034,-0.1354,-0.1452,-0.2025,-0.3085,-0.3949,-0.4792,-0.5538,-0.5544,-0.5589,-0.5582,-0.5531,-0.6017,-0.6752,-0.6557,-0.7269,-0.8604,-0.8428,-0.8599,-0.9217,-0.971,-1.0243,-1.0927,-1.1546,-1.1911,-1.1943,-1.1907,-1.1566,-1.0914,-1.032,-0.9943,-0.9788,-0.9313,-0.909,-0.9117,-0.909,-0.9378,-0.9897,-0.9961,-1.0212,-1.0788,-1.0737,-1.0737,-1.0807,-1.0762,-1.1069,-1.1795,-1.1919,-1.2258,-1.3039,-1.308,-1.3089,-1.3175,-1.3484,-1.3833,-1.4247,-1.4546,-1.4851,-1.5282,-1.5401,-1.5684,-1.6111,-1.6466,-1.6966,-1.7152,-1.7307,-1.7883,-1.8891,-1.8311,-1.8341,-1.9876,-1.9743,-1.9342,-1.9905,-1.9752,-1.9801,-1.923,-1.9161,-1.9078,-1.8573,-1.8397,-1.8144,-1.7949,-1.792,-1.7891,-1.8037,-1.8091,-1.811,-1.8115,-1.7783,-1.7598,-1.751,-1.7135,-1.697,-1.6931,-1.6882,-1.6772,-1.6796,-1.667,-1.6471,-1.6258,-1.615,-1.5977,-1.5663,-1.533,-1.4902,-1.4463,-1.4338,-1.466,1.0059,0.9031,0.7273,0.5155,0.2927,0.1783,0.0905,0.0201,-0.0336,-0.1041,-0.1844,-0.2304,-0.2995,-0.3946,-0.4913,-0.5093,-0.4613,-0.5032,-0.5381,-0.5717,-0.5599,-0.6285,-0.7536,-0.7521,-0.7945,-0.891,-0.9142,-0.9543,-1.0218,-1.0889,-1.1216,-1.1216,-1.1216,-1.0889,-1.0244,-0.9943,-0.9614,-0.9211,-0.8929,-0.8778,-0.8778,-0.8778,-0.8891,-0.9152,-0.9332,-0.9491,-0.9766,-0.997,-1.007,-1.007,-1.0077,-1.0295,-1.0758,-1.0803,-1.1241,-1.2181,-1.2297,-1.2081,-1.1608,-1.187,-1.2358,-1.3063,-1.3055,-1.3347,-1.3968,-1.3726,-1.3579,-1.3866,-1.511,-1.613,-1.6204,-1.6471,-1.6864,-1.7317,-1.7032,-1.7157,-1.795,-1.7773,-1.76,-1.7794,-1.7834,-1.7682,-1.7378,-1.7495,-1.7586,-1.7549,-1.7655,-1.7644,-1.7086,-1.6876,-1.6764,-1.6585,-1.6529,-1.6883,-1.7377,-1.7285,-1.7051,-1.6963,-1.6824,-1.6697,-1.6638,-1.6465,-1.6365,-1.6336,-1.6088,-1.5886,-1.5699,-1.5474,-1.5254,-1.4944,-1.4687,-1.4309,-1.4133,-1.4114,-1.4309,1.0569,0.9891,0.7776,0.5739,0.3882,0.2342,0.1541,0.1207,0.037,-0.037,-0.0939,-0.1207,-0.1508,-0.2178,-0.3849,-0.4284,-0.3801,-0.4417,-0.4744,-0.4753,-0.4789,-0.5583,-0.6796,-0.6839,-0.7516,-0.8619,-0.8811,-0.9159,-0.9814,-1.0466,-1.0712,-1.0568,-1.0542,-1.0192,-0.9581,-0.9536,-0.9283,-0.8857,-0.8778,-0.8778,-0.8778,-0.8778,-0.8844,-0.8904,-0.9104,-0.9244,-0.9337,-0.9573,-0.9715,-0.9715,-0.9715,-0.9773,-0.998,-0.997,-1.0393,-1.1216,-1.1425,-1.1226,-1.0618,-1.0787,-1.1235,-1.1887,-1.1778,-1.2012,-1.2628,-1.249,-1.2254,-1.2466,-1.3837,-1.4799,-1.5022,-1.5257,-1.5537,-1.5861,-1.5733,-1.5702,-1.635,-1.622,-1.6051,-1.6171,-1.6409,-1.6096,-1.5811,-1.5928,-1.6103,-1.6155,-1.6553,-1.6738,-1.5866,-1.5601,-1.5503,-1.5204,-1.5097,-1.5638,-1.6802,-1.6836,-1.6602,-1.6473,-1.6414,-1.6258,-1.6326,-1.5995,-1.5752,-1.5575,-1.5255,-1.5069,-1.4971,-1.4751,-1.4553,-1.4406,-1.4174,-1.388,-1.3675,-1.3753,-1.3743,1.1016,0.9478,0.7541,0.5712,0.3949,0.3009,0.2143,0.1341,0.0404,0.0,0.0,-0.0906,-0.0873,-0.037,-0.2078,-0.2809,-0.2863,-0.3563,-0.3924,-0.3993,-0.4461,-0.5497,-0.6837,-0.6731,-0.7386,-0.8699,-0.8778,-0.9106,-0.9769,-1.0423,-1.0466,-0.9858,-0.9832,-0.9517,-0.8982,-0.891,-0.8831,-0.8804,-0.8778,-0.8778,-0.8778,-0.8778,-0.8871,-0.9035,-0.9191,-0.9311,-0.9579,-0.9688,-0.9695,-0.9702,-0.9675,-0.9702,-0.9699,-0.9742,-0.9876,-1.0204,-1.0488,-1.0643,-1.0604,-1.0613,-1.0798,-1.1027,-1.1141,-1.131,-1.1941,-1.1957,-1.2027,-1.2265,-1.2512,-1.279,-1.3075,-1.3282,-1.3689,-1.4605,-1.397,-1.4362,-1.6027,-1.521,-1.5224,-1.551,-1.5569,-1.5312,-1.5122,-1.4935,-1.483,-1.4764,-1.4664,-1.4519,-1.4461,-1.437,-1.4328,-1.4194,-1.4083,-1.4363,-1.6132,-1.6191,-1.6001,-1.5876,-1.5563,-1.5478,-1.5323,-1.5158,-1.4964,-1.4779,-1.4447,-1.4262,-1.4181,-1.4087,-1.3948,-1.3799,-1.3668,-1.3447,-1.3291,-1.3071,-1.3101,0.9143,0.787,0.7061,0.5968,0.4785,0.3313,0.2511,0.2075,0.0639,0.0,0.0,0.0,-0.0303,-0.0034,-0.0673,-0.1297,-0.1889,-0.3099,-0.3673,-0.3745,-0.4289,-0.535,-0.6584,-0.6645,-0.7375,-0.8613,-0.8778,-0.891,-0.9133,-0.9406,-0.9413,-0.9211,-0.9166,-0.9008,-0.8831,-0.8778,-0.8778,-0.8778,-0.8778,-0.8778,-0.8699,-0.8348,-0.8152,-0.8265,-0.8716,-0.8984,-0.9118,-0.9118,-0.9125,-0.9118,-0.9125,-0.9212,-0.9371,-0.9579,-0.9755,-0.9846,-1.0114,-1.0274,-1.0301,-1.0486,-1.0633,-1.074,-1.0928,-1.1095,-1.1283,-1.1476,-1.171,-1.1986,-1.2024,-1.2194,-1.2378,-1.2458,-1.2648,-1.2992,-1.289,-1.2941,-1.35,-1.3426,-1.3301,-1.3498,-1.3542,-1.3426,-1.3392,-1.3494,-1.3723,-1.3648,-1.3965,-1.3852,-1.3275,-1.3097,-1.2986,-1.275,-1.2586,-1.281,-1.3773,-1.4632,-1.4846,-1.475,-1.4572,-1.4694,-1.4634,-1.4138,-1.3838,-1.4262,-1.3909,-1.3733,-1.3779,-1.3781,-1.3564,-1.332,-1.3189,-1.3169,-1.2944,-1.2915,-1.2915,0.79,0.6911,0.6742,0.6001,0.4821,0.3347,0.2511,0.211,0.0,0.0,0.0,0.0,0.0,0.0,0.0,-0.0461,-0.1302,-0.2573,-0.3292,-0.3598,-0.4191,-0.5117,-0.6068,-0.6226,-0.688,-0.791,-0.8103,-0.807,-0.8076,-0.8103,-0.8076,-0.8076,-0.8076,-0.8076,-0.8103,-0.807,-0.8103,-0.8103,-0.8103,-0.8076,-0.8017,-0.761,-0.7343,-0.7396,-0.7836,-0.8109,-0.8103,-0.8321,-0.8289,-0.8156,-0.8321,-0.843,-0.8401,-0.866,-0.8866,-0.8897,-0.9335,-0.9652,-0.981,-1.0177,-1.0486,-1.0586,-1.0767,-1.0914,-1.0982,-1.1176,-1.1416,-1.1643,-1.173,-1.1844,-1.2058,-1.2078,-1.2098,-1.2245,-1.2305,-1.2305,-1.2305,-1.2348,-1.2308,-1.228,-1.2202,-1.1995,-1.1827,-1.2262,-1.2407,-1.2305,-1.2823,-1.2632,-1.2015,-1.1701,-1.1561,-1.1329,-1.1191,-1.1256,-1.1811,-1.2463,-1.3215,-1.3252,-1.3576,-1.3736,-1.3774,-1.323,-1.3101,-1.3535,-1.364,-1.3462,-1.3391,-1.3408,-1.3243,-1.2964,-1.2964,-1.3003,-1.2915,-1.2915,-1.2915,0.7428,0.6679,0.6687,0.5698,0.4215,0.3147,0.2175,0.1441,0.0404,0.0,0.0,0.0,0.0,0.0,0.0,-0.0424,-0.1151,-0.1901,-0.2675,-0.3432,-0.4157,-0.4869,-0.5569,-0.562,-0.6009,-0.6804,-0.6696,-0.6669,-0.6777,-0.6831,-0.6804,-0.6696,-0.6804,-0.6885,-0.6669,-0.6804,-0.6729,-0.6777,-0.6831,-0.675,-0.6615,-0.6642,-0.6615,-0.6588,-0.6615,-0.6583,-0.661,-0.7289,-0.7402,-0.6912,-0.7343,-0.7348,-0.6965,-0.7111,-0.7203,-0.7405,-0.8085,-0.8682,-0.8986,-0.9614,-1.0157,-1.0398,-1.0561,-1.0734,-1.0895,-1.0975,-1.1116,-1.1363,-1.1402,-1.1515,-1.1757,-1.1657,-1.1717,-1.2164,-1.2218,-1.2191,-1.2231,-1.2265,-1.2178,-1.1897,-1.1677,-1.1429,-1.1376,-1.1384,-1.1321,-1.1205,-1.1125,-1.1037,-1.0894,-1.067,-1.0241,-1.0161,-1.0203,-1.031,-1.0292,-1.0408,-1.1189,-1.1847,-1.2317,-1.267,-1.285,-1.2563,-1.2559,-1.2861,-1.295,-1.2827,-1.3123,-1.313,-1.3091,-1.2915,-1.2915,-1.2915,-1.2915,-1.2915,-1.2915,0.6115,0.5936,0.5826,0.5517,0.4788,0.3347,0.2511,0.2076,0.0673,0.0,0.0,0.0,0.0,0.0,0.0,-0.0384,-0.1077,-0.1385,-0.2135,-0.3349,-0.4144,-0.4814,-0.5351,-0.5483,-0.5873,-0.6507,-0.6588,-0.6588,-0.6561,-0.6561,-0.6588,-0.6588,-0.6561,-0.6588,-0.6534,-0.6588,-0.6588,-0.6588,-0.6588,-0.6588,-0.6534,-0.6086,-0.5846,-0.5792,-0.5418,-0.5171,-0.5199,-0.6312,-0.6804,-0.6561,-0.6831,-0.6831,-0.6657,-0.6708,-0.6743,-0.6801,-0.7238,-0.7582,-0.7788,-0.8699,-0.9383,-0.9606,-1.0177,-1.0581,-1.0713,-1.0734,-1.0835,-1.1076,-1.1129,-1.1249,-1.147,-1.1455,-1.1514,-1.1957,-1.1824,-1.173,-1.175,-1.1682,-1.1628,-1.1583,-1.1483,-1.1322,-1.1176,-1.1002,-1.0902,-1.0774,-1.0646,-1.0593,-1.0546,-1.0287,-1.0127,-1.0063,-0.9853,-0.9581,-0.963,-0.9653,-1.0006,-1.0685,-1.1155,-1.1622,-1.1799,-1.1878,-1.1901,-1.2083,-1.2156,-1.2323,-1.2627,-1.2832,-1.2749,-1.2856,-1.2856,-1.2856,-1.2915,-1.2915,-1.2915,0.5453,0.5525,0.5436,0.5193,0.4788,0.3613,0.2978,0.2576,0.1509,0.0806,0.0,0.0,0.0269,0.0,0.0,0.0,-0.1046,-0.1103,-0.1758,-0.2912,-0.3707,-0.4284,-0.4721,-0.5027,-0.5328,-0.5741,-0.58,-0.5796,-0.5828,-0.5828,-0.5828,-0.58,-0.5828,-0.58,-0.5823,-0.5828,-0.5823,-0.5823,-0.5796,-0.58,-0.5719,-0.5355,-0.5113,-0.5081,-0.4732,-0.4515,-0.457,-0.5391,-0.5823,-0.5796,-0.5828,-0.5823,-0.5823,-0.58,-0.5828,-0.5905,-0.6234,-0.6543,-0.6815,-0.7962,-0.8765,-0.8987,-0.9821,-1.0388,-1.0445,-1.0499,-1.0629,-1.0393,-1.0334,-1.0343,-1.0261,-1.015,-1.0276,-1.0549,-1.111,-1.1354,-1.1382,-1.1295,-1.1235,-1.1243,-1.1162,-1.1022,-1.0889,-1.0861,-1.0801,-1.0626,-1.0586,-1.0586,-1.0506,-1.0231,-1.007,-0.9842,-0.9514,-0.928,-0.9112,-0.9045,-0.8998,-0.9494,-1.0053,-1.0467,-1.0805,-1.0748,-1.0735,-1.1234,-1.1452,-1.1468,-1.1767,-1.2197,-1.2353,-1.2535,-1.2642,-1.2856,-1.2881,-1.2915,-1.2915,0.5395,0.5395,0.5395,0.4921,0.4251,0.3982,0.3513,0.2878,0.2611,0.2076,0.1508,0.1408,0.0974,0.0334,0.0,-0.0127,-0.083,-0.0954,-0.124,-0.2023,-0.2732,-0.3204,-0.3425,-0.3953,-0.426,-0.4346,-0.4346,-0.4374,-0.437,-0.4484,-0.4463,-0.4515,-0.4653,-0.457,-0.4708,-0.457,-0.4653,-0.4708,-0.457,-0.4484,-0.4512,-0.446,-0.4429,-0.4429,-0.4463,-0.4491,-0.4519,-0.4653,-0.4625,-0.4546,-0.468,-0.4708,-0.457,-0.4519,-0.4656,-0.4708,-0.5167,-0.5564,-0.6115,-0.7149,-0.8029,-0.8287,-0.9125,-0.9955,-0.9794,-0.9875,-0.9837,-0.9335,-0.9271,-0.9054,-0.8627,-0.8426,-0.8421,-0.8624,-0.9886,-1.0789,-1.1193,-1.0942,-1.0824,-1.0896,-1.0767,-1.06,-1.064,-1.0633,-1.0606,-1.0539,-1.0512,-1.0499,-1.0338,-1.0017,-0.9739,-0.9483,-0.9219,-0.9072,-0.8911,-0.8904,-0.8871,-0.9024,-0.9439,-0.9751,-1.0069,-1.0023,-1.0005,-1.0488,-1.0735,-1.0762,-1.1023,-1.15,-1.1749,-1.1783,-1.2098,-1.2618,-1.27,-1.252,-1.2666,0.5395,0.5395,0.5395,0.5259,0.4924,0.4317,0.3882,0.358,0.2978,0.2643,0.2344,0.2342,0.2177,0.1938,0.1238,0.0824,0.0553,0.003,-0.0347,-0.0674,-0.1341,-0.2009,-0.2397,-0.2704,-0.2843,-0.2873,-0.2956,-0.2815,-0.2871,-0.34,-0.3649,-0.3707,-0.4156,-0.4432,-0.4491,-0.4405,-0.4491,-0.4377,-0.3876,-0.3652,-0.3683,-0.368,-0.3649,-0.3649,-0.4153,-0.4405,-0.4487,-0.4491,-0.4491,-0.4491,-0.4491,-0.4491,-0.4491,-0.4491,-0.4491,-0.4543,-0.4653,-0.4798,-0.5087,-0.5975,-0.6587,-0.675,-0.7766,-0.8212,-0.8323,-0.8415,-0.8428,-0.8292,-0.8355,-0.8279,-0.8093,-0.7965,-0.8007,-0.8131,-0.8607,-0.9206,-0.9727,-0.9817,-0.9962,-1.0559,-1.0595,-1.0573,-1.0559,-1.0533,-1.0472,-1.0318,-1.0221,-1.0198,-1.0003,-0.9726,-0.9407,-0.9286,-0.9078,-0.8925,-0.8791,-0.8791,-0.8791,-0.8798,-0.9055,-0.9285,-0.9621,-0.9806,-0.9833,-1.0056,-1.0058,-1.0072,-1.0517,-1.1015,-1.104,-1.1065,-1.1325,-1.1692,-1.1683,-1.1609,-1.2039,0.5395,0.5395,0.5395,0.5395,0.5326,0.4788,0.4586,0.4486,0.4082,0.358,0.3345,0.3245,0.3045,0.2638,0.2114,0.1867,0.1719,0.128,0.101,0.0814,0.0168,-0.0892,-0.1867,-0.2204,-0.2204,-0.2204,-0.2176,-0.2232,-0.2286,-0.2647,-0.2815,-0.2926,-0.3317,-0.3514,-0.3456,-0.3539,-0.3539,-0.3428,-0.3065,-0.2869,-0.2901,-0.2901,-0.2871,-0.2896,-0.3317,-0.3539,-0.3511,-0.3511,-0.379,-0.4294,-0.4491,-0.4491,-0.4491,-0.4491,-0.4491,-0.4491,-0.4491,-0.4491,-0.4636,-0.5318,-0.5754,-0.5966,-0.675,-0.7262,-0.7505,-0.7578,-0.7699,-0.7345,-0.7408,-0.727,-0.6953,-0.6887,-0.6892,-0.6835,-0.6924,-0.7409,-0.8587,-0.9125,-0.9498,-0.9958,-1.0266,-1.0405,-1.0367,-1.0311,-1.0164,-0.9987,-0.994,-0.9872,-0.9748,-0.9407,-0.9158,-0.9099,-0.8998,-0.8838,-0.8778,-0.8778,-0.8778,-0.8778,-0.8831,-0.9028,-0.9178,-0.9458,-0.9442,-0.9425,-0.9382,-0.9484,-0.9917,-1.0261,-1.0364,-1.044,-1.0593,-1.0864,-1.1065,-1.1065,-1.1466,0.5395,0.5395,0.5395,0.5395,0.5395,0.5395,0.5292,0.5359,0.5259,0.4824,0.4284,0.4148,0.3816,0.2972,0.2956,0.2747,0.264,0.2291,0.2188,0.1859,0.1283,0.0251,-0.1114,-0.1591,-0.1703,-0.173,-0.1925,-0.187,-0.1785,-0.1952,-0.2091,-0.2174,-0.223,-0.2259,-0.2454,-0.2371,-0.2232,-0.2371,-0.2232,-0.2091,-0.2093,-0.2093,-0.2091,-0.212,-0.2343,-0.2426,-0.2399,-0.2399,-0.2869,-0.4181,-0.4319,-0.4294,-0.4322,-0.4377,-0.4491,-0.4491,-0.4491,-0.4491,-0.4543,-0.5042,-0.5367,-0.5514,-0.6225,-0.6814,-0.675,-0.6892,-0.6832,-0.6291,-0.6426,-0.6217,-0.5811,-0.551,-0.5574,-0.5658,-0.5505,-0.6144,-0.7348,-0.8468,-0.9029,-0.9154,-0.9587,-0.9888,-0.9917,-0.9837,-0.9686,-0.9673,-0.9619,-0.9541,-0.9415,-0.9206,-0.9079,-0.9051,-0.8944,-0.8798,-0.8778,-0.8778,-0.8778,-0.8778,-0.8778,-0.8883,-0.8883,-0.9008,-0.8903,-0.8883,-0.9061,-0.9061,-0.9087,-0.9361,-0.9633,-0.9755,-0.9858,-1.0509,-1.1057,-1.0889,-1.104,0.5395,0.5395,0.5395,0.5395,0.5395,0.5395,0.5395,0.5395,0.5395,0.5259,0.5126,0.509,0.4957,0.4713,0.3928,0.3566,0.3404,0.2791,0.2217,0.2184,0.2065,0.1785,0.0919,0.0112,-0.0476,-0.0476,-0.0476,-0.0504,-0.0587,-0.1061,-0.134,-0.1396,-0.1758,-0.2176,-0.212,-0.2009,-0.2176,-0.2093,-0.1647,-0.134,-0.134,-0.134,-0.134,-0.1368,-0.1814,-0.212,-0.2176,-0.2204,-0.2371,-0.2732,-0.3206,-0.3483,-0.3707,-0.4153,-0.4432,-0.4491,-0.4491,-0.4491,-0.4515,-0.4649,-0.4732,-0.4822,-0.5053,-0.5089,-0.5201,-0.5381,-0.5385,-0.5224,-0.5342,-0.5471,-0.5399,-0.5237,-0.5192,-0.5165,-0.5101,-0.5189,-0.5643,-0.6487,-0.7348,-0.7878,-0.8484,-0.8936,-0.896,-0.935,-0.9317,-0.9314,-0.923,-0.9178,-0.9071,-0.8918,-0.8985,-0.8956,-0.8897,-0.8778,-0.8778,-0.8778,-0.8778,-0.8778,-0.8778,-0.8778,-0.8778,-0.8778,-0.8778,-0.8778,-0.8804,-0.8804,-0.8811,-0.8831,-0.9185,-0.9178,-0.9204,-0.9684,-1.0108,-1.021,-1.0661,0.546,0.5395,0.5395,0.5395,0.5395,0.5395,0.5395,0.5395,0.5395,0.5395,0.5395,0.5395,0.5395,0.5345,0.4742,0.4387,0.4185,0.3656,0.3288,0.3211,0.2982,0.276,0.251,0.1675,0.1035,0.0979,0.0643,0.0532,0.0336,-0.0168,-0.0588,-0.0588,-0.0978,-0.1062,-0.1174,-0.1174,-0.1118,-0.1063,-0.0811,-0.056,-0.0588,-0.0587,-0.0588,-0.0615,-0.095,-0.1174,-0.1118,-0.1146,-0.1146,-0.1341,-0.187,-0.2649,-0.3234,-0.3705,-0.407,-0.4432,-0.4491,-0.4491,-0.4491,-0.4491,-0.4515,-0.4491,-0.4491,-0.4532,-0.4617,-0.4643,-0.4721,-0.4819,-0.4938,-0.5042,-0.5142,-0.5098,-0.5005,-0.4992,-0.4965,-0.4891,-0.497,-0.5692,-0.6411,-0.6912,-0.7488,-0.7784,-0.8074,-0.8378,-0.8231,-0.7909,-0.8364,-0.835,-0.8533,-0.8491,-0.8778,-0.8837,-0.8811,-0.8778,-0.8778,-0.8778,-0.8778,-0.8778,-0.8778,-0.8778,-0.8778,-0.8778,-0.8778,-0.8778,-0.8778,-0.8778,-0.8804,-0.8778,-0.8778,-0.8896,-0.8995,-0.9001,-0.9256,-0.9825,-1.0305,0.5515,0.5395,0.5395,0.5395,0.5395,0.5395,0.5395,0.5395,0.5395,0.5395,0.5395,0.5395,0.5378,0.5291,0.5091,0.4978,0.4776,0.4565,0.4215,0.4156,0.3763,0.3566,0.3317,0.2899,0.2538,0.2452,0.1675,0.1312,0.109,0.0671,0.0475,0.0392,0.0364,0.0335,0.0336,0.0336,0.0336,0.0363,0.0392,0.0308,0.0196,0.014,0.0112,0.0,0.0,0.0,0.0,0.0,0.0,0.0,-0.0588,-0.1619,-0.2563,-0.3148,-0.3372,-0.4042,-0.3929,-0.4015,-0.4125,-0.4236,-0.4267,-0.4432,-0.4491,-0.4491,-0.4528,-0.4597,-0.4655,-0.4723,-0.4785,-0.4891,-0.4894,-0.4887,-0.4887,-0.4844,-0.4867,-0.4789,-0.486,-0.5438,-0.5797,-0.5973,-0.6406,-0.6784,-0.688,-0.7057,-0.6778,-0.6669,-0.7187,-0.7563,-0.775,-0.7916,-0.8103,-0.8129,-0.7963,-0.791,-0.791,-0.799,-0.8096,-0.821,-0.8323,-0.8336,-0.8297,-0.8038,-0.7979,-0.8679,-0.8778,-0.8765,-0.8765,-0.8778,-0.8798,-0.8791,-0.8823,-0.8895,-0.9176,-0.9592,-0.9879,0.5419,0.5395,0.5395,0.5395,0.5395,0.5428,0.5458,0.5395,0.5491,0.5428,0.5458,0.5425,0.5454,0.5265,0.502,0.4839,0.4834,0.4761,0.4653,0.4598,0.4349,0.4291,0.4125,0.3956,0.3929,0.3707,0.2843,0.2119,0.2009,0.187,0.1563,0.1758,0.1703,0.1675,0.1647,0.1813,0.1619,0.1535,0.1564,0.1368,0.1034,0.0811,0.0588,0.0,0.0,0.0,0.0,0.0,0.0,0.0,0.0,-0.0644,-0.1424,-0.2037,-0.2426,-0.2704,-0.2815,-0.3067,-0.3425,-0.3511,-0.3873,-0.4291,-0.4349,-0.4377,-0.4415,-0.4428,-0.4325,-0.4523,-0.4611,-0.4774,-0.4874,-0.481,-0.476,-0.4733,-0.4668,-0.459,-0.4619,-0.4773,-0.4946,-0.5071,-0.5453,-0.5803,-0.5913,-0.6046,-0.6069,-0.6122,-0.6502,-0.6745,-0.688,-0.6966,-0.7047,-0.702,-0.6885,-0.6858,-0.6853,-0.6934,-0.7036,-0.7154,-0.7243,-0.721,-0.7118,-0.6863,-0.7076,-0.7952,-0.8502,-0.86,-0.8626,-0.8712,-0.8672,-0.8579,-0.8658,-0.875,-0.8896,-0.9031,-0.904,0.6671,0.6079,0.6075,0.5815,0.5524,0.591,0.6075,0.6141,0.6531,0.6761,0.6761,0.6752,0.6593,0.6371,0.6189,0.593,0.5635,0.5582,0.5386,0.514,0.5003,0.4787,0.4601,0.4519,0.4491,0.4294,0.3707,0.3121,0.2788,0.2343,0.2315,0.2176,0.2204,0.2204,0.2204,0.212,0.2232,0.2232,0.2232,0.2065,0.1647,0.1369,0.0867,0.0616,0.0,0.0,0.0,0.0,0.0,0.0,0.0,0.0,0.0,0.0,0.0,-0.1981,-0.2148,-0.2315,-0.2647,-0.2732,-0.2926,-0.3176,-0.3345,-0.3317,-0.3317,-0.3289,-0.3511,-0.3888,-0.4414,-0.461,-0.4659,-0.4592,-0.4604,-0.459,-0.4532,-0.447,-0.4491,-0.4491,-0.4491,-0.4491,-0.4829,-0.5085,-0.5046,-0.5207,-0.5418,-0.5632,-0.5878,-0.5955,-0.6036,-0.6177,-0.629,-0.6344,-0.6317,-0.6312,-0.6271,-0.622,-0.6192,-0.6233,-0.6223,-0.6225,-0.6236,-0.6111,-0.664,-0.7498,-0.7898,-0.7879,-0.8378,-0.8417,-0.839,-0.835,-0.8337,-0.8337,-0.8375,-0.8435,-0.8497,0.7875,0.6948,0.6981,0.656,0.6112,0.6658,0.6948,0.7111,0.7637,0.7897,0.7994,0.7947,0.774,0.7541,0.7265,0.6978,0.6603,0.6534,0.6172,0.5814,0.5706,0.541,0.5062,0.4763,0.4759,0.4787,0.4405,0.4208,0.3622,0.3121,0.2758,0.2843,0.2732,0.2649,0.2785,0.2929,0.2649,0.2647,0.2676,0.2647,0.2313,0.1758,0.1313,0.1285,0.0755,0.0,0.0,0.0,0.0,0.0,0.0,0.0,0.0,0.0,0.0,-0.1509,-0.1758,-0.1814,-0.1952,-0.198,-0.2093,-0.2426,-0.2259,-0.2232,-0.2286,-0.251,-0.2563,-0.3065,-0.3516,-0.3888,-0.3822,-0.3996,-0.4079,-0.4218,-0.4221,-0.4294,-0.4432,-0.4491,-0.4491,-0.4491,-0.4491,-0.4487,-0.4567,-0.4704,-0.4979,-0.5007,-0.5226,-0.5277,-0.5359,-0.5605,-0.5746,-0.5882,-0.5909,-0.5909,-0.5828,-0.5658,-0.5557,-0.5461,-0.5423,-0.5349,-0.5444,-0.5522,-0.6116,-0.6549,-0.6413,-0.6492,-0.729,-0.8094,-0.8065,-0.803,-0.7967,-0.7936,-0.7997,-0.8103,-0.8205,0.7975,0.7832,0.7864,0.7767,0.767,0.7762,0.7864,0.7864,0.8059,0.7994,0.8221,0.8066,0.8006,0.7772,0.7393,0.703,0.68,0.6777,0.6718,0.6502,0.6475,0.6367,0.6182,0.5655,0.5437,0.5355,0.4869,0.4487,0.4346,0.4233,0.4095,0.4042,0.3959,0.4156,0.3901,0.3876,0.4239,0.4181,0.4153,0.3846,0.3231,0.248,0.2119,0.2035,0.1896,0.173,0.1591,0.1228,0.0978,0.0895,0.0364,0.0,0.0,0.0,0.0,-0.0196,-0.0308,-0.0532,-0.1062,-0.1229,-0.1424,-0.1786,-0.2007,-0.2148,-0.1981,-0.2037,-0.2119,-0.2258,-0.2536,-0.2679,-0.2764,-0.2597,-0.2845,-0.3204,-0.3456,-0.379,-0.4098,-0.3846,-0.3929,-0.4012,-0.3846,-0.4098,-0.4263,-0.4377,-0.4515,-0.4546,-0.4574,-0.4653,-0.4763,-0.5062,-0.5171,-0.5281,-0.5308,-0.5308,-0.5318,-0.5162,-0.5019,-0.4818,-0.4698,-0.459,-0.465,-0.4759,-0.4825,-0.5103,-0.5043,-0.5626,-0.6742,-0.7423,-0.7639,-0.7646,-0.7475,-0.7503,-0.7607,-0.7736,-0.7892,0.9198,0.8742,0.8716,0.8452,0.8091,0.8517,0.8748,0.8844,0.9262,0.9448,0.9418,0.9249,0.9046,0.8747,0.8457,0.8253,0.806,0.7853,0.7589,0.7268,0.7182,0.7015,0.6588,0.6312,0.6145,0.6036,0.5846,0.5828,0.55,0.4873,0.4491,0.4546,0.4515,0.4405,0.457,0.4515,0.4463,0.4432,0.4432,0.4325,0.3901,0.3289,0.2815,0.2788,0.2452,0.2315,0.2176,0.1952,0.173,0.1675,0.134,0.0,0.0,0.0,0.1256,0.1256,0.1228,0.0698,-0.0252,-0.042,-0.0699,-0.0838,-0.0978,-0.0895,-0.1035,-0.1341,-0.1563,-0.1562,-0.1981,-0.212,-0.2122,-0.2206,-0.2343,-0.2565,-0.2676,-0.2899,-0.3178,-0.3123,-0.3037,-0.3148,-0.3259,-0.3428,-0.368,-0.3987,-0.4098,-0.4184,-0.4267,-0.4377,-0.4487,-0.4653,-0.4708,-0.4653,-0.468,-0.468,-0.4658,-0.4601,-0.4514,-0.4361,-0.4231,-0.4105,-0.3931,-0.3954,-0.4156,-0.4387,-0.4616,-0.537,-0.6344,-0.6532,-0.6563,-0.6744,-0.695,-0.7122,-0.7282,-0.7341,-0.7559,1.0699,0.9932,0.9722,0.9236,0.8705,0.9364,0.9626,0.9722,1.0269,1.0555,1.0533,1.0272,1.0026,0.9806,0.9471,0.9214,0.9101,0.8978,0.8551,0.8154,0.791,0.7691,0.7369,0.7074,0.6885,0.6858,0.6502,0.6453,0.6177,0.5687,0.5175,0.5007,0.5226,0.4979,0.4842,0.5007,0.5117,0.4814,0.4598,0.4463,0.4322,0.3932,0.3649,0.3428,0.3123,0.2758,0.2732,0.251,0.2482,0.2482,0.2176,0.2011,0.2012,0.1955,0.1981,0.1981,0.1953,0.1647,0.0838,0.0476,0.0308,0.0224,0.0,0.0,-0.0196,-0.0559,-0.081,-0.081,-0.1145,-0.148,-0.1647,-0.1564,-0.1675,-0.1758,-0.1925,-0.2009,-0.2148,-0.2286,-0.2454,-0.2621,-0.2676,-0.251,-0.2843,-0.34,-0.368,-0.3818,-0.3959,-0.4042,-0.4153,-0.4208,-0.4377,-0.4346,-0.4311,-0.4304,-0.4291,-0.4217,-0.4105,-0.3999,-0.3849,-0.3767,-0.3689,-0.367,-0.3838,-0.4039,-0.422,-0.4467,-0.5083,-0.5254,-0.5455,-0.5907,-0.635,-0.6775,-0.6995,-0.7059,-0.7319,1.2358,1.1555,1.0825,1.046,1.0333,1.046,1.0466,1.0396,1.0523,1.0579,1.0546,1.0539,1.0327,1.0094,0.9913,0.9637,0.9224,0.9191,0.8903,0.8751,0.8699,0.8533,0.8209,0.7883,0.7616,0.7536,0.7235,0.6885,0.6669,0.6772,0.6475,0.6453,0.6182,0.5932,0.5792,0.585,0.5741,0.5359,0.4979,0.4629,0.457,0.4401,0.4374,0.4322,0.4322,0.4322,0.4294,0.3594,0.3259,0.3259,0.2843,0.2565,0.2623,0.2593,0.2593,0.2593,0.2593,0.2399,0.2065,0.1424,0.1063,0.0839,0.0,0.0,0.0,0.014,-0.0056,0.0028,-0.0196,-0.028,-0.0252,-0.0252,-0.0755,-0.0978,-0.1202,-0.1368,-0.1535,-0.1757,-0.1924,-0.212,-0.2009,-0.173,-0.1675,-0.2148,-0.2788,-0.2954,-0.3065,-0.3148,-0.3483,-0.3624,-0.4042,-0.4155,-0.4083,-0.4065,-0.4108,-0.3974,-0.3765,-0.3791,-0.3778,-0.3696,-0.3628,-0.3644,-0.3667,-0.3707,-0.388,-0.3818,-0.3862,-0.4408,-0.4908,-0.5342,-0.5749,-0.6113,-0.6775,-0.7202,-0.7432,1.2826,1.2512,1.2212,1.1514,1.0586,1.0586,1.0586,1.0586,1.0586,1.0479,1.0376,1.0486,1.0394,1.0177,0.9907,0.9753,0.9466,0.9071,0.8971,0.8851,0.8778,0.8778,0.8646,0.856,0.8374,0.8295,0.8023,0.7969,0.7996,0.7803,0.7937,0.7777,0.7101,0.6534,0.6394,0.6394,0.6118,0.5846,0.5605,0.5473,0.4653,0.4893,0.4921,0.4519,0.4491,0.4491,0.4405,0.4211,0.4098,0.3984,0.3735,0.3566,0.3456,0.3456,0.3456,0.3456,0.3456,0.3456,0.3262,0.251,0.1814,0.1758,0.1535,0.1312,0.1174,0.1285,0.134,0.1256,0.0895,0.0699,0.0671,0.0252,-0.0224,-0.0364,-0.0504,-0.0643,-0.081,-0.1033,0.0,0.0,0.0,-0.0699,-0.0699,-0.081,-0.148,-0.2063,-0.2174,-0.2313,-0.2649,-0.2975,-0.3332,-0.3471,-0.3391,-0.342,-0.3442,-0.3423,-0.3372,-0.347,-0.3572,-0.3529,-0.3464,-0.36,-0.3622,-0.36,-0.36,-0.3667,-0.3799,-0.3998,-0.434,-0.4737,-0.5057,-0.5353,-0.6164,-0.7099,-0.7325,1.3575,1.3373,1.3334,1.2581,1.1389,1.1334,1.1327,1.1327,1.1358,1.1188,1.0988,1.1195,1.1181,1.0916,1.0688,1.0494,1.0371,0.9931,0.9472,0.9279,0.9159,0.8982,0.8857,0.8752,0.8699,0.8804,0.8778,0.8699,0.8646,0.8752,0.8672,0.8315,0.7824,0.7343,0.6885,0.6669,0.6416,0.6384,0.6226,0.6263,0.5308,0.555,0.571,0.5281,0.5254,0.5254,0.5308,0.5226,0.503,0.4893,0.4701,0.4649,0.4543,0.4491,0.4491,0.4491,0.4491,0.4515,0.4153,0.3428,0.2454,0.2147,0.2093,0.2093,0.2204,0.2204,0.1981,0.2037,0.1647,0.1424,0.1424,0.1062,0.0867,0.081,0.0392,0.0224,0.0084,0.0,0.0,0.0,0.0,-0.0168,-0.0224,-0.0308,-0.0587,-0.1228,-0.1534,-0.1646,-0.187,-0.2195,-0.2485,-0.254,-0.2468,-0.2572,-0.2669,-0.2627,-0.2635,-0.2751,-0.2892,-0.3194,-0.3236,-0.3376,-0.3534,-0.36,-0.36,-0.36,-0.3667,-0.3799,-0.3939,-0.4128,-0.4534,-0.5046,-0.5509,-0.6366,-0.6665,1.4835,1.4213,1.4183,1.3696,1.2948,1.2917,1.2856,1.2704,1.2726,1.271,1.2639,1.2726,1.2726,1.2573,1.2049,1.1686,1.142,1.1107,1.0569,0.991,0.9762,0.9413,0.9185,0.9054,0.9237,0.8877,0.9035,0.9159,0.8982,0.9133,0.9054,0.8982,0.8732,0.8282,0.767,0.6993,0.702,0.7423,0.6907,0.6723,0.6372,0.6426,0.6475,0.6236,0.6177,0.6122,0.6127,0.6127,0.5905,0.5578,0.5492,0.53,0.4901,0.4818,0.4791,0.4759,0.4708,0.4653,0.4463,0.379,0.3231,0.2674,0.2732,0.2621,0.2397,0.2341,0.251,0.276,0.2315,0.2202,0.2147,0.2065,0.1925,0.1703,0.1257,0.1063,0.0923,0.0,0.0,0.0,0.0,0.0056,0.0028,0.0028,0.0,-0.0336,-0.0783,-0.1032,-0.1194,0.0,0.0,-0.157,-0.1515,-0.1759,-0.1861,-0.186,-0.1891,-0.2022,-0.2259,-0.2566,-0.2835,-0.2948,-0.3151,-0.342,-0.3284,-0.3015,-0.3262,-0.3534,-0.3512,-0.3541,-0.4371,-0.492,-0.5304,-0.5606,-0.5979,1.5264,1.4991,1.4991,1.4835,1.4451,1.3425,1.3009,1.3009,1.3009,1.3009,1.3009,1.3009,1.3009,1.2835,1.2464,1.2102,1.1867,1.1191,1.0582,1.0533,1.0458,1.0364,1.0115,0.9961,1.0046,1.0115,1.0115,1.0038,1.0185,0.9987,1.0064,1.0097,0.9588,0.9073,0.858,0.8076,0.8103,0.783,0.775,0.7664,0.6804,0.702,0.7128,0.6723,0.6696,0.6723,0.675,0.6804,0.6588,0.6285,0.6222,0.6064,0.58,0.5746,0.58,0.5823,0.5855,0.5628,0.5328,0.4827,0.4501,0.3978,0.3594,0.3569,0.3677,0.3732,0.3735,0.3539,0.3123,0.3037,0.2982,0.2425,0.2176,0.2093,0.1842,0.1842,0.1758,0.1703,0.0,0.0,0.0,0.1006,0.0839,0.0727,0.0643,0.0443,0.0,-0.03,-0.0488,0.0,0.0,0.0,-0.0577,-0.0883,-0.1079,-0.1144,-0.1351,-0.1581,-0.1765,-0.203,-0.2253,-0.2433,-0.2477,-0.2588,-0.2499,-0.243,-0.261,-0.2765,-0.2765,-0.301,-0.371,-0.4341,-0.4688,-0.5043,-0.5478,1.5642,1.542,1.542,1.542,1.5235,1.4273,1.3825,1.3846,1.3846,1.3816,1.3855,1.3846,1.3779,1.3515,1.3,1.2526,1.2395,1.1859,1.125,1.1216,1.1141,1.0939,1.0813,1.0838,1.0644,1.0813,1.0813,1.0762,1.0661,1.0762,1.0712,1.0568,1.0356,0.9961,0.9484,0.9073,0.854,0.8321,0.8374,0.8315,0.7803,0.7777,0.7863,0.7589,0.7456,0.7429,0.7402,0.7321,0.7208,0.7074,0.6966,0.6858,0.675,0.6615,0.6615,0.6588,0.6534,0.6308,0.6005,0.5869,0.5542,0.5273,0.4873,0.4519,0.4491,0.4322,0.4349,0.4208,0.3956,0.3873,0.3677,0.3065,0.2954,0.2899,0.2704,0.2704,0.2565,0.2508,0.2202,0.2287,0.2232,0.1842,0.1647,0.1507,0.1396,0.1102,0.0788,0.051,0.0213,0.0,0.0,0.0,0.0025,-0.0299,-0.0515,-0.0554,-0.0797,-0.1103,-0.1295,-0.1474,-0.1652,-0.183,-0.1786,-0.1784,-0.1917,-0.2006,-0.1916,-0.196,-0.2097,-0.2342,-0.2796,-0.3398,-0.3975,-0.4347,-0.4674,1.6122,1.5526,1.5439,1.5497,1.5488,1.54,1.5352,1.5352,1.5352,1.5294,1.5323,1.5167,1.484,1.4626,1.4189,1.3676,1.3279,1.2878,1.2376,1.1981,1.1857,1.15,1.125,1.1124,1.1275,1.1099,1.1074,1.1325,1.0965,1.1225,1.12,1.0939,1.0889,1.0644,1.0236,0.971,0.9159,0.9126,0.8949,0.8896,0.8653,0.8613,0.8533,0.8374,0.8401,0.8401,0.8427,0.8427,0.8156,0.7943,0.7729,0.7321,0.6993,0.6696,0.6669,0.6723,0.6804,0.6799,0.6664,0.6637,0.6475,0.6122,0.5336,0.4818,0.4736,0.4952,0.5034,0.4924,0.4701,0.4677,0.4539,0.4401,0.4236,0.4012,0.3677,0.3539,0.3345,0.3093,0.2702,0.2563,0.2482,0.2315,0.2313,0.223,0.2147,0.1855,0.1586,0.1346,0.1037,0.0,0.0,0.0,0.0377,0.0154,0.0025,-0.0048,0.0,0.0,0.0,-0.0895,-0.1073,-0.1162,-0.1163,-0.1251,-0.1541,-0.1561,-0.1272,-0.134,-0.159,-0.1854,-0.2051,-0.265,-0.3293,-0.3319,-0.3536,1.7163,1.6912,1.6397,1.6482,1.6856,1.6425,1.5892,1.5439,1.542,1.542,1.5391,1.5088,1.4902,1.4727,1.3997,1.3646,1.3379,1.3125,1.2856,1.2608,1.2461,1.2412,1.2314,1.2181,1.2264,1.224,1.2206,1.2098,1.2255,1.223,1.1866,1.1625,1.1525,1.1291,1.0889,1.0415,1.0295,1.0072,0.9795,0.9536,0.9361,0.9185,0.9061,0.8956,0.8982,0.8982,0.8982,0.8956,0.8718,0.8613,0.8507,0.8268,0.8262,0.8156,0.8189,0.8156,0.8129,0.799,0.7509,0.7375,0.7241,0.6858,0.6231,0.6122,0.5987,0.5932,0.5905,0.5632,0.5414,0.5359,0.5336,0.5226,0.514,0.4944,0.4666,0.4422,0.4284,0.4171,0.3782,0.3506,0.3395,0.3037,0.3037,0.3037,0.2924,0.2639,0.2399,0.2224,0.1848,0.1432,0.1119,0.1064,0.0935,0.0775,0.0495,0.0,0.0,0.0,0.0,-0.0134,-0.0224,-0.0313,-0.0471,-0.0515,-0.0513,-0.0514,-0.0448,-0.0538,-0.0582,-0.1007,-0.1273,-0.1941,-0.2477,-0.2566,-0.2677,1.7879,1.755,1.7118,1.7191,1.7468,1.7118,1.6669,1.6216,1.5671,1.542,1.5371,1.5009,1.4687,1.4424,1.3838,1.3428,1.3213,1.3052,1.2856,1.2856,1.2978,1.2832,1.2881,1.2954,1.2808,1.2915,1.2905,1.2725,1.2929,1.2881,1.2559,1.2295,1.2236,1.2015,1.1767,1.1692,1.1667,1.1283,1.0821,1.0338,1.0012,0.9788,0.9658,0.951,0.9543,0.9543,0.9543,0.951,0.9562,0.9484,0.9439,0.9185,0.908,0.8956,0.8778,0.8699,0.8646,0.848,0.8182,0.8135,0.7863,0.7616,0.7444,0.7477,0.7155,0.6912,0.6642,0.6344,0.6177,0.6009,0.5987,0.5959,0.5928,0.5846,0.5605,0.5363,0.5363,0.5363,0.5085,0.478,0.4395,0.3956,0.379,0.3846,0.379,0.3591,0.3531,0.3479,0.2918,0.227,0.1933,0.1729,0.1597,0.145,0.1184,0.1001,0.0,0.0,0.0,0.0831,0.0695,0.0649,0.0626,0.0648,0.0694,0.0649,0.0515,0.0627,0.0581,0.0112,-0.0358,-0.0804,-0.1426,-0.1986,-0.2119,1.8394,1.7825,1.7797,1.7797,1.7677,1.7677,1.7649,1.7512,1.6273,1.5604,1.5572,1.5137,1.4809,1.4619,1.4074,1.36,1.3492,1.3364,1.3368,1.3075,1.332,1.3344,1.3296,1.3113,1.3382,1.3176,1.3113,1.3334,1.3079,1.3152,1.3272,1.2954,1.2958,1.2779,1.2593,1.2569,1.2495,1.2314,1.1667,1.1074,1.0872,1.0813,1.0813,1.0686,1.0661,1.0686,1.0686,1.0737,1.0788,1.0568,1.0295,0.9891,0.9684,0.9458,0.9185,0.9133,0.9256,0.9237,0.9152,0.9126,0.908,0.8975,0.8929,0.8909,0.8606,0.7824,0.7396,0.7182,0.7015,0.7015,0.6988,0.6556,0.634,0.6394,0.6312,0.6127,0.6018,0.6018,0.5878,0.5574,0.5328,0.4921,0.4889,0.4944,0.4995,0.4728,0.4673,0.469,0.434,0.3558,0.3011,0.2676,0.2331,0.2219,0.205,0.1892,0.1845,0.0,0.1834,0.164,0.1374,0.1496,0.1739,0.1518,0.1274,0.1499,0.1521,0.1453,0.1273,0.1005,0.0603,0.0335,-0.0223,-0.087,-0.1406,1.9423,1.9293,1.9281,1.8953,1.8474,1.8436,1.8447,1.8367,1.7495,1.7079,1.6927,1.6276,1.5758,1.545,1.4695,1.4245,1.4185,1.4014,1.4224,1.4165,1.4142,1.4001,1.4177,1.4048,1.4154,1.4271,1.4201,1.3986,1.3718,1.3847,1.3787,1.3089,1.3262,1.3443,1.3089,1.3065,1.2968,1.2968,1.252,1.1916,1.16,1.1065,1.0813,1.0864,1.0889,1.0965,1.0965,1.0914,1.0864,1.0712,1.0661,1.0568,1.0542,1.0364,1.0312,1.0312,1.0192,1.0115,1.0115,1.009,1.009,1.0192,1.0218,1.0295,0.9902,0.8883,0.8262,0.8096,0.7937,0.7937,0.7803,0.7235,0.6831,0.6972,0.7052,0.6891,0.6696,0.6615,0.6556,0.6367,0.615,0.6014,0.5959,0.5987,0.6095,0.6095,0.6095,0.6064,0.5923,0.5356,0.4563,0.4078,0.3234,0.2978,0.2972,0.3039,0.3117,0.2802,0.2704,0.2414,0.2133,0.2234,0.2381,0.196,0.1739,0.2032,0.2099,0.1808,0.1652,0.1607,0.1495,0.1205,0.1159,0.0668,-0.0089,1.9798,1.9798,1.9798,1.9579,1.9228,1.9176,1.9202,1.9123,1.8753,1.857,1.8327,1.7237,1.644,1.6204,1.5383,1.4879,1.4811,1.4686,1.4594,1.4663,1.4801,1.464,1.4709,1.4789,1.464,1.472,1.4944,1.4802,1.4384,1.464,1.4551,1.3828,1.4014,1.4014,1.3634,1.3491,1.331,1.331,1.3113,1.273,1.231,1.1907,1.1733,1.1733,1.1708,1.1683,1.1742,1.1742,1.1742,1.1575,1.145,1.099,1.0864,1.0686,1.0737,1.0737,1.0712,1.0813,1.0838,1.0889,1.0914,1.0914,1.0838,1.0669,1.0618,0.9695,0.9399,0.9183,0.8527,0.8427,0.8427,0.8017,0.7937,0.7996,0.7996,0.791,0.767,0.7456,0.7316,0.7122,0.6799,0.6357,0.6303,0.6308,0.6389,0.6406,0.6573,0.6804,0.6777,0.716,0.6371,0.5752,0.5111,0.4722,0.4911,0.4811,0.4616,0.4202,0.3708,0.3754,0.3728,0.3288,0.2978,0.278,0.2652,0.2702,0.2657,0.2583,0.2317,0.2253,0.2186,0.2051,0.2051,0.2049,0.1314,1.9798,1.9798,1.9798,1.9798,1.9798,1.9798,1.9773,1.9773,1.9773,1.9747,1.9516,1.8057,1.7091,1.6455,1.5837,1.537,1.5131,1.5266,1.5107,1.5073,1.5096,1.5231,1.5197,1.5062,1.5152,1.5279,1.5487,1.5257,1.4846,1.528,1.5384,1.4869,1.4755,1.4778,1.4583,1.426,1.3909,1.3836,1.3634,1.3296,1.3104,1.2978,1.2774,1.2798,1.2968,1.2968,1.2929,1.2968,1.2958,1.2642,1.2221,1.1832,1.1509,1.1409,1.1325,1.135,1.14,1.1359,1.1283,1.135,1.1275,1.1174,1.1065,1.1065,1.1099,1.0872,1.0568,1.0115,0.9458,0.908,0.9106,0.908,0.9054,0.9028,0.9001,0.9001,0.8705,0.8488,0.8296,0.8104,0.7747,0.7277,0.7202,0.7154,0.7122,0.709,0.7068,0.7122,0.7396,0.8106,0.811,0.7844,0.7547,0.7267,0.6657,0.6284,0.5857,0.5618,0.5229,0.5327,0.5226,0.4509,0.4042,0.3891,0.381,0.3744,0.3766,0.3778,0.347,0.3114,0.3309,0.3372,0.313,0.3017,0.2559,1.9798,1.9798,1.9798,1.9798,1.9798,1.9798,1.9798,1.9798,1.9798,1.9798,1.9671,1.952,1.877,1.7749,1.6716,1.6183,1.6058,1.6025,1.612,1.6185,1.5932,1.6032,1.6032,1.5788,1.6086,1.614,1.6114,1.5905,1.5603,1.5933,1.5765,1.4915,1.5332,1.5197,1.4744,1.4537,1.4514,1.4433,1.4363,1.4142,1.3918,1.3621,1.2978,1.3065,1.3372,1.3214,1.3152,1.3409,1.3252,1.3007,1.2774,1.2559,1.2363,1.223,1.2206,1.2132,1.2181,1.227,1.227,1.2197,1.2147,1.2423,1.2399,1.2344,1.2212,1.1898,1.1625,1.1375,1.0796,1.0364,1.0287,1.021,1.0185,1.0185,1.0159,1.0159,1.0023,0.9972,0.9913,0.9835,0.9751,0.953,0.9504,0.9478,0.9452,0.9412,0.9353,0.9382,0.9219,0.9548,0.9746,0.9618,0.9496,0.8311,0.7122,0.7165,0.6913,0.6765,0.6618,0.6469,0.6129,0.5468,0.509,0.4936,0.4872,0.4832,0.4871,0.4718,0.4679,0.443,0.4735,0.48,0.4422,0.4051,0.3635]}]]